[[{"header":{"parameterUnit":"m.s-1","parameterCategory":1,"la1":30.6,"la2":29.2853,"lo1":-89.7004,"lo2":-87.6739,"dy":0.0162,"dx":0.0183,"nx":112,"ny":82,"refTime":"2024-05-03T06:00:00:Z","depth":0,"parameterNumber":2,"parameterNumberName":"U-component_of_WINDS"},"data":[0.0,0.0,0.0,0.0,0.0,0.0,0.0,0.0,0.0,0.0,0.0,0.0,0.0,0.0,0.0,0.0,0.0,0.0,0.0,0.0,0.0,0.0,0.0,0.0,0.0,0.0,0.0,0.0,0.0,0.0,0.0,0.0,0.0,0.0,0.0,0.0,0.0,0.0,0.0,0.0,0.0,0.0,0.0,0.0,0.0,0.0,0.0,0.0,0.0,0.0,0.0,0.0,0.0,0.0,0.0,0.0,0.0,0.0,0.0,0.0,0.0,0.0,0.0,0.0,0.0,0.0,0.0,0.0,0.0,0.0,0.0,0.0,0.0,0.0,0.0,0.0,0.0,0.0,0.0,0.0,0.0,0.0,0.0,0.0,0.0,0.0,0.0,0.0,0.0,0.0,-7.1992,-7.1952,-7.1806,-7.1601,-7.1348,-7.1258,-7.1178,-7.1106,0.0,0.0,0.0,0.0,0.0,0.0,0.0,0.0,0.0,0.0,0.0,0.0,0.0,0.0,0.0,0.0,0.0,0.0,0.0,0.0,0.0,0.0,0.0,0.0,0.0,0.0,0.0,0.0,0.0,0.0,0.0,0.0,0.0,0.0,0.0,0.0,0.0,0.0,0.0,0.0,0.0,0.0,0.0,0.0,0.0,0.0,0.0,0.0,0.0,0.0,0.0,0.0,0.0,0.0,0.0,0.0,0.0,0.0,0.0,0.0,0.0,0.0,0.0,0.0,0.0,0.0,0.0,0.0,0.0,0.0,0.0,0.0,0.0,0.0,0.0,0.0,0.0,0.0,0.0,0.0,0.0,0.0,0.0,0.0,0.0,0.0,0.0,0.0,0.0,0.0,0.0,0.0,0.0,0.0,0.0,0.0,0.0,0.0,0.0,0.0,0.0,0.0,0.0,0.0,-7.1951,-7.1848,-7.1733,-7.1641,-7.1495,-7.1317,-7.1178,-7.1106,0.0,0.0,0.0,0.0,0.0,0.0,0.0,0.0,0.0,0.0,0.0,0.0,0.0,0.0,0.0,0.0,0.0,0.0,0.0,0.0,0.0,0.0,0.0,0.0,0.0,0.0,0.0,0.0,0.0,0.0,0.0,0.0,0.0,0.0,0.0,0.0,0.0,0.0,0.0,0.0,0.0,0.0,0.0,0.0,0.0,0.0,0.0,0.0,0.0,0.0,0.0,0.0,0.0,0.0,0.0,0.0,0.0,0.0,0.0,0.0,0.0,0.0,0.0,0.0,0.0,0.0,0.0,0.0,0.0,0.0,0.0,0.0,0.0,0.0,0.0,0.0,0.0,0.0,0.0,0.0,0.0,0.0,0.0,0.0,0.0,0.0,0.0,0.0,0.0,0.0,0.0,0.0,0.0,0.0,0.0,0.0,0.0,0.0,0.0,0.0,0.0,0.0,0.0,-7.1992,-7.195,-7.1797,-7.1725,-7.1647,-7.1497,-7.1358,-7.1213,-7.1106,-7.1068,0.0,0.0,0.0,0.0,0.0,0.0,0.0,0.0,0.0,0.0,0.0,0.0,0.0,0.0,0.0,0.0,0.0,0.0,0.0,0.0,0.0,0.0,0.0,0.0,0.0,0.0,0.0,0.0,0.0,0.0,0.0,0.0,0.0,0.0,0.0,0.0,0.0,0.0,0.0,0.0,0.0,0.0,0.0,0.0,0.0,0.0,0.0,0.0,0.0,0.0,0.0,0.0,0.0,0.0,0.0,0.0,0.0,0.0,0.0,0.0,0.0,0.0,0.0,0.0,0.0,0.0,0.0,0.0,0.0,0.0,0.0,0.0,0.0,0.0,0.0,0.0,0.0,0.0,0.0,0.0,0.0,0.0,0.0,0.0,0.0,0.0,0.0,0.0,0.0,0.0,0.0,0.0,0.0,0.0,0.0,0.0,0.0,0.0,0.0,0.0,0.0,0.0,-7.1992,-7.1951,-7.1852,-7.1776,-7.1665,-7.1551,-7.1407,-7.1236,-7.1106,-7.1106,0.0,0.0,0.0,0.0,0.0,0.0,0.0,0.0,0.0,0.0,0.0,0.0,0.0,0.0,0.0,0.0,0.0,0.0,0.0,0.0,0.0,0.0,0.0,0.0,0.0,0.0,0.0,0.0,0.0,0.0,0.0,0.0,0.0,0.0,0.0,0.0,0.0,0.0,0.0,0.0,0.0,0.0,0.0,0.0,0.0,0.0,0.0,0.0,0.0,0.0,0.0,0.0,0.0,0.0,0.0,0.0,0.0,0.0,0.0,0.0,0.0,0.0,0.0,0.0,0.0,0.0,0.0,0.0,0.0,0.0,0.0,0.0,0.0,0.0,0.0,0.0,0.0,0.0,0.0,0.0,0.0,0.0,0.0,0.0,0.0,0.0,0.0,0.0,0.0,0.0,0.0,0.0,0.0,0.0,0.0,0.0,0.0,0.0,0.0,0.0,0.0,0.0,-7.1992,-7.1992,-7.1992,-7.181,-7.17,-7.1689,-7.1452,-7.1236,-7.1106,-7.1106,0.0,0.0,0.0,0.0,0.0,0.0,0.0,0.0,0.0,0.0,0.0,0.0,0.0,0.0,0.0,0.0,0.0,0.0,0.0,0.0,0.0,0.0,0.0,0.0,0.0,0.0,0.0,0.0,0.0,0.0,0.0,0.0,0.0,0.0,0.0,0.0,0.0,0.0,0.0,0.0,0.0,0.0,0.0,0.0,0.0,0.0,0.0,0.0,0.0,0.0,0.0,0.0,0.0,0.0,0.0,0.0,0.0,0.0,0.0,0.0,0.0,0.0,0.0,0.0,0.0,0.0,0.0,0.0,0.0,0.0,0.0,0.0,0.0,0.0,0.0,0.0,0.0,0.0,0.0,0.0,0.0,0.0,0.0,0.0,0.0,0.0,0.0,0.0,0.0,0.0,0.0,0.0,0.0,0.0,0.0,0.0,0.0,0.0,0.0,0.0,0.0,0.0,-7.1992,-7.1992,-7.1992,-7.1813,-7.17,-7.17,-7.146,-7.1258,-7.1178,0.0,0.0,0.0,0.0,0.0,0.0,0.0,0.0,0.0,0.0,0.0,0.0,0.0,0.0,0.0,0.0,0.0,0.0,0.0,0.0,0.0,0.0,0.0,0.0,0.0,0.0,0.0,0.0,0.0,0.0,0.0,0.0,0.0,0.0,0.0,0.0,0.0,0.0,0.0,0.0,0.0,0.0,0.0,0.0,0.0,0.0,0.0,0.0,0.0,0.0,0.0,0.0,0.0,0.0,0.0,0.0,0.0,0.0,0.0,0.0,0.0,0.0,0.0,0.0,0.0,0.0,0.0,0.0,0.0,0.0,0.0,0.0,0.0,0.0,0.0,0.0,0.0,0.0,0.0,0.0,0.0,0.0,0.0,0.0,0.0,0.0,0.0,0.0,0.0,0.0,0.0,0.0,0.0,0.0,0.0,0.0,0.0,0.0,0.0,0.0,0.0,0.0,-7.1992,-7.1992,-7.1992,-7.1992,-7.1831,-7.1711,-7.1711,-7.1505,-7.1337,-7.1285,0.0,0.0,0.0,0.0,0.0,0.0,0.0,0.0,0.0,0.0,0.0,0.0,0.0,0.0,0.0,0.0,0.0,0.0,0.0,0.0,0.0,0.0,0.0,0.0,0.0,0.0,0.0,0.0,0.0,0.0,0.0,0.0,0.0,0.0,0.0,0.0,0.0,0.0,0.0,0.0,0.0,0.0,0.0,0.0,0.0,0.0,0.0,0.0,0.0,0.0,0.0,0.0,0.0,0.0,0.0,0.0,0.0,0.0,0.0,0.0,0.0,0.0,0.0,0.0,0.0,0.0,0.0,0.0,0.0,0.0,0.0,0.0,0.0,0.0,0.0,0.0,0.0,0.0,0.0,0.0,0.0,0.0,0.0,0.0,0.0,0.0,0.0,0.0,0.0,0.0,0.0,0.0,0.0,0.0,0.0,0.0,0.0,0.0,0.0,0.0,0.0,0.0,-7.1992,-7.1992,-7.1992,-7.1992,-7.1898,-7.1792,-7.1792,-7.162,-7.1465,0.0,0.0,0.0,0.0,0.0,0.0,0.0,0.0,0.0,0.0,0.0,0.0,0.0,0.0,0.0,0.0,0.0,0.0,0.0,0.0,0.0,0.0,0.0,0.0,0.0,0.0,0.0,0.0,0.0,0.0,0.0,0.0,0.0,0.0,0.0,0.0,0.0,0.0,0.0,0.0,0.0,0.0,0.0,0.0,0.0,0.0,0.0,0.0,0.0,0.0,0.0,0.0,0.0,0.0,0.0,0.0,0.0,0.0,0.0,0.0,0.0,0.0,0.0,0.0,0.0,0.0,0.0,0.0,0.0,0.0,0.0,0.0,0.0,0.0,0.0,0.0,0.0,0.0,0.0,0.0,0.0,0.0,0.0,0.0,0.0,0.0,0.0,0.0,0.0,0.0,0.0,0.0,0.0,0.0,0.0,0.0,0.0,0.0,0.0,0.0,0.0,0.0,0.0,-7.1992,-7.1992,-7.1992,-7.1992,-7.1898,-7.1792,-7.1792,-7.1697,-7.1601,-7.1473,0.0,0.0,0.0,0.0,0.0,0.0,0.0,0.0,0.0,0.0,0.0,0.0,0.0,0.0,0.0,0.0,0.0,0.0,0.0,0.0,0.0,0.0,0.0,0.0,0.0,0.0,0.0,0.0,0.0,0.0,0.0,0.0,0.0,0.0,0.0,0.0,0.0,0.0,0.0,0.0,0.0,0.0,0.0,0.0,0.0,0.0,0.0,0.0,0.0,0.0,0.0,0.0,0.0,0.0,0.0,0.0,0.0,0.0,0.0,0.0,0.0,0.0,0.0,0.0,0.0,0.0,0.0,0.0,0.0,0.0,0.0,0.0,0.0,0.0,0.0,0.0,0.0,0.0,0.0,0.0,0.0,0.0,0.0,0.0,0.0,0.0,0.0,0.0,0.0,0.0,0.0,0.0,0.0,0.0,0.0,0.0,0.0,0.0,0.0,0.0,0.0,0.0,-7.1992,-7.1992,-7.1992,-7.1992,-7.1634,-7.1352,-7.1352,-7.099,-7.0722,-7.0614,0.0,0.0,0.0,0.0,0.0,0.0,0.0,0.0,0.0,0.0,0.0,0.0,0.0,0.0,0.0,0.0,0.0,0.0,0.0,0.0,0.0,0.0,0.0,0.0,0.0,0.0,0.0,0.0,0.0,0.0,0.0,0.0,0.0,0.0,0.0,0.0,0.0,0.0,0.0,0.0,0.0,0.0,0.0,0.0,0.0,0.0,0.0,0.0,0.0,0.0,0.0,0.0,0.0,0.0,0.0,0.0,0.0,0.0,0.0,0.0,0.0,0.0,0.0,0.0,0.0,0.0,0.0,0.0,0.0,0.0,0.0,0.0,0.0,0.0,0.0,0.0,0.0,0.0,0.0,0.0,0.0,0.0,0.0,0.0,0.0,0.0,0.0,0.0,0.0,0.0,0.0,0.0,0.0,0.0,0.0,0.0,0.0,0.0,0.0,0.0,0.0,0.0,-7.1992,-7.1914,-7.1875,-7.1875,-7.1094,-7.0586,-7.0586,-6.9791,-6.9296,-6.9291,0.0,0.0,0.0,0.0,0.0,0.0,0.0,0.0,0.0,0.0,0.0,0.0,0.0,0.0,0.0,0.0,0.0,0.0,0.0,0.0,0.0,0.0,0.0,0.0,0.0,0.0,0.0,0.0,0.0,0.0,0.0,0.0,0.0,0.0,0.0,0.0,0.0,0.0,0.0,0.0,0.0,0.0,0.0,0.0,0.0,0.0,0.0,0.0,0.0,0.0,0.0,0.0,0.0,0.0,0.0,0.0,0.0,0.0,0.0,0.0,-7.3984,-7.4219,0.0,0.0,0.0,0.0,0.0,0.0,0.0,0.0,0.0,0.0,0.0,0.0,0.0,0.0,0.0,0.0,0.0,0.0,0.0,0.0,0.0,0.0,0.0,0.0,0.0,0.0,0.0,0.0,0.0,0.0,0.0,0.0,0.0,0.0,0.0,0.0,0.0,0.0,0.0,0.0,-7.1992,-7.1406,-7.0976,-7.0976,-7.0234,-6.9726,-6.9687,-6.953,-6.9406,-6.9294,-6.9263,0.0,0.0,0.0,0.0,0.0,0.0,0.0,0.0,0.0,0.0,0.0,0.0,0.0,0.0,0.0,0.0,0.0,0.0,0.0,0.0,0.0,0.0,0.0,0.0,0.0,0.0,0.0,0.0,0.0,0.0,0.0,0.0,0.0,0.0,0.0,0.0,0.0,0.0,0.0,0.0,0.0,0.0,0.0,0.0,0.0,0.0,0.0,0.0,0.0,0.0,0.0,0.0,0.0,0.0,0.0,0.0,0.0,0.0,0.0,-7.2969,-7.3086,0.0,0.0,0.0,0.0,0.0,0.0,0.0,0.0,0.0,0.0,0.0,0.0,0.0,0.0,0.0,0.0,0.0,0.0,0.0,0.0,0.0,0.0,0.0,0.0,0.0,0.0,0.0,0.0,0.0,0.0,0.0,0.0,0.0,0.0,0.0,0.0,0.0,0.0,0.0,0.0,-7.1367,-7.0625,-7.0078,-7.0117,-6.9375,-6.8867,-6.8828,-6.8476,-6.8202,-6.8152,-6.8095,0.0,0.0,0.0,0.0,0.0,0.0,0.0,0.0,0.0,0.0,0.0,0.0,0.0,0.0,0.0,0.0,0.0,0.0,0.0,0.0,0.0,0.0,0.0,0.0,0.0,0.0,0.0,0.0,0.0,0.0,0.0,0.0,0.0,0.0,0.0,0.0,0.0,0.0,0.0,0.0,0.0,0.0,0.0,0.0,0.0,0.0,0.0,0.0,0.0,0.0,0.0,0.0,0.0,-7.1737,-7.178,-7.1795,-7.1906,-7.1991,-7.1992,-7.1992,-7.1992,-7.1992,-7.1992,0.0,0.0,0.0,0.0,0.0,0.0,0.0,0.0,0.0,0.0,0.0,0.0,0.0,0.0,0.0,0.0,0.0,0.0,0.0,0.0,0.0,0.0,-7.1992,-7.1992,-7.1992,-7.1992,-7.1992,0.0,0.0,0.0,0.0,0.0,0.0,0.0,0.0,0.0,0.0,0.0,-7.0469,-6.9726,-6.9219,-6.9258,-6.8476,-6.7969,-6.7969,-6.7305,-6.6914,-6.6914,-6.6787,-6.6731,0.0,0.0,0.0,0.0,0.0,0.0,0.0,0.0,0.0,0.0,0.0,0.0,0.0,0.0,0.0,0.0,0.0,0.0,0.0,0.0,0.0,0.0,0.0,0.0,0.0,0.0,0.0,0.0,0.0,0.0,0.0,0.0,-7.0898,-7.0898,0.0,0.0,0.0,0.0,0.0,0.0,0.0,0.0,0.0,0.0,0.0,0.0,0.0,-7.1163,-7.1174,-7.1349,-7.1417,-7.1426,-7.1614,-7.1729,-7.1792,-7.1839,-7.19,-7.1992,-7.1992,0.0,-7.1992,-7.1992,0.0,0.0,0.0,0.0,0.0,0.0,0.0,0.0,0.0,0.0,0.0,0.0,0.0,0.0,0.0,0.0,0.0,0.0,0.0,0.0,0.0,0.0,-7.1992,-7.1992,-7.1992,-7.1992,-7.1992,-7.1992,-7.1992,-7.1992,-7.1992,-7.1992,0.0,0.0,0.0,0.0,0.0,0.0,-6.957,-6.8867,-6.8359,-6.8359,-6.7578,-6.707,-6.707,-6.6953,-6.6914,-6.6914,-6.6874,-6.6874,-6.6874,-6.6874,0.0,0.0,0.0,0.0,0.0,0.0,0.0,0.0,0.0,0.0,0.0,0.0,0.0,0.0,0.0,0.0,0.0,0.0,0.0,0.0,0.0,0.0,0.0,0.0,0.0,0.0,0.0,0.0,0.0,-7.0898,-7.0898,-7.0898,-7.0898,-7.0898,0.0,0.0,0.0,0.0,0.0,0.0,0.0,0.0,0.0,-7.0992,-7.0992,-7.1005,-7.1043,-7.1112,-7.1214,-7.1288,-7.1473,-7.1562,-7.1644,-7.1757,-7.1844,-7.1902,-7.1952,-7.1992,-7.1992,-7.1992,-7.1992,-7.1992,0.0,0.0,0.0,0.0,-7.1992,-7.1992,-7.1992,-7.1992,-7.1992,-7.1992,0.0,0.0,0.0,0.0,0.0,0.0,0.0,-7.1992,-7.1992,-7.1992,-7.1992,-7.1992,-7.1992,-7.1992,-7.1992,-7.1601,-7.1406,-7.1914,-7.1601,-7.1289,-7.1289,-7.0547,0.0,0.0,0.0,-6.875,-6.8711,-6.8008,-6.7461,-6.7461,-6.7148,-6.6914,-6.6914,-6.6914,-6.6914,-6.6914,-6.6914,-6.668,-6.6172,-6.6172,-6.5937,0.0,0.0,0.0,0.0,0.0,0.0,0.0,0.0,0.0,0.0,0.0,0.0,0.0,0.0,0.0,0.0,0.0,0.0,0.0,0.0,0.0,0.0,0.0,0.0,0.0,0.0,0.0,0.0,-7.0898,-7.0898,-7.0898,-7.0898,-7.0898,0.0,0.0,0.0,0.0,0.0,0.0,-7.0898,-7.0898,-7.0898,-7.0898,-7.0898,-7.0925,-7.0979,-7.0992,-7.1056,-7.1154,-7.1278,-7.1377,-7.1473,-7.1616,-7.1753,-7.1795,-7.1904,-7.1952,-7.1992,-7.1992,-7.1992,-7.1992,-7.1992,-7.1992,-7.1992,-7.1992,-7.1992,-7.1992,-7.1992,-7.1992,-7.1992,-7.1992,-7.1992,-7.1992,-7.1992,0.0,0.0,0.0,0.0,-7.1992,-7.1992,-7.1992,-7.1992,-7.1992,-7.1836,-7.168,-7.168,-7.1015,-7.0664,-7.1484,-7.0976,-7.039,-7.039,-6.9687,0.0,-6.9101,-6.8398,-6.7851,-6.7851,-6.7305,-6.6914,-6.6914,-6.6914,-6.6914,-6.6914,-6.6719,-6.6562,-6.6562,-6.6367,-6.5937,-6.5273,-6.5273,-6.4961,-6.4297,0.0,0.0,0.0,0.0,0.0,0.0,0.0,0.0,0.0,0.0,0.0,0.0,0.0,0.0,0.0,0.0,0.0,0.0,0.0,0.0,0.0,0.0,0.0,0.0,0.0,0.0,0.0,0.0,0.0,-7.0898,-7.0898,0.0,0.0,0.0,0.0,-7.0898,-7.0898,-7.0898,-7.0898,-7.0898,-7.0898,-7.0898,-7.0898,-7.0898,-7.0898,-7.0965,-7.1005,-7.1018,-7.1093,-7.1203,-7.1422,-7.14,-7.1557,-7.1792,-7.1795,-7.1898,-7.1992,-7.1992,-7.1992,-7.1992,-7.1992,-7.1992,-7.1992,-7.1992,-7.1992,-7.1992,-7.1992,-7.1992,-7.1992,-7.1992,-7.1992,-7.1992,-7.1992,-7.1992,0.0,0.0,-7.1992,-7.1992,-7.1992,-7.1992,-7.1992,-7.1992,-7.1367,-7.0781,-7.0781,-7.0117,-6.9805,-7.0625,-7.0117,-6.957,-6.957,0.0,-6.8242,-6.8242,-6.7539,-6.6953,-6.6953,-6.6914,-6.6914,-6.6914,-6.6914,-6.6914,-6.6914,-6.6133,-6.5664,-6.5664,-6.4883,-6.4414,-6.4375,-6.4375,-6.4336,-6.4297,-6.4297,0.0,0.0,0.0,0.0,0.0,0.0,0.0,0.0,0.0,0.0,0.0,0.0,0.0,0.0,0.0,0.0,0.0,0.0,0.0,0.0,0.0,0.0,0.0,0.0,0.0,0.0,0.0,0.0,-7.0898,-7.0898,0.0,-7.0898,-7.0898,-7.0898,-7.0898,-7.0898,-7.0898,-7.0898,-7.0898,-7.0898,-7.0898,-7.0898,-7.0898,-7.0898,-7.0925,-7.0952,-7.1005,-7.103,-7.1104,-7.1257,-7.1358,-7.1474,-7.1614,-7.1753,-7.1841,-7.1898,-7.1951,-7.1992,-7.1992,-7.1992,-7.1992,-7.1992,-7.1992,-7.1992,-7.1992,-7.1992,-7.1992,-7.1992,-7.1992,-7.1992,-7.1992,-7.1992,-7.1992,-7.1992,-7.1992,-7.1992,-7.1875,-7.1328,-7.1172,-7.1015,-7.0508,-7.0117,-6.9844,-6.9844,-6.9219,-6.875,-6.9023,-6.8867,-6.8672,-6.8672,-6.793,-6.7344,-6.7344,-6.7109,-6.6914,-6.6914,-6.6914,-6.668,-6.6133,-6.6055,-6.5859,-6.5273,-6.4922,-6.4765,-6.4765,-6.4453,-6.4062,-6.3476,-6.3476,-6.3203,-6.2656,-6.2617,-6.2461,0.0,0.0,0.0,0.0,0.0,0.0,0.0,0.0,0.0,0.0,0.0,0.0,0.0,0.0,0.0,0.0,0.0,0.0,0.0,0.0,0.0,0.0,0.0,0.0,0.0,-7.0898,-7.0898,-7.0898,-7.0898,-7.0898,-7.0898,-7.0898,-7.0898,-7.0898,-7.0898,-7.0898,-7.0898,-7.0898,-7.0898,-7.0898,-7.0898,-7.0898,-7.0898,-7.0898,-7.0925,-7.0965,-7.0965,-7.103,-7.1154,-7.129,-7.1413,-7.1481,-7.1686,-7.1792,-7.1797,-7.1949,-7.1992,-7.1992,-7.1992,-7.1992,-7.1992,-7.1992,-7.1992,-7.1992,-7.1992,-7.1992,-7.1992,-7.1992,-7.1992,-7.1992,-7.1992,-7.1992,-7.1953,-7.164,-7.1562,-7.1367,-7.0508,-7.0273,-7.0117,-6.9609,-6.9258,-6.8984,-6.8984,-6.8359,-6.7773,-6.7773,-6.7773,-6.7773,-6.7773,-6.7265,-6.6914,-6.6914,-6.6914,-6.6797,-6.6484,-6.6445,-6.6133,-6.5234,-6.5156,-6.4922,-6.4336,-6.4023,-6.3867,-6.3867,-6.3594,-6.3164,-6.2578,-6.2578,-6.2305,-6.1719,-6.1719,-6.1719,-6.1719,0.0,0.0,0.0,0.0,0.0,0.0,0.0,0.0,0.0,0.0,0.0,0.0,0.0,0.0,0.0,0.0,0.0,0.0,0.0,0.0,0.0,0.0,0.0,-7.0898,-7.0898,-7.0898,-7.0898,-7.0898,-7.0898,-7.0898,-7.0898,-7.0898,-7.0898,-7.0898,-7.0898,-7.0898,-7.0898,-7.0898,-7.0898,-7.0898,-7.0898,-7.0898,-7.0898,-7.0898,-7.0898,-7.0898,-7.0939,-7.1018,-7.1208,-7.1319,-7.14,-7.1677,-7.1789,-7.1797,-7.1949,-7.1992,-7.1992,-7.1992,-7.1992,-7.1992,-7.1992,-7.1992,-7.1992,-7.1992,-7.1992,-7.1992,-7.1992,-7.1992,-7.1992,-7.1953,-7.1953,-7.1797,-7.0898,-7.0664,-7.0469,-6.9687,-6.9414,-6.9375,-6.9414,-6.8789,-6.8164,-6.8164,-6.75,-6.6914,-6.6914,-6.6914,-6.6914,-6.6914,-6.6914,-6.6914,-6.6914,-6.6875,0.0,-6.5703,-6.5586,-6.5234,-6.4336,-6.4258,-6.4258,-6.4219,-6.3437,-6.2969,-6.2969,-6.2187,-6.1719,-6.1719,-6.1719,-6.1719,-6.1719,-6.1719,-6.1719,-6.1719,0.0,0.0,0.0,0.0,0.0,0.0,0.0,0.0,0.0,0.0,0.0,0.0,0.0,0.0,0.0,0.0,0.0,0.0,0.0,0.0,0.0,-7.0898,-7.0898,-7.0898,-7.0898,-7.0898,-7.0898,-7.0898,-7.0898,-7.0898,-7.0898,-7.0898,-7.0898,-7.0898,-7.0898,-7.0898,-7.0898,-7.0898,-7.0898,-7.0898,-7.0898,-7.0898,-7.0898,-7.0898,-7.0898,-7.0952,-7.0979,-7.1005,-7.1163,-7.1299,-7.1392,-7.1632,-7.1745,-7.1797,-7.1949,-7.1992,-7.1992,-7.1992,-7.1992,-7.1992,-7.1992,-7.1992,-7.1992,-7.1992,-7.1992,-7.1992,-7.1992,-7.1992,-7.1875,-7.125,-7.1055,-7.0898,-7.0078,-6.9844,-6.9648,-6.8789,-6.8555,-6.8398,-6.7773,-6.7422,-6.7265,-6.7265,-6.707,-6.6914,-6.6914,-6.6914,-6.6914,-6.6914,-6.6914,-6.6914,-6.6914,-6.6367,-6.5859,-6.5625,-6.5039,-6.4336,-6.3437,-6.3359,-6.3086,-6.2461,-6.2187,-6.207,-6.207,-6.1836,-6.1719,-6.1719,-6.1719,-6.1719,-6.1719,-6.1719,-6.1719,0.0,0.0,0.0,0.0,0.0,0.0,0.0,0.0,0.0,0.0,0.0,0.0,0.0,0.0,0.0,0.0,0.0,0.0,0.0,0.0,0.0,0.0,-7.0898,-7.0898,-7.0898,-7.0898,-7.0898,-7.0898,-7.0898,-7.0898,-7.0898,-7.0898,-7.0898,-7.0898,-7.0898,-7.0898,-7.0898,-7.0898,-7.0898,-7.0898,-7.0898,-7.0898,-7.0898,-7.0898,-7.0898,-7.0898,-7.0939,-7.0965,-7.0965,-7.1151,-7.125,-7.1365,-7.1593,-7.1749,-7.1797,-7.1949,-7.1992,-7.1992,0.0,0.0,0.0,0.0,-7.1992,-7.1992,-7.1992,-7.1992,-7.1953,-7.1562,-7.1445,-7.1289,-7.043,-7.0156,-7.0,-6.918,-6.8945,-6.875,-6.789,-6.7656,-6.7539,-6.7031,-6.6914,-6.6914,-6.6914,-6.6914,-6.6914,-6.6914,-6.6601,0.0,-6.6367,-6.6367,-6.6367,-6.6367,-6.5625,-6.4922,-6.457,-6.4062,-6.3437,-6.2539,-6.2461,-6.2265,-6.1758,-6.1719,0.0,0.0,0.0,-6.1719,-6.1719,-6.1719,0.0,0.0,0.0,-6.1719,-6.1719,0.0,0.0,0.0,-6.1719,-6.1719,0.0,0.0,0.0,0.0,0.0,0.0,0.0,0.0,0.0,0.0,0.0,0.0,0.0,0.0,0.0,0.0,-7.0898,-7.0898,-7.0898,-7.0898,-7.0898,-7.0898,-7.0898,-7.0898,-7.0898,-7.0898,-7.0898,-7.0898,-7.0898,-7.0898,-7.0898,-7.0898,0.0,0.0,0.0,-7.0898,-7.0898,-7.0898,-7.0898,-7.0898,-7.0912,-7.0912,-7.0912,-7.1108,-7.1241,-7.1347,-7.1594,-7.1735,-7.1844,-7.195,-7.1992,-7.1992,-7.1992,-7.1992,-7.1992,-7.1992,-7.1992,-7.1992,-7.1992,0.0,0.0,-7.0937,-7.0625,-7.039,-6.9531,-6.9258,-6.9101,-6.8281,-6.8047,-6.789,-6.7109,-6.6914,-6.6914,-6.6914,-6.6914,-6.6914,-6.6914,-6.6836,-6.6758,-6.6758,-6.6055,-6.5469,-6.5469,-6.5469,-6.5469,-6.5469,-6.4726,-6.3867,-6.3086,-6.289,-6.2578,-6.1797,0.0,0.0,-6.1719,-6.1719,-6.1719,-6.1719,-6.1719,-6.1719,-6.1719,-6.1719,-6.1719,-6.1719,-6.1719,-6.1719,-6.1719,-6.1719,-6.164,-6.1562,-6.164,-6.1719,0.0,0.0,0.0,0.0,0.0,0.0,0.0,0.0,0.0,0.0,0.0,0.0,0.0,0.0,0.0,-7.0898,-7.0898,-7.0898,-7.0898,-7.0898,-7.0898,-7.0898,-7.0898,-7.0898,-7.0898,-7.0898,-7.0898,-7.0898,-7.0898,-7.0898,-7.0898,-7.0898,-7.0898,-7.0898,-7.0898,-7.0898,-7.0898,-7.0898,-7.0898,-7.0898,-7.0952,0.0,-7.0912,-7.1042,-7.126,-7.1481,-7.1575,-7.1757,-7.1951,-7.1992,-7.1992,-7.1992,-7.1992,-7.1992,-7.1992,-7.1992,-7.1992,-7.1992,-7.1992,-7.1523,-7.0937,-7.0742,-7.0234,-6.9492,-6.8672,-6.8437,0.0,-6.7383,-6.7148,-6.7109,-6.6953,-6.6914,-6.6914,-6.6914,-6.6914,-6.6914,-6.6914,-6.6367,-6.5859,-6.5859,-6.5156,-6.4531,-6.4531,-6.4531,-6.4531,-6.4531,-6.3828,-6.3203,-6.3008,-6.2383,-6.1875,-6.1719,-6.1719,-6.1719,-6.1719,-6.1719,-6.1719,-6.1719,-6.1719,-6.1719,-6.1719,-6.1719,-6.1719,-6.1719,-6.1719,-6.1719,-6.1719,-6.1719,-6.1328,-6.0664,-6.1367,-6.1719,0.0,0.0,0.0,0.0,0.0,0.0,0.0,0.0,0.0,0.0,0.0,-7.0898,-7.0898,0.0,-7.0898,-7.0898,-7.0898,-7.0898,-7.0898,-7.0898,-7.0898,-7.0898,-7.0898,-7.0898,-7.0898,-7.0898,-7.0898,-7.0898,-7.0898,-7.0898,-7.0898,-7.0898,-7.0898,-7.0898,-7.0898,-7.0898,-7.0898,-7.0898,-7.0898,-7.0898,-7.0939,-7.0925,-7.0898,-7.0965,-7.112,-7.137,-7.1503,-7.1668,-7.1859,-7.1952,-7.1992,-7.1992,-7.1992,-7.1992,-7.1992,-7.1992,-7.1719,-7.1367,-7.1367,-7.0781,-6.9961,-6.957,-6.914,-6.8633,-6.7812,-6.7539,-6.7461,-6.7031,-6.6914,-6.6914,-6.6914,-6.6914,-6.6914,-6.6914,-6.6914,-6.6797,-6.6328,-6.5898,-6.5469,-6.5039,-6.4258,-6.3633,-6.3633,-6.3281,-6.3164,-6.3594,-6.289,-6.2344,-6.2344,-6.1953,-6.1719,-6.1719,-6.1719,-6.1719,-6.1719,-6.1719,-6.1719,-6.1719,-6.1719,-6.1719,-6.1719,-6.1719,-6.1719,-6.1719,-6.1719,-6.1484,-6.1055,-6.1055,-6.0625,-5.9805,-6.0234,-6.0469,0.0,0.0,0.0,0.0,0.0,0.0,0.0,-7.0898,-7.0898,-7.0898,-7.0898,-7.0898,-7.0898,-7.0898,-7.0898,-7.0898,-7.0898,-7.0898,-7.0898,-7.0898,-7.0898,-7.0898,-7.0898,-7.0898,-7.0898,-7.0898,-7.0898,-7.0898,-7.0898,-7.0898,-7.0898,-7.0898,-7.0898,-7.0898,-7.0898,-7.0898,-7.0898,-7.0898,-7.0898,-7.0898,-7.0898,-7.0898,-7.0898,-7.0898,-7.1004,-7.1193,-7.1435,-7.1614,-7.1753,-7.1949,-7.1992,-7.1992,-7.1992,-7.1914,-7.1758,-7.1758,-7.1289,-7.0664,-7.0508,-6.9883,-6.9062,-6.8398,-6.8086,-6.7812,-6.7109,-6.6914,-6.6914,-6.6914,-6.6914,-6.6914,-6.6914,-6.6914,-6.6875,-6.668,-6.664,-6.6406,-6.5547,-6.5195,-6.4883,-6.418,-6.3359,-6.2734,-6.2734,-6.2187,-6.1953,-6.2656,-6.2148,-6.1719,-6.1719,-6.1719,-6.1719,-6.1719,-6.1719,-6.1719,-6.1719,-6.1719,-6.1719,-6.1719,-6.1719,-6.1719,-6.1719,-6.1719,-6.1601,-6.1445,-6.1445,-6.1015,-6.0156,-6.0156,-5.9765,-5.8945,-5.8945,-5.9023,-7.1741,-7.1608,-7.1481,-7.1456,-7.132,-7.1147,0.0,-7.0898,-7.0898,-7.0898,-7.0898,-7.0898,-7.0898,-7.0898,-7.0898,-7.0898,-7.0898,-7.0898,-7.0898,-7.0898,-7.0898,-7.0898,-7.0898,-7.0898,-7.0898,-7.0898,-7.0898,-7.0898,-7.0898,-7.0898,-7.0898,-7.0898,-7.0898,-7.0898,-7.0898,-7.0898,-7.0898,-7.0898,-7.0898,-7.0898,-7.0898,-7.0898,-7.0898,-7.0898,-7.1004,-7.1213,-7.1533,-7.1792,-7.1987,-7.1992,-7.1992,-7.1992,-7.1992,-7.1523,-7.0859,-7.0859,-7.0781,-7.0586,-6.9805,-6.9023,-6.832,-6.8242,-6.7695,-6.7031,-6.6914,-6.6914,-6.6914,-6.6914,-6.6914,-6.6914,-6.6914,-6.6914,-6.6719,-6.5937,-6.5742,-6.5508,-6.4648,-6.3828,-6.3242,-6.3164,-6.2422,-6.1836,-6.1836,-6.1758,-6.1719,-6.1836,-6.1758,-6.1719,-6.1719,-6.1719,-6.1719,-6.1719,-6.1719,-6.1719,-6.1719,-6.1719,-6.1719,-6.1719,-6.1719,-6.1719,-6.1719,-6.1719,-6.1328,-6.0547,-6.0547,-6.0156,-5.9336,-5.9336,-5.8906,-5.8047,-5.8047,-5.8476,-7.1884,-7.1837,-7.1749,-7.1641,-7.1505,-7.131,-7.1124,-7.0979,-7.0898,-7.0898,-7.0898,-7.0898,-7.0898,-7.0898,-7.0898,-7.0898,-7.0898,-7.0898,-7.0898,-7.0898,-7.0898,-7.0898,-7.0898,-7.0898,-7.0898,-7.0898,-7.0898,-7.0898,-7.0898,-7.0898,-7.0898,-7.0898,-7.0898,-7.0898,-7.0898,-7.0898,-7.0898,-7.0898,-7.0898,-7.0898,-7.0898,-7.0898,-7.0898,-7.0898,-7.105,-7.137,-7.1518,-7.1721,-7.199,-7.1992,-7.1992,-7.1992,-7.1992,-7.1484,-7.0703,-7.0703,-7.0078,-6.918,-6.8828,-6.8164,-6.7422,-6.7422,-6.7187,-6.6914,-6.6914,-6.6914,-6.6914,-6.6914,-6.6914,-6.6914,-6.6914,-6.6523,-6.6055,-6.5703,-6.5195,-6.4609,-6.3711,-6.3242,-6.2851,-6.2344,-6.1953,-6.1719,-6.1719,-6.1719,-6.1719,-6.1719,-6.1719,-6.1719,-6.1719,-6.1719,-6.1719,-6.1719,-6.1719,-6.1719,-6.1719,-6.1719,-6.1719,-6.1719,-6.1719,-6.1484,-6.0976,-6.0937,-6.0547,-5.9726,-5.9687,-5.9297,-5.8437,-5.8437,-5.8008,-5.7148,-5.7148,-5.7344,-7.1993,-7.1987,-7.1933,-7.177,-7.1628,-7.1497,-7.1239,-7.1136,-7.1042,-7.0925,-7.0927,-7.0953,-7.0912,-7.0898,-7.0898,-7.0898,-7.0898,-7.0898,-7.0898,-7.0898,-7.0898,-7.0898,-7.0898,-7.0898,-7.0898,-7.0898,-7.0898,-7.0898,-7.0898,-7.0898,-7.0898,-7.0898,-7.0898,-7.0898,-7.0898,-7.0898,-7.0898,-7.0898,-7.0898,-7.0898,-7.0898,-7.0898,-7.0898,-7.0898,-7.1101,-7.1417,-7.1474,-7.1653,-7.1939,-7.199,-7.1992,-7.1992,-7.1992,-7.1328,-7.0351,-7.0351,-6.9414,-6.8164,-6.793,-6.7422,-6.6914,-6.6914,-6.6914,-6.6914,-6.6914,-6.6914,-6.6914,-6.6914,-6.6719,-6.6523,-6.6523,-6.5898,-6.5195,-6.4922,-6.4414,-6.3711,-6.2812,-6.2656,-6.2461,-6.1836,-6.1719,-6.1719,-6.1719,-6.1719,-6.1719,-6.1719,-6.1719,-6.1719,-6.1719,-6.1719,-6.1719,-6.1719,-6.1719,-6.1719,-6.1719,-6.1719,-6.1719,-6.1719,-6.1484,-6.1055,-6.043,-6.0195,-5.9687,-5.8867,-5.8828,-5.8398,-5.7539,-5.7539,-5.7226,-5.6601,-5.6601,-5.6601,-7.1987,-7.1987,-7.1933,-7.177,-7.17,-7.1628,-7.128,-7.1339,-7.1358,-7.0979,-7.1079,-7.1136,-7.0952,-7.0898,-7.0898,-7.0898,-7.0898,-7.0898,-7.0898,-7.0898,-7.0898,-7.0898,-7.0898,-7.0898,-7.0898,-7.0898,-7.0898,-7.0898,-7.0898,-7.0898,-7.0898,-7.0898,-7.0898,-7.0898,-7.0898,-7.0898,-7.0898,-7.0898,-7.0898,-7.0898,-7.0898,-7.0898,-7.0898,-7.0898,-7.1017,-7.1208,-7.1417,-7.1575,-7.171,-7.1939,-7.1991,-7.1992,-7.1992,-7.0976,-6.9531,-6.9453,-6.8906,-6.8086,-6.7226,-6.6914,-6.6914,-6.6914,-6.6914,-6.6914,-6.6914,-6.6914,-6.6914,-6.6914,-6.6289,-6.5625,-6.5625,-6.5,-6.414,-6.3281,-6.3047,-6.2812,-6.1914,-6.1758,-6.1719,-6.1719,-6.1719,-6.1719,-6.1719,-6.1719,-6.1719,-6.1719,-6.1719,-6.1719,-6.1719,-6.1719,-6.1719,-6.1719,-6.1719,-6.1719,-6.1719,-6.1719,-6.1719,-6.1719,-6.0898,-6.043,-6.039,-5.9648,-5.8828,-5.7969,-5.793,-5.75,-5.664,-5.664,-5.664,-5.6601,-5.6601,-5.6601,-7.1987,-7.1987,-7.1982,-7.192,-7.1794,-7.1677,-7.1549,-7.1521,-7.1448,-7.132,-7.1268,-7.1192,-7.1112,-7.0992,-7.0898,-7.0898,-7.0898,-7.0898,-7.0898,-7.0898,-7.0898,-7.0898,-7.0898,-7.0898,-7.0898,-7.0898,-7.0898,-7.0898,-7.0898,-7.0898,-7.0898,-7.0898,-7.0898,-7.0898,-7.0898,-7.0898,-7.0898,-7.0898,-7.0898,-7.0898,-7.0898,-7.0898,-7.0898,-7.0898,-7.1017,-7.1197,-7.1409,-7.1569,-7.1706,-7.1938,-7.1991,-7.1992,-7.1992,-7.0976,-6.9492,-6.9453,-6.8555,-6.7305,-6.6992,-6.6914,-6.6914,-6.6914,-6.6914,-6.6914,-6.6914,-6.6914,-6.6797,-6.6211,-6.582,-6.5469,-6.4883,-6.4101,-6.3359,-6.3086,-6.2578,-6.207,-6.1758,-6.1719,-6.1719,-6.1719,-6.1719,-6.1719,-6.1719,-6.1719,-6.1719,-6.1719,-6.1719,-6.1719,-6.1719,-6.1719,-6.1719,-6.1719,-6.1719,-6.1719,-6.1719,-6.1172,-6.0859,-6.0859,-6.0078,-5.9336,-5.8789,-5.8476,-5.793,-5.7031,-5.7031,-5.6875,-5.6601,-5.6601,-5.6601,-5.6601,-5.6599,-5.6598,-7.1995,-7.1995,-7.1993,-7.199,-7.1916,-7.1789,-7.1711,-7.1671,-7.166,-7.1505,-7.1386,-7.127,-7.1186,-7.1055,-7.0898,-7.0898,-7.0898,-7.0898,-7.0898,-7.0898,-7.0898,-7.0898,-7.0898,-7.0898,-7.0898,-7.0898,-7.0898,-7.0898,-7.0898,-7.0898,-7.0898,-7.0898,-7.0898,-7.0898,-7.0898,-7.0898,-7.0898,-7.0898,-7.0898,-7.0898,-7.0898,-7.0898,-7.0898,-7.0898,-7.0966,-7.1101,-7.1329,-7.1474,-7.1638,-7.1822,-7.1942,-7.1992,-7.1992,-7.0976,-6.9453,-6.9492,-6.8398,-6.6914,-6.6914,-6.6914,-6.6914,-6.6914,-6.6914,-6.6914,-6.6914,-6.668,-6.6328,-6.5742,-6.5156,-6.4531,-6.3984,-6.3203,-6.2539,-6.2539,-6.2109,-6.1719,-6.1719,-6.1719,-6.1719,-6.1719,-6.1719,-6.1719,-6.1719,-6.1719,-6.1719,-6.1719,-6.1719,-6.1719,-6.1719,-6.1719,-6.1719,-6.1719,-6.1719,-6.1562,-6.125,-6.0703,-6.0273,-6.0,-5.918,-5.8476,-5.793,-5.7617,-5.7187,-5.6601,-5.6601,-5.6601,-5.6599,-5.6599,-5.6599,-5.6597,-5.6594,-5.6594,-7.2008,-7.2006,-7.2004,-7.199,-7.1987,-7.1933,-7.1775,-7.1862,-7.1913,-7.1573,-7.1505,-7.1439,-7.1239,-7.1029,-7.0912,-7.0898,-7.0898,-7.0898,-7.0898,-7.0898,-7.0898,-7.0898,-7.0898,-7.0898,-7.0898,-7.0898,-7.0898,-7.0898,-7.0898,-7.0898,-7.0898,-7.0898,-7.0898,-7.0898,-7.0898,-7.0898,-7.0898,-7.0898,-7.0898,-7.0898,-7.0898,-7.0898,-7.0898,-7.0898,-7.0898,-7.0912,-7.1112,-7.1329,-7.1505,-7.1655,-7.1813,-7.1988,-7.195,-7.0897,-6.9414,-6.9414,-6.8359,-6.6914,-6.6914,-6.6914,-6.6914,-6.6914,-6.6914,-6.6875,-6.6836,-6.625,-6.5586,-6.5508,-6.4297,-6.3008,-6.2969,-6.2305,-6.1719,-6.1719,-6.1719,-6.1719,-6.1719,-6.1719,-6.1719,-6.1719,-6.1719,-6.1719,-6.1719,-6.1719,-6.1719,-6.1719,-6.1719,-6.1719,-6.1719,-6.1719,-6.1719,-6.1719,-6.1719,-6.1367,-6.0469,-6.0351,-6.0,-5.918,-5.832,-5.7812,-5.7812,-5.7031,-5.6601,-5.6601,-5.6601,-5.6601,-5.6599,-5.6599,-5.6597,-5.6593,-5.6592,-5.6588,-7.2008,-7.2006,-7.2004,-7.199,-7.1995,-7.1995,-7.193,-7.1945,-7.1993,-7.1905,-7.1755,-7.1608,-7.1448,-7.1239,-7.1065,-7.0939,-7.0898,-7.0898,-7.0898,-7.0898,-7.0898,-7.0898,-7.0898,-7.0898,-7.0898,-7.0898,-7.0898,-7.0898,-7.0898,-7.0898,-7.0898,-7.0898,-7.0898,-7.0898,-7.0898,-7.0898,-7.0898,-7.0898,-7.0898,-7.0898,-7.0898,-7.0898,-7.0898,-7.0898,-7.0898,-7.0912,-7.1112,-7.1239,-7.129,-7.1575,-7.1733,-7.1741,-7.1239,-7.0349,-6.9335,-6.875,-6.7851,-6.6914,-6.6914,-6.6914,-6.6914,-6.6914,-6.6914,-6.6797,-6.6133,-6.5781,-6.5312,-6.4023,-6.3359,-6.2851,-6.2187,-6.1875,-6.1719,-6.1719,-6.1719,-6.1719,-6.1719,-6.1719,-6.1719,-6.1719,-6.1719,-6.1719,-6.1719,-6.1719,-6.1719,-6.1719,-6.1719,-6.1719,-6.1719,-6.1719,-6.1719,-6.1719,-6.1719,-6.1367,-6.0469,-5.9844,-5.914,-5.8281,-5.7422,-5.6914,-5.6914,-5.6719,-5.6601,-5.6601,-5.6601,-5.6601,-5.6599,-5.6597,-5.6594,-5.6593,-5.6582,-5.6616,-7.1981,-7.2019,-7.2017,-7.2006,-7.2008,-7.201,-7.2,-7.2002,-7.2002,-7.199,-7.185,-7.1683,-7.1601,-7.1386,-7.117,-7.1067,-7.094,-7.0898,-7.0898,-7.0898,-7.0898,-7.0898,-7.0898,-7.0898,-7.0898,-7.0898,-7.0898,-7.0898,-7.0898,-7.0898,-7.0898,-7.0898,-7.0898,-7.0898,-7.0898,-7.0898,-7.0898,-7.0898,-7.0898,-7.0898,-7.0898,-7.0898,-7.0898,-7.0898,-7.0898,-7.0912,-7.103,-7.1136,-7.1201,-7.1387,-7.1563,-7.1612,-7.0847,-7.01,-6.9294,-6.8514,-6.7656,-6.6914,-6.6914,-6.6914,-6.6914,-6.6914,-6.6914,-6.6758,-6.5859,-6.5312,-6.4765,-6.3398,-6.2734,-6.2305,-6.1836,-6.1719,-6.1719,-6.1719,-6.1719,-6.1719,-6.1719,-6.1719,-6.1719,-6.1719,-6.1719,-6.1719,-6.1719,-6.1719,-6.1719,-6.1719,-6.1719,-6.1719,-6.1719,-6.1719,-6.1719,-6.1719,-6.1719,-6.1211,-5.9961,-5.9453,-5.8672,-5.7422,-5.6875,-5.6601,-5.6601,-5.6601,-5.6601,-5.6601,-5.6601,-5.6601,-5.6597,-5.6594,-5.6589,-5.6584,-5.661,-5.6608,-7.199,-7.1989,-7.1989,-7.1982,-7.1981,-7.2019,-7.2008,-7.2006,-7.2004,-7.199,-7.1858,-7.1721,-7.1705,-7.1458,-7.126,-7.1229,-7.1053,-7.0952,-7.0952,-7.0925,-7.0898,-7.0898,-7.0898,-7.0898,-7.0898,-7.0898,-7.0898,-7.0898,-7.0898,-7.0898,-7.0898,-7.0898,-7.0898,-7.0898,-7.0898,-7.0898,-7.0898,-7.0898,-7.0898,-7.0898,-7.0898,-7.0898,-7.0898,-7.0898,-7.0898,-7.0898,-7.0898,-7.1005,-7.117,-7.1203,-7.1383,-7.1538,-7.0596,-6.9855,-6.9246,-6.8355,-6.7537,-6.6874,-6.6875,-6.6914,-6.6914,-6.6914,-6.6836,-6.6562,-6.5703,-6.4805,-6.3945,-6.3086,-6.2265,-6.1719,-6.1719,-6.1719,-6.1719,-6.1719,-6.1719,-6.1719,-6.1719,-6.1719,-6.1719,-6.1719,-6.1719,-6.1719,-6.1719,-6.1719,-6.1719,-6.1719,-6.1719,-6.1719,-6.1719,-6.1719,-6.1719,-6.1719,-6.1719,-6.1015,-5.9336,-5.9219,-5.8476,-5.6719,-5.6601,-5.6601,-5.6601,-5.6601,-5.6601,-5.6601,-5.6601,-5.6601,-5.6594,-5.6593,-5.6587,-5.6608,-5.6606,-5.6606,-7.199,-7.1989,-7.1989,-7.1982,-7.1985,-7.1986,-7.201,-7.2012,-7.2012,-7.1993,-7.1979,-7.1913,-7.1716,-7.1665,-7.1594,-7.1465,-7.127,-7.1158,-7.1158,-7.1005,-7.0898,-7.0898,-7.0898,-7.0898,-7.0898,-7.0898,-7.0898,-7.0898,-7.0898,-7.0898,-7.0898,-7.0898,-7.0898,-7.0898,-7.0898,-7.0898,-7.0898,-7.0898,-7.0898,-7.0898,-7.0898,-7.0898,-7.0898,-7.0898,-7.0898,-7.0898,-7.0898,-7.0925,-7.0953,-7.1136,-7.1229,-7.1145,-6.9901,-6.926,-6.8899,-6.7596,-6.6943,-6.6735,-6.6873,-6.6914,-6.6914,-6.6914,-6.6406,-6.5664,-6.4805,-6.3906,-6.3047,-6.2187,-6.1836,-6.1719,-6.1719,-6.1719,-6.1719,-6.1719,-6.1719,-6.1719,-6.1719,-6.1719,-6.1719,-6.1719,-6.1719,-6.1719,-6.1719,-6.1719,-6.1719,-6.1719,-6.1719,-6.1719,-6.1719,-6.1719,-6.1719,-6.1719,-6.1719,-6.1015,-5.9336,-5.9219,-5.8476,-5.6719,-5.6601,-5.6601,-5.6601,-5.6601,-5.6601,-5.6601,-5.6601,-5.6601,-5.6598,-5.6595,-5.6589,-5.6618,-5.661,-5.6606,-7.1992,-7.1991,-7.1991,-7.199,-7.199,-7.199,-7.2017,-7.2017,-7.2016,-7.1993,-7.1987,-7.1979,-7.1866,-7.178,-7.1683,-7.1621,-7.1473,-7.131,-7.1197,-7.1112,-7.103,-7.0912,-7.0898,-7.0898,-7.0898,-7.0898,-7.0898,-7.0898,-7.0898,-7.0898,-7.0898,-7.0898,-7.0898,-7.0898,-7.0898,-7.0898,-7.0898,-7.0898,-7.0898,-7.0898,-7.0898,-7.0898,-7.0898,-7.0898,-7.0898,-7.0898,-7.0898,-7.0898,-7.0912,-7.1005,-7.083,-7.0434,-6.9414,-6.8715,-6.8151,-6.7229,-6.6777,-6.6678,-6.6833,-6.6914,-6.6836,-6.6367,-6.5937,-6.543,-6.457,-6.3672,-6.2812,-6.1953,-6.1719,-6.1719,-6.1719,-6.1719,-6.1719,-6.1719,-6.1719,-6.1719,-6.1719,-6.1719,-6.1719,-6.1719,-6.1719,-6.1719,-6.1719,-6.1719,-6.1719,-6.1719,-6.1719,-6.1719,-6.1719,-6.1719,-6.1719,-6.1719,-6.1719,-6.1015,-5.9336,-5.9219,-5.8476,-5.6719,-5.6601,-5.6601,-5.6601,-5.6601,-5.6601,-5.6601,-5.6601,-5.6601,-5.6597,-5.6594,-5.6588,-5.6612,-5.6608,-5.6606,-7.1992,-7.1992,-7.1992,-7.1992,-7.1992,-7.1992,-7.1984,-7.2019,-7.2016,-7.1993,-7.1987,-7.1987,-7.1987,-7.1862,-7.1775,-7.1775,-7.1634,-7.1489,-7.1339,-7.128,-7.1225,-7.1067,-7.0992,-7.0953,-7.0953,-7.0939,-7.0898,-7.0898,-7.0898,-7.0898,-7.0898,-7.0898,-7.0898,-7.0898,-7.0898,-7.0898,-7.0898,-7.0898,-7.0898,-7.0898,-7.0898,-7.0898,-7.0898,-7.0898,-7.0898,-7.0898,-7.0898,-7.0898,-7.0898,-7.0898,-7.0491,-6.9767,-6.9081,-6.8278,-6.7449,-6.6974,-6.6697,-6.6599,-6.6782,-6.6873,-6.6757,-6.5898,-6.5469,-6.5156,-6.4297,-6.3398,-6.2578,-6.1875,-6.1719,-6.1719,-6.1719,-6.1719,-6.1719,-6.1719,-6.1719,-6.1719,-6.1719,-6.1719,-6.1719,-6.1719,-6.1719,-6.1719,-6.1719,-6.1719,-6.1719,-6.1719,-6.1719,-6.1719,-6.1719,-6.1719,-6.1719,-6.1719,-6.1523,-6.082,-5.9336,-5.9023,-5.8242,-5.6719,-5.6601,-5.6601,-5.6601,-5.6601,-5.6601,-5.6601,-5.6601,-5.66,-5.6593,-5.6592,-5.6584,-5.6606,-5.6606,-5.6606,-7.1992,-7.1992,-7.1992,-7.1992,-7.1992,-7.1992,-7.1984,-7.2019,-7.2016,-7.1993,-7.1987,-7.1987,-7.1987,-7.1984,-7.1979,-7.1979,-7.1794,-7.1683,-7.1671,-7.1559,-7.1456,-7.1439,-7.127,-7.1181,-7.1181,-7.1005,-7.0898,-7.0898,-7.0898,-7.0898,-7.0898,-7.0898,-7.0898,-7.0898,-7.0898,-7.0898,-7.0898,-7.0898,-7.0898,-7.0898,-7.0898,-7.0898,-7.0898,-7.0898,-7.0898,-7.0898,-7.0898,-7.0898,-7.0898,-7.0898,-7.0412,-6.9656,-6.8906,-6.8055,-6.7166,-6.6648,-6.6471,-6.6507,-6.6615,-6.6766,-6.6756,-6.5896,-6.5077,-6.4258,-6.3398,-6.25,-6.1797,-6.1719,-6.1719,-6.1719,-6.1719,-6.1719,-6.1719,-6.1719,-6.1719,-6.1719,-6.1719,-6.1719,-6.1719,-6.1719,-6.1719,-6.1719,-6.1719,-6.1719,-6.1719,-6.1719,-6.1719,-6.1719,-6.1719,-6.1719,-6.1719,-6.1719,-6.0976,-6.0156,-5.9297,-5.8476,-5.7617,-5.664,-5.6601,-5.6601,-5.6601,-5.6601,-5.6601,-5.6601,-5.6601,-5.6598,-5.6593,-5.6587,-5.6616,-5.6606,-5.6606,-5.6606,-7.1992,-7.1992,-7.1992,-7.1992,-7.1992,-7.1992,-7.1984,-7.2019,-7.2016,-7.1993,-7.1987,-7.1987,-7.1987,-7.1987,-7.1987,-7.1987,-7.1927,-7.185,-7.1711,-7.1659,-7.1559,-7.1339,-7.1229,-7.1158,-7.1042,-7.0965,-7.0898,-7.0898,-7.0898,-7.0898,-7.0898,-7.0898,-7.0898,-7.0898,-7.0898,-7.0898,-7.0898,-7.0898,-7.0898,-7.0898,-7.0898,-7.0898,-7.0898,-7.0898,-7.0898,-7.0898,-7.0898,-7.0898,-7.086,-7.0398,-6.9667,-6.8847,-6.8138,-6.7293,-6.6432,-6.6398,-6.6322,-6.6291,-6.6532,-6.6307,-6.5796,-6.5071,-6.4217,-6.3437,-6.3125,-6.2383,-6.1719,-6.1719,-6.1719,-6.1719,-6.1719,-6.1719,-6.1719,-6.1719,-6.1719,-6.1719,-6.1719,-6.1719,-6.1719,-6.1719,-6.1719,-6.1719,-6.1719,-6.1719,-6.1719,-6.1719,-6.1719,-6.1719,-6.1719,-6.1719,-6.1719,-6.1719,-6.0937,-6.0078,-5.9258,-5.8398,-5.7539,-5.664,-5.6601,-5.6601,-5.6601,-5.6601,-5.6601,-5.6601,-5.6601,-5.6597,-5.6593,-5.6585,-5.6616,-5.6606,-5.6606,-5.6606,-7.1992,-7.1992,-7.1992,-7.1992,-7.1992,-7.1992,-7.1986,-7.1982,-7.2016,-7.1997,-7.199,-7.1987,-7.1987,-7.1987,-7.1987,-7.1987,-7.1987,-7.1933,-7.1798,-7.1789,-7.1689,-7.1442,-7.1349,-7.1218,-7.1077,-7.0953,-7.0898,-7.0898,-7.0898,-7.0898,-7.0898,-7.0898,-7.0898,-7.0898,-7.0898,-7.0898,-7.0898,-7.0898,-7.0898,-7.0898,-7.0898,-7.0898,-7.0898,-7.0898,-7.0898,-7.0898,-7.0898,-7.0898,-7.0821,-7.0014,-6.9206,-6.8334,-6.7595,-6.6711,-6.5909,-6.6167,-6.6194,-6.6128,-6.6361,-6.5933,-6.5133,-6.4458,-6.3655,-6.2919,-6.2693,-6.2187,-6.1718,-6.1719,-6.1719,-6.1719,-6.1719,-6.1719,-6.1719,-6.1719,-6.1719,-6.1719,-6.1719,-6.1719,-6.1719,-6.1719,-6.1719,-6.1719,-6.1719,-6.1719,-6.1719,-6.1719,-6.1719,-6.1719,-6.1719,-6.1719,-6.1719,-6.1719,-6.0703,-5.9805,-5.9258,-5.8164,-5.7265,-5.664,-5.6601,-5.6601,-5.6601,-5.6601,-5.6601,-5.6601,-5.66,-5.6597,-5.6593,-5.6584,-5.6612,-5.6606,-5.6606,-5.6606,-7.1992,-7.1992,-7.1992,-7.1992,-7.1992,-7.1992,-7.199,-7.1986,-7.2017,-7.2008,-7.1997,-7.1987,-7.1987,-7.1987,-7.1987,-7.1987,-7.1987,-7.1987,-7.1987,-7.1987,-7.1987,-7.1984,-7.1704,-7.152,-7.1481,-7.1136,-7.0898,-7.0898,-7.0898,-7.0898,-7.0898,-7.0898,-7.0898,-7.0898,-7.0898,-7.0898,-7.0898,-7.0898,-7.0898,-7.0898,-7.0898,-7.0898,-7.0898,-7.0898,-7.0898,-7.0898,-7.0898,-7.0898,-7.0821,-7.0014,-6.9206,-6.8321,-6.7436,-6.6603,-6.5897,-6.591,-6.599,-6.6108,-6.6118,-6.5657,-6.4967,-6.4223,-6.3452,-6.2665,-6.1935,-6.1713,-6.1717,-6.1719,-6.1719,-6.1719,-6.1719,-6.1719,-6.1719,-6.1719,-6.1719,-6.1719,-6.1719,-6.1719,-6.1719,-6.1719,-6.1719,-6.1719,-6.1719,-6.1719,-6.1719,-6.1719,-6.1719,-6.1719,-6.1719,-6.1719,-6.1719,-6.1719,-6.0195,-5.9219,-5.9219,-5.7617,-5.6601,-5.6601,-5.6601,-5.6601,-5.6601,-5.6601,-5.6601,-5.6601,-5.6597,-5.6593,-5.6593,-5.6616,-5.6606,-5.6606,-5.6606,-5.6606,-7.1992,-7.1992,-7.1992,-7.1992,-7.1992,-7.1992,-7.199,-7.1986,-7.2017,-7.2008,-7.1997,-7.1987,-7.1987,-7.1987,-7.1987,-7.1987,-7.1987,-7.1987,-7.1987,-7.1987,-7.1933,-7.1798,-7.1513,-7.128,-7.128,-7.1079,-7.0898,-7.0898,-7.0898,-7.0898,-7.0898,-7.0898,-7.0898,-7.0898,-7.0898,-7.0898,-7.0898,-7.0898,-7.0898,-7.0898,-7.0898,-7.0898,-7.0898,-7.0898,-7.0898,-7.0898,-7.0898,-7.0591,-7.0014,-6.9167,-6.8321,-6.7436,-6.659,-6.6128,-6.5897,-6.5897,-6.5921,-6.589,-6.5399,-6.4715,-6.3992,-6.338,-6.2582,-6.1904,-6.1737,-6.1713,-6.1717,-6.1717,-6.1718,-6.1718,-6.1718,-6.1718,-6.1719,-6.1719,-6.1719,-6.1719,-6.1719,-6.1719,-6.1719,-6.1719,-6.1719,-6.1719,-6.1719,-6.1719,-6.1719,-6.1719,-6.1719,-6.1719,-6.1719,-6.1719,-6.1719,-6.1719,-6.0195,-5.9219,-5.9219,-5.7617,-5.6601,-5.6601,-5.6601,-5.6601,-5.6601,-5.6601,-5.6601,-5.6601,-5.6597,-5.6593,-5.6593,-5.6616,-5.6606,-5.6606,-5.6606,-5.6606,-7.1992,-7.1992,-7.1992,-7.1992,-7.1992,-7.1992,-7.1991,-7.1987,-7.2019,-7.2012,-7.2,-7.1987,-7.1987,-7.1987,-7.1987,-7.1987,-7.1987,-7.1987,-7.1987,-7.1987,-7.1924,-7.1716,-7.145,-7.127,-7.1225,-7.103,-7.0898,-7.0898,-7.0898,-7.0898,-7.0898,-7.0898,-7.0898,-7.0898,-7.0898,-7.0898,-7.0898,-7.0898,-7.0898,-7.0898,-7.0898,-7.0898,-7.0898,-7.0898,-7.0898,-7.0898,-7.0898,-7.0437,0.0,-6.8783,-6.7898,-6.7013,-6.6205,-6.5897,-6.5897,-6.5897,-6.5897,-6.5769,-6.4999,-6.4177,-6.3371,-6.2786,-6.204,-6.1403,-6.1582,-6.1662,-6.1714,-6.1714,-6.1714,-6.1714,-6.1714,-6.1716,-6.1717,-6.1717,-6.1717,-6.1717,-6.1718,-6.1718,-6.1718,-6.1719,-6.1718,-6.1718,-6.1719,-6.1718,-6.1718,-6.1718,-6.1718,-6.1717,-6.1717,-6.1717,-6.1717,-6.1717,-6.0194,-5.9179,-5.9218,-5.7617,-5.6601,-5.66,-5.66,-5.66,-5.66,-5.66,-5.66,-5.66,-5.6594,-5.6589,-5.6589,-5.6614,-5.6606,-5.6606,-5.6606,-5.6606,0.0,-7.1992,-7.1992,-7.1992,-7.1992,-7.1992,-7.1992,-7.1989,0.0,-7.1981,-7.2006,-7.199,-7.1987,-7.1987,-7.1987,-7.1987,-7.1987,-7.1987,-7.1987,-7.1987,-7.1927,-7.1726,-7.1601,-7.143,-7.1218,-7.1055,-7.0925,-7.0898,-7.0898,-7.0898,-7.0898,-7.0898,-7.0898,-7.0898,-7.0898,-7.0898,-7.0898,-7.0898,-7.0898,-7.0898,-7.0898,-7.0898,-7.0898,-7.0898,-7.0898,-7.0898,-7.0821,-7.036,-6.9552,-6.8667,-6.7782,-6.6936,-6.6205,-6.5897,-6.5897,-6.5897,-6.5859,-6.5667,-6.482,-6.3935,-6.3087,-6.2431,-6.1746,-6.122,-6.1437,-6.1579,-6.1705,-6.1708,-6.1708,-6.1708,-6.1708,-6.1708,-6.1709,-6.1709,-6.1709,-6.171,-6.1716,-6.1713,-6.1712,-6.1718,-6.1718,-6.1717,-6.1718,-6.1718,-6.1716,-6.1716,-6.1712,-6.1709,-6.1709,-6.1709,-6.1709,-6.1709,-6.0147,-5.9134,-5.9177,-5.7614,-5.6597,-5.6594,-5.6593,-5.6593,-5.6593,-5.6593,-5.6593,-5.6593,-5.6585,-5.6582,-5.658,-5.661,-5.6606,-5.6606,-5.6606,-5.6606,-7.1992,0.0,-7.1992,-7.1992,-7.1992,-7.1992,0.0,-7.1991,-7.1987,-7.1981,-7.201,-7.2,-7.199,-7.1987,-7.1987,-7.1987,-7.1987,-7.1987,-7.1987,-7.1987,-7.1982,-7.1927,-7.177,-7.1601,-7.1439,-7.1229,-7.1091,-7.0912,-7.0898,-7.0898,-7.0898,-7.0898,-7.0898,-7.0898,-7.0898,-7.0898,-7.0898,-7.0898,-7.0898,-7.0898,-7.0898,-7.0898,-7.0898,-7.0898,-7.0898,-7.086,-7.0244,-6.9513,-6.8629,-6.7744,-6.6898,-6.6167,-6.5974,-6.5897,-6.5897,-6.5897,-6.5474,-6.4782,-6.3897,-6.3089,-6.2252,-6.1553,-6.1242,-6.12,-6.1279,-6.1417,-6.1556,-6.1651,-6.1701,-6.1701,-6.1701,-6.1705,-6.1709,-6.1709,-6.1709,-6.1709,-6.171,-6.171,-6.1709,-6.1712,-6.1712,-6.1711,-6.1712,-6.1712,-6.1711,-6.1711,-6.171,-6.1709,-6.1709,-6.1709,-6.1709,-6.1709,-6.0147,-5.9091,-5.9128,-5.7569,-5.6596,-5.6598,-5.6595,-5.6593,-5.6593,-5.6593,-5.6593,-5.6593,-5.6585,-5.6618,-5.661,-5.6606,-5.6606,-5.6606,-5.6606,-5.6606,-7.1992,-7.1992,-7.1992,-7.1992,-7.1992,-7.1992,-7.1992,-7.1991,-7.1989,-7.1986,-7.2019,-7.201,-7.2006,-7.2004,-7.2002,-7.1997,-7.1997,-7.1995,-7.199,-7.1987,-7.1987,-7.1987,-7.1803,-7.1653,-7.1497,-7.131,-7.1112,-7.0925,-7.0898,-7.0898,-7.0898,-7.0898,-7.0898,-7.0898,-7.0898,-7.0898,-7.0898,-7.0898,-7.0898,-7.0898,-7.0898,-7.0898,-7.0898,-7.0898,-7.0898,-7.086,-7.0052,-6.9206,-6.8321,-6.7475,-6.6628,-6.5897,-6.5897,-6.5897,-6.5859,-6.5436,-6.5013,-6.4436,-6.3166,-6.2204,-6.142,-6.1053,-6.0973,-6.1048,-6.1087,-6.1174,-6.1331,-6.1541,-6.1635,-6.1686,-6.1621,-6.164,-6.1649,-6.1517,-6.1527,-6.1582,-6.1517,-6.1506,-6.1517,-6.1598,-6.1601,-6.1644,-6.1707,-6.1707,-6.1704,-6.1704,-6.1701,-6.1697,-6.1697,-6.1697,-6.1697,-6.1697,-6.0489,-5.9512,-5.912,-5.791,-5.6976,-5.6628,-5.6585,-5.6582,-5.6582,-5.6582,-5.6582,-5.6582,-5.6616,-5.6612,-5.6606,-5.6606,-5.6606,-5.6606,-5.6606,-5.6606,-7.1992,-7.1992,-7.1992,-7.1992,-7.1992,-7.1992,-7.1992,-7.1992,-7.199,-7.199,-7.1986,-7.1982,-7.1981,-7.2019,-7.2017,-7.201,-7.2006,-7.2002,-7.199,-7.1987,-7.1987,-7.1987,-7.1854,-7.1671,-7.1505,-7.1339,-7.1158,-7.0925,-7.0898,-7.0898,-7.0898,-7.0898,-7.0898,-7.0898,-7.0898,-7.0898,-7.0898,-7.0898,-7.0898,-7.0898,-7.0898,-7.0898,-7.0898,-7.0898,-7.0821,-7.0667,-6.986,0.0,-6.8129,-6.7282,-6.6513,-6.5897,-6.5897,-6.5897,-6.5782,-6.4936,-6.4512,-6.4166,-6.2474,-6.1396,-6.0781,-6.0781,-6.0781,-6.0827,-6.0933,-6.0974,-6.1066,-6.1343,-6.1513,-6.1602,-6.149,-6.1526,-6.1545,-6.1285,-6.1316,-6.1406,-6.1292,-6.1253,-6.1246,-6.1431,-6.1435,-6.1491,-6.1603,-6.1603,-6.1637,-6.1647,-6.1676,-6.1671,-6.1718,-6.1718,-6.1718,-6.1718,-6.0939,-6.0046,-5.9156,-5.8291,-5.7465,-5.6645,-5.6606,-5.6606,-5.6606,-5.6606,-5.6606,-5.6606,-5.6606,-5.6606,-5.6606,-5.6606,-5.6606,-5.6606,-5.6606,-5.6606,-7.1992,-7.1992,-7.1992,-7.1992,-7.1992,-7.1992,-7.1992,-7.1992,-7.1992,-7.199,-7.1989,-7.1987,-7.1981,-7.2019,-7.2019,-7.2017,-7.2012,-7.2002,-7.199,-7.1987,-7.1987,-7.1987,-7.1979,-7.1837,-7.1513,-7.1456,-7.129,-7.0939,-7.0898,-7.0898,-7.0898,-7.0898,-7.0898,-7.0898,-7.0898,-7.0898,-7.0898,-7.0898,-7.0898,-7.0898,-7.0898,-7.0898,-7.0898,-7.0898,-7.0514,-6.986,0.0,-6.809,-6.7244,-6.6397,-6.6013,-6.5897,-6.5897,-6.5897,-6.5782,-6.4936,-6.4128,-6.3281,-6.1589,-6.0896,-6.0781,-6.0781,-6.0781,-6.0793,-6.0827,-6.0902,-6.1011,-6.1074,-6.1174,-6.1285,-6.1266,-6.1279,-6.1246,-6.12,-6.1207,-6.1259,-6.12,-6.1193,-6.12,-6.1234,-6.1234,-6.124,-6.1265,-6.1265,-6.134,-6.1509,-6.1513,-6.1576,-6.1674,-6.1718,-6.1718,-6.1718,-6.0939,-6.0041,-5.9185,-5.8285,-5.7465,-5.6645,-5.6606,-5.6606,-5.6606,-5.6606,-5.6606,-5.6606,-5.6606,-5.6606,-5.6606,-5.6606,-5.6606,-5.6606,-5.6606,-5.6606,-7.1992,-7.1992,-7.1992,-7.1992,-7.1992,-7.1992,-7.1992,-7.1992,-7.1992,-7.1992,-7.1991,-7.1991,-7.199,-7.1989,-7.1989,-7.1987,-7.2016,-7.2004,-7.2,-7.1993,-7.1987,-7.1987,-7.1987,-7.185,-7.1513,-7.1481,-7.132,-7.0939,-7.0898,-7.0898,-7.0898,-7.0898,-7.0898,-7.0898,-7.0898,-7.0898,-7.0898,-7.0898,-7.0898,-7.0898,-7.0898,-7.0898,-7.0898,-7.0898,-7.0475,-6.9667,0.0,-6.7898,-6.7051,-6.6244,-6.5897,-6.5897,-6.5897,-6.559,-6.5051,-6.3743,-6.2704,-6.1858,-6.105,-6.0781,-6.0781,-6.0781,-6.0781,-6.0781,-6.0781,-6.0823,-6.091,-6.091,-6.1027,-6.1172,-6.112,-6.1167,-6.115,-6.103,-6.1018,-6.107,-6.1002,-6.0983,-6.1011,-6.1079,-6.1095,-6.112,-6.1172,-6.1186,-6.1214,-6.1316,-6.1322,-6.1406,-6.158,-6.1588,-6.1605,-6.1676,-6.133,-6.0744,-5.9885,-5.8987,-5.7972,-5.6684,-5.6606,-5.6606,-5.6606,-5.6606,-5.6606,-5.6606,-5.6606,-5.6606,-5.6606,-5.6606,-5.6606,-5.6606,-5.6606,-5.6606,-7.1992,-7.1992,-7.1992,-7.1992,-7.1992,-7.1992,-7.1992,-7.1992,-7.1992,-7.1992,-7.1992,-7.1992,-7.1992,-7.1992,-7.1992,-7.199,-7.1981,-7.2008,-7.2006,-7.1995,-7.1987,-7.1987,-7.1987,-7.1897,-7.1566,-7.1505,-7.1339,-7.0992,-7.0939,-7.0898,-7.0898,-7.0898,-7.0898,-7.0898,-7.0898,-7.0898,-7.0898,-7.0898,-7.0898,-7.0898,-7.0898,-7.0898,-7.0898,-7.0706,-7.0167,-6.936,-6.8475,-6.7628,-6.6782,-6.6128,-6.5897,-6.5897,-6.5897,-6.5243,-6.4128,-6.2627,-6.155,-6.0781,-6.0781,-6.0781,-6.0781,-6.0781,-6.0781,-6.0781,-6.0781,-6.0781,-6.0781,-6.0781,-6.0963,-6.1087,-6.0974,-6.1048,-6.1044,-6.0834,-6.0888,-6.0923,-6.0827,-6.0781,-6.0839,-6.0933,-6.0963,-6.0983,-6.1095,-6.1112,-6.1128,-6.1167,-6.1135,-6.1225,-6.1401,-6.1476,-6.1556,-6.1654,-6.1671,-6.1249,-6.0198,-5.93,-5.8168,-5.6684,-5.6606,-5.6606,-5.6606,-5.6606,-5.6606,-5.6606,-5.6606,-5.6606,-5.6606,-5.6606,-5.6606,-5.6606,-5.6606,-5.6606,-7.1992,-7.1992,-7.1992,-7.1992,-7.1992,-7.1992,-7.1992,-7.1992,-7.1992,-7.1992,-7.1992,-7.1992,-7.1992,-7.1992,-7.1992,-7.199,-7.1985,-7.2016,-7.2006,-7.1995,-7.1987,-7.1987,-7.1987,-7.192,-7.17,-7.1573,-7.1404,-7.1175,-7.1005,-7.0898,-7.0898,-7.0898,-7.0898,-7.0898,-7.0898,-7.0898,-7.0898,-7.0898,-7.0898,-7.0898,-7.0898,-7.0898,-7.086,-7.0129,-6.9321,-6.8436,-6.7552,-6.6744,-6.5974,-6.5897,-6.5897,-6.5897,-6.5897,-6.4859,-6.3281,-6.2397,-6.155,-6.0781,-6.0781,-6.0781,-6.0781,-6.0781,-6.0781,-6.0781,-6.0781,-6.0781,-6.0781,-6.0781,-6.0816,-6.0839,-6.0816,-6.0827,-6.0827,-6.0793,-6.0793,-6.0804,-6.0793,-6.0781,-6.0793,-6.0804,-6.0816,-6.0816,-6.0839,-6.0839,-6.0877,-6.0993,-6.102,-6.1053,-6.1186,-6.139,-6.1495,-6.15,-6.1648,-6.1015,-5.9336,-5.8402,-5.7504,-5.6645,-5.6606,-5.6606,-5.6606,-5.6606,-5.6606,-5.6606,-5.6606,-5.6606,-5.6606,-5.6606,-5.6606,-5.6606,-5.6606,-5.6606,-7.1992,-7.1992,-7.1992,-7.1992,-7.1992,-7.1992,-7.1992,-7.1992,-7.1992,-7.1992,-7.1992,-7.1992,-7.1992,-7.1992,-7.1992,-7.1992,-7.199,-7.1985,-7.2016,-7.2006,-7.1997,-7.199,-7.1987,-7.1905,-7.1601,-7.1521,-7.1358,-7.1055,-7.0927,-7.0898,-7.0898,-7.0898,-7.0898,-7.0898,-7.0898,-7.0898,-7.0898,-7.0898,-7.0898,-7.0898,-7.0898,-7.0629,-7.0129,-6.986,-6.8936,-6.7552,-6.7244,-6.6628,-6.5897,-6.5897,-6.5897,-6.5782,-6.4705,-6.3589,-6.2435,-6.1589,-6.1089,-6.0781,-6.0781,-6.0781,-6.0781,-6.0781,-6.0781,-6.0781,-6.0781,-6.0781,-6.0781,-6.0781,-6.0781,-6.0781,-6.0781,-6.0781,-6.0781,-6.0781,-6.0781,-6.0781,-6.0781,-6.0781,-6.0781,-6.0781,-6.0781,-6.0781,-6.0781,-6.0781,-6.0816,-6.0867,-6.0877,-6.0923,-6.1044,-6.1128,-6.1278,-6.1476,-6.1605,-6.121,-6.0002,-5.9104,-5.8192,-5.7294,-5.6821,-5.6606,-5.6606,-5.6606,-5.6606,-5.6606,-5.6606,-5.6606,-5.6606,-5.6606,-5.6606,-5.6606,-5.6606,-5.6606,-7.1992,-7.1992,-7.1992,-7.1992,-7.1992,-7.1992,-7.1992,-7.1992,-7.1992,-7.1992,-7.1992,-7.1992,-7.1992,-7.1992,-7.1992,-7.1992,-7.1991,-7.1988,-7.1981,-7.2012,-7.2002,-7.199,-7.1987,-7.1862,-7.1587,-7.1513,-7.1349,-7.103,-7.0952,-7.0898,-7.0898,-7.0898,-7.0898,-7.0898,-7.0898,-7.0898,-7.0898,-7.0898,-7.0783,-7.0514,-7.0514,-7.0244,-6.9667,-6.9129,-6.8244,-6.709,-6.6821,-6.6397,-6.5897,-6.5897,-6.5743,-6.532,-6.3858,-6.282,-6.1985,-6.1127,-6.0781,-6.0781,-6.0781,-6.0781,-6.0781,-6.0781,-6.0781,-6.0781,-6.0781,-6.0781,-6.0781,-6.0781,-6.0781,-6.0781,-6.0781,-6.0781,-6.0781,-6.0781,-6.0781,-6.0781,-6.0781,-6.0781,-6.0781,-6.0781,-6.0781,-6.0781,-6.0781,-6.0781,-6.0781,-6.0781,-6.0781,-6.085,-6.0923,-6.0954,-6.1142,-6.1466,-6.1584,-6.1309,-6.0471,-5.9558,-5.863,-5.7676,-5.6882,-5.6443,-5.6503,-5.6558,-5.6606,-5.6606,-5.6606,-5.6606,-5.6606,-5.6606,-5.6606,-5.6606,-5.6606,-5.6606,-7.1992,-7.1992,-7.1992,-7.1992,-7.1992,-7.1992,-7.1992,-7.1992,-7.1992,-7.1992,-7.1992,-7.1992,-7.1992,-7.1992,-7.1992,-7.1992,-7.1991,-7.1988,-7.1981,-7.2012,-7.2002,-7.199,-7.1987,-7.1924,-7.1711,-7.158,-7.1404,-7.1236,-7.1017,-7.0898,-7.0898,-7.0898,-7.0898,-7.0898,-7.0898,-7.0898,-7.0898,-7.0898,-7.0475,-6.9706,-6.9667,-6.9667,-6.9629,-6.7898,-6.709,-6.7051,-6.6244,-6.5897,-6.5897,-6.5897,-6.5359,-6.4512,-6.3628,-6.2781,-6.1985,-6.1127,-6.0781,-6.0781,-6.0781,-6.0781,-6.0781,-6.0781,-6.0781,-6.0781,-6.0781,-6.0781,-6.0781,-6.0781,-6.0781,-6.0781,-6.0781,-6.0781,-6.0781,-6.0781,-6.0781,-6.0781,-6.0781,-6.0781,-6.0781,-6.0781,-6.0781,-6.0781,-6.0781,-6.0781,-6.0781,-6.0781,-6.0781,-6.0781,-6.0781,-6.0913,-6.1142,-6.1466,-6.149,-6.1218,-6.0466,-5.9482,-5.8533,-5.7672,-5.6675,-5.6158,-5.6308,-5.6497,-5.6604,-5.6606,-5.6606,-5.6606,-5.6606,-5.6606,-5.6606,-5.6606,-5.6606,-5.6606,-7.1992,-7.1992,-7.1992,-7.1992,-7.1992,-7.1992,-7.1992,-7.1992,-7.1992,-7.1992,-7.1992,-7.1992,-7.1992,-7.1992,-7.1992,-7.1992,-7.1992,-7.199,-7.1982,-7.2017,-7.201,-7.199,-7.1987,-7.1924,-7.1711,-7.158,-7.1404,-7.1236,-7.1017,-7.0898,-7.0898,-7.0898,-7.0898,-7.0898,-7.036,-7.0052,-7.0052,-6.9436,-6.9013,-6.8783,-6.8167,-6.7859,-6.7859,-6.7321,-6.6782,-6.6244,-6.6013,-6.5897,-6.5859,-6.5243,-6.4474,-6.3589,-6.2781,-6.1935,-6.1127,-6.0896,-6.0781,-6.0781,-6.0781,-6.0781,-6.0781,-6.0781,-6.0781,-6.0781,-6.0781,-6.0781,-6.0781,-6.0781,-6.0781,-6.0781,-6.0781,-6.0781,-6.0781,-6.0781,-6.0781,-6.0781,-6.0781,-6.0781,-6.0781,-6.0781,-6.0781,-6.0781,-6.0781,-6.0781,-6.0781,-6.0781,-6.0781,-6.0781,-6.0781,-6.0913,-6.1048,-6.115,-6.1355,-6.1426,-6.1179,-6.0335,-5.9397,-5.8426,-5.7521,-5.6813,-5.6308,-5.6375,-5.6449,-5.6604,-5.6606,-5.6606,-5.6606,-5.6606,-5.6606,-5.6606,-5.6606,-5.6606,-7.1992,-7.1992,-7.1992,-7.1992,-7.1992,-7.1992,-7.1992,-7.1992,-7.1992,-7.1992,-7.1992,-7.1992,-7.1992,-7.1992,-7.1992,-7.1992,-7.1992,-7.1992,-7.1986,-7.1982,-7.2014,-7.1997,-7.199,-7.1909,-7.1641,-7.1233,-7.0872,-7.0637,-7.0183,-6.9898,-6.9898,-6.9898,-6.9898,-6.9898,-6.9436,-6.9167,-6.9167,-6.8667,-6.8244,-6.7898,-6.7359,-6.6936,-6.6628,-6.6628,-6.6359,-6.5897,-6.5897,-6.5897,-6.582,-6.4974,-6.4089,-6.3243,-6.2397,-6.1562,-6.0781,-6.0781,-6.0781,-6.0781,-6.0781,-6.0781,-6.0781,-6.0781,-6.0781,-6.0781,-6.0781,-6.0781,-6.0781,-6.0781,-6.0781,-6.0781,-6.0781,-6.0781,-6.0781,-6.0781,-6.0781,-6.0781,-6.0781,-6.0781,-6.0781,-6.0781,-6.0781,-6.0781,-6.0781,-6.0781,-6.0781,-6.0781,-6.0781,-6.0781,-6.0781,-6.0867,-6.0943,-6.0993,-6.1198,-6.1331,-6.1384,-6.0559,-5.9795,-5.9165,-5.7931,-5.7071,-5.6673,-5.6422,-5.6386,-5.6604,-5.6606,-5.6606,-5.6606,-5.6606,-5.6606,-5.6606,-5.6606,-5.6606,-7.1992,-7.1992,-7.1992,-7.1992,-7.1992,-7.1992,-7.1992,-7.1992,-7.1992,-7.1992,-7.1992,-7.1992,-7.1992,-7.1992,-7.1992,-7.1992,-7.1992,-7.1992,-7.199,-7.1985,-7.2017,-7.2006,-7.1995,-7.1854,-7.142,-7.0681,-7.006,-6.9631,-6.8873,-6.8385,-6.8385,-6.8385,-6.8385,-6.8385,-6.8321,-6.8282,-6.8282,-6.8205,-6.7782,-6.6974,-6.6974,-6.659,-6.5897,-6.5897,-6.5897,-6.5897,-6.5897,-6.5859,-6.5705,-6.4859,-6.3974,-6.3128,-6.2281,-6.1512,-6.0781,-6.0781,-6.0781,-6.0781,-6.0781,-6.0781,-6.0781,-6.0781,-6.0781,-6.0781,-6.0781,-6.0781,-6.0781,-6.0781,-6.0781,-6.0781,-6.0781,-6.0781,-6.0781,-6.0781,-6.0781,-6.0781,-6.0781,-6.0781,-6.0781,-6.0781,-6.0781,-6.0781,-6.0781,-6.0781,-6.0781,-6.0781,-6.0781,-6.0781,-6.0781,-6.0781,-6.0872,-6.0954,-6.0983,-6.1036,-6.1158,-6.0403,-5.988,-5.9803,-5.8189,-5.7233,-5.7193,-5.6595,-5.6367,-5.6558,-5.656,-5.6563,-5.6606,-5.6606,-5.6606,-5.6606,-5.6606,-5.6606,-7.1992,-7.1992,-7.1992,-7.1992,-7.1992,-7.1992,-7.1992,-7.1992,-7.1992,-7.1992,-7.1992,-7.1992,-7.1992,-7.1992,-7.1992,-7.1992,-7.1992,-7.1992,-7.199,-7.1985,-7.2017,-7.2006,-7.1995,-7.1643,-7.0748,-7.036,-6.9843,-6.8966,-6.859,-6.8385,-6.8385,-6.8385,-6.8385,-6.8385,-6.7744,-6.7359,-6.7359,-6.6744,-6.632,-6.6167,-6.6167,-6.6051,-6.5897,-6.5897,-6.5897,-6.5897,-6.5897,-6.5513,-6.482,-6.3935,-6.3089,-6.2281,-6.1396,-6.0973,-6.0781,-6.0781,-6.0781,-6.0781,-6.0781,-6.0781,-6.0781,-6.0781,-6.0781,-6.0781,-6.0781,-6.0781,-6.0781,-6.0781,-6.0781,-6.0781,-6.0781,-6.0781,-6.0781,-6.0781,-6.0781,-6.0781,-6.0781,-6.0781,-6.0781,-6.0781,-6.0781,-6.0781,-6.0781,-6.0781,-6.0781,-6.0781,-6.0781,-6.0781,-6.0781,-6.0781,-6.0804,-6.0861,-6.0943,-6.102,-6.1057,-6.0866,-6.046,-5.9841,-5.9258,-5.8417,-5.7232,-5.6427,-5.6097,-5.6375,-5.6375,-5.6443,-5.6606,-5.6606,-5.6606,-5.6606,-5.6606,-5.6606,-7.1992,-7.1992,-7.1992,-7.1992,-7.1992,-7.1992,-7.1992,-7.1992,-7.1992,-7.1992,-7.1992,-7.1992,-7.1992,-7.1992,-7.1992,-7.1992,-7.1992,-7.1992,-7.1991,-7.1987,-7.2017,-7.2014,-7.1648,-7.109,-7.0389,-6.9483,-6.8661,-6.7988,-6.7486,-6.7205,-6.7205,-6.7205,-6.7205,-6.7205,-6.6744,-6.6513,-6.6513,-6.609,-6.5897,-6.5897,-6.5897,-6.5897,-6.5897,-6.5897,-6.5897,-6.5897,-6.5897,-6.5397,-6.4551,-6.3666,-6.282,-6.2024,-6.1127,-6.0781,-6.0781,-6.0781,-6.0781,-6.0781,-6.0781,-6.0781,-6.0781,-6.0781,-6.0781,-6.0781,-6.0781,-6.0781,-6.0781,-6.0781,-6.0781,-6.0781,-6.0781,-6.0781,-6.0781,-6.0781,-6.0781,-6.0781,-6.0781,-6.0781,-6.0781,-6.0781,-6.0781,-6.0781,-6.0781,-6.0781,-6.0781,-6.0781,-6.0781,-6.0781,-6.0781,-6.0781,-6.0781,-6.0781,-6.0856,-6.0892,-6.0892,-6.0892,-6.0738,-6.0313,-5.9771,-5.9144,-5.8325,-5.7101,-5.6364,-5.6191,-5.6285,-5.6312,-5.6351,-5.6503,-5.6555,-5.6449,-5.6555,-5.6606,-7.1992,-7.1992,-7.1992,-7.1992,-7.1992,-7.1992,-7.1992,-7.1992,-7.1992,-7.1992,-7.1992,-7.1992,-7.1992,-7.1992,-7.1992,-7.1992,-7.1992,-7.1992,-7.1992,-7.1988,-7.2019,-7.2019,-7.1221,-7.0524,-7.0005,-6.8536,-6.7414,-6.6948,-6.6282,-6.5897,-6.5897,-6.5897,-6.5897,-6.5897,-6.5897,-6.5897,-6.5897,-6.5897,-6.5897,-6.5897,-6.5897,-6.5897,-6.5897,-6.5897,-6.5897,-6.5897,-6.5743,-6.5166,-6.432,-6.3435,-6.2627,-6.1793,-6.1089,-6.0781,-6.0781,-6.0781,-6.0781,-6.0781,-6.0781,-6.0781,-6.0781,-6.0781,-6.0781,-6.0781,-6.0781,-6.0781,-6.0781,-6.0781,-6.0781,-6.0781,-6.0781,-6.0781,-6.0781,-6.0781,-6.0781,-6.0781,-6.0781,-6.0781,-6.0781,-6.0781,-6.0781,-6.0781,-6.0781,-6.0781,-6.0781,-6.0781,-6.0781,-6.0781,-6.0781,-6.0781,-6.0781,-6.0781,-6.0781,-6.0781,-6.0781,-6.0781,-6.0781,-6.0781,-6.0127,-5.9665,-5.9511,-5.8165,-5.7072,-5.6287,-5.6236,-5.6191,-5.6135,-5.6422,-5.6494,-5.6371,-5.6509,-5.6606,-7.1992,-7.1992,-7.1992,-7.1992,-7.1992,-7.1992,-7.1992,-7.1992,-7.1992,-7.1992,-7.1992,-7.1992,-7.1992,-7.1992,-7.1992,-7.1992,-7.1992,-7.1992,-7.1992,-7.1988,-7.2019,-7.2019,-7.1221,-7.0255,-6.9196,-6.8194,-6.7182,-6.614,-6.5974,-6.5897,-6.5897,-6.5897,-6.5897,-6.5897,-6.5897,-6.5897,-6.5897,-6.5897,-6.5897,-6.5897,-6.5897,-6.5897,-6.5897,-6.5897,-6.5897,-6.5859,-6.5089,-6.4282,-6.3397,-6.2589,-6.1743,-6.0973,-6.0858,-6.0781,-6.0781,-6.0781,-6.0781,-6.0781,-6.0781,-6.0781,-6.0781,-6.0781,-6.0781,-6.0781,-6.0781,-6.0781,-6.0781,-6.0781,-6.0781,-6.0781,-6.0781,-6.0781,-6.0781,-6.0781,-6.0781,-6.0781,-6.0781,-6.0781,-6.0781,-6.0781,-6.0781,-6.0781,-6.0781,-6.0781,-6.0781,-6.0781,-6.0781,-6.0781,-6.0781,-6.0781,-6.0781,-6.0781,-6.0781,-6.0781,-6.0781,-6.0781,-6.0781,-6.0781,-6.0704,-6.0281,-5.9511,-5.9281,-5.8468,-5.6914,-5.6256,-5.605,-5.6251,-5.6316,-5.6436,-5.6558,-5.6602,-5.6606,-7.1992,-7.1992,-7.1992,-7.1992,-7.1992,-7.1992,-7.1992,-7.1992,-7.1992,-7.1992,-7.1992,-7.1992,-7.1992,-7.1992,-7.1992,-7.1992,-7.1992,-7.1992,-7.1991,-7.1987,-7.2017,-7.2014,-7.0789,-6.9709,-6.8963,-6.7682,-6.66,-6.5935,-6.5897,-6.5897,-6.5897,-6.5897,-6.5897,-6.5897,-6.5897,-6.5897,-6.5897,-6.5897,-6.5897,-6.5897,-6.5897,-6.5897,-6.5897,-6.5897,-6.5897,-6.5859,-6.4974,-6.4128,-6.3243,-6.2435,-6.1601,-6.0781,-6.0781,-6.0781,-6.0781,-6.0781,-6.0781,-6.0781,-6.0781,-6.0781,-6.0781,-6.0781,-6.0781,-6.0781,-6.0781,-6.0781,-6.0781,-6.0781,-6.0781,-6.0781,-6.0781,-6.0781,-6.0781,-6.0781,-6.0781,-6.0781,-6.0781,-6.0781,-6.0781,-6.0781,-6.0781,-6.0781,-6.0781,-6.0781,-6.0781,-6.0781,-6.0781,-6.0781,-6.0781,-6.0781,-6.0781,-6.0781,-6.0781,-6.0781,-6.0781,-6.0781,-6.0781,-6.0781,-6.0781,-6.0627,-6.0242,-5.9742,-5.9165,-5.8434,-5.7217,-5.6435,-5.6071,-5.6217,-5.6367,-5.6443,-5.6553,-5.6606,-7.1992,-7.1992,-7.1992,-7.1992,-7.1992,-7.1992,-7.1992,-7.1992,-7.1992,-7.1992,-7.1992,-7.1992,-7.1992,-7.1992,-7.1992,-7.1992,-7.1992,-7.1992,-7.199,-7.1985,-7.1939,-7.1696,-7.0319,-6.9163,-6.8613,-6.7169,-6.6203,-6.5897,-6.5897,-6.5897,-6.5897,-6.5897,-6.5897,-6.5897,-6.5897,-6.5897,-6.5897,-6.5897,-6.5897,-6.5897,-6.5897,-6.5897,-6.5897,-6.5897,-6.5782,-6.5513,-6.4666,-6.3782,-6.2935,-6.2089,-6.1408,-6.0781,-6.0781,-6.0781,-6.0781,-6.0781,-6.0781,-6.0781,-6.0781,-6.0781,-6.0781,-6.0781,-6.0781,-6.0781,-6.0781,-6.0781,-6.0781,-6.0781,-6.0781,-6.0781,-6.0781,-6.0781,-6.0781,-6.0781,-6.0781,-6.0781,-6.0781,-6.0781,-6.0781,-6.0781,-6.0781,-6.0781,-6.0781,-6.0781,-6.0781,-6.0781,-6.0781,-6.0781,-6.0781,-6.0781,-6.0781,-6.0781,-6.0781,-6.0781,-6.0781,-6.0781,-6.0781,-6.0781,-6.0781,-6.0781,-6.0781,-6.0165,-5.9742,-5.9511,-5.8364,-5.7273,-5.6235,-5.6214,-5.6207,-5.6237,-5.6418,-5.6482,-7.1992,-7.1992,-7.1992,-7.1992,-7.1992,-7.1992,-7.1992,-7.1992,-7.1992,-7.1992,-7.1992,-7.1992,-7.1992,-7.1992,-7.1992,-7.1992,-7.1992,-7.1992,-7.199,-7.1985,-7.1705,-7.0876,-6.9967,-6.8929,-6.7797,-6.6819,-6.6203,-6.5897,-6.5897,-6.5897,-6.5897,-6.5897,-6.5897,-6.5897,-6.5897,-6.5897,-6.5897,-6.5897,-6.5897,-6.5897,-6.5897,-6.5897,-6.5897,-6.5897,-6.5436,-6.4628,-6.3743,-6.2897,-6.2101,-6.1243,-6.0819,-6.0781,-6.0781,-6.0781,-6.0781,-6.0781,-6.0781,-6.0781,-6.0781,-6.0781,-6.0781,-6.0781,-6.0781,-6.0781,-6.0781,-6.0781,-6.0781,-6.0781,-6.0781,-6.0781,-6.0781,-6.0781,-6.0781,-6.0781,-6.0781,-6.0781,-6.0781,-6.0781,-6.0781,-6.0781,-6.0781,-6.0781,-6.0781,-6.0781,-6.0781,-6.0781,-6.0781,-6.0781,-6.0781,-6.0781,-6.0781,-6.0781,-6.0781,-6.0781,-6.0781,-6.0781,-6.0781,-6.0781,-6.0781,-6.0781,-6.0781,-6.0742,-6.0319,-5.9511,-5.9407,-5.8631,-5.7125,-5.633,-5.6002,-5.611,-5.6116,-5.6116,-7.1992,-7.1992,-7.1992,-7.1992,-7.1992,-7.1992,-7.1992,-7.1992,-7.1992,-7.1992,-7.1992,-7.1992,-7.1992,-7.1992,-7.1992,-7.1992,-7.1992,-7.199,-7.1985,-7.2017,-7.1696,-7.0785,-6.9921,-6.8929,-6.7719,-6.6819,-6.6203,-6.5897,-6.5897,-6.5897,-6.5897,-6.5897,-6.5897,-6.5897,-6.5897,-6.5897,-6.5897,-6.5897,-6.5897,-6.5897,-6.5897,-6.5897,-6.5859,-6.532,-6.4589,-6.3743,-6.2897,-6.2358,-6.2024,-6.1166,-6.0781,-6.0781,-6.0781,-6.0781,-6.0781,-6.0781,-6.0781,-6.0781,-6.0781,-6.0781,-6.0781,-6.0781,-6.0781,-6.0781,-6.0781,-6.0781,-6.0781,-6.0781,-6.0781,-6.0781,-6.0781,-6.0781,-6.0781,-6.0781,-6.0781,-6.0781,-6.0781,-6.0781,-6.0781,-6.0781,-6.0781,-6.0781,-6.0781,-6.0781,-6.0781,-6.0781,-6.0781,-6.0781,-6.0781,-6.0781,-6.0781,-6.0781,-6.0781,-6.0781,-6.0781,-6.0781,-6.0781,-6.0781,-6.0781,-6.0781,-6.0781,-6.0781,-6.0666,-6.0319,-5.9781,-5.8736,-5.7202,-5.6893,-5.6521,-5.6097,-5.6097,-5.6097,-7.1992,-7.1992,-7.1992,-7.1992,-7.1992,-7.1992,-7.1992,-7.1992,-7.1992,-7.1992,-7.1992,-7.1992,-7.1992,-7.1992,-7.1992,-7.1992,-7.1991,-7.1988,-7.2017,-7.1737,-7.1221,-7.0387,-6.9489,-6.85,-6.7284,-6.6625,-6.6203,-6.5897,-6.5897,-6.5897,-6.5897,-6.5897,-6.5897,-6.5897,-6.5897,-6.5897,-6.5897,-6.5897,-6.5897,-6.5897,-6.5897,-6.5743,-6.5436,-6.4859,-6.3974,-6.2858,-6.232,-6.1947,-6.1639,-6.105,-6.0781,-6.0781,-6.0781,-6.0781,-6.0781,-6.0781,-6.0781,-6.0781,-6.0781,-6.0781,-6.0781,-6.0781,-6.0781,-6.0781,-6.0781,-6.0781,-6.0781,-6.0781,-6.0781,-6.0781,-6.0781,-6.0781,-6.0781,-6.0781,-6.0781,-6.0781,-6.0781,-6.0781,-6.0781,-6.0781,-6.0781,-6.0781,-6.0781,-6.0781,-6.0781,-6.0781,-6.0781,-6.0781,-6.0781,-6.0781,-6.0781,-6.0781,-6.0781,-6.0781,-6.0781,-6.0781,-6.0781,-6.0781,-6.0781,-6.0781,-6.0781,-6.0781,-6.0781,-6.0781,-6.0242,-5.9282,-5.795,-5.7419,-5.6866,-5.6404,-5.6102,-5.5971,0.0,0.0,0.0,-7.1992,-7.1992,-7.1992,-7.1992,-7.1992,-7.1992,-7.1992,-7.1992,-7.1992,-7.1992,-7.1992,-7.1992,-7.199,-7.1989,-7.1986,-7.2008,-7.1264,-7.0362,-6.9491,-6.863,-6.7637,-6.6422,-6.6314,-6.6203,-6.5897,-6.5897,-6.5897,-6.5897,-6.5897,-6.5897,-6.5897,-6.5897,-6.5897,-6.5897,-6.5897,-6.5897,-6.5897,-6.5897,-6.5436,-6.4589,-6.4589,-6.3666,-6.2101,-6.2062,-6.1601,-6.0781,-6.0781,-6.0781,-6.0781,-6.0781,-6.0781,-6.0781,-6.0781,-6.0781,-6.0781,-6.0781,-6.0781,-6.0781,-6.0781,-6.0781,-6.0781,-6.0781,-6.0781,-6.0781,-6.0781,-6.0781,-6.0781,-6.0781,-6.0781,-6.0781,-6.0781,-6.0781,-6.0781,-6.0781,-6.0781,-6.0781,-6.0781,-6.0781,-6.0781,-6.0781,-6.0781,-6.0781,-6.0781,-6.0781,-6.0781,-6.0781,-6.0781,-6.0781,-6.0781,-6.0781,-6.0781,-6.0781,-6.0781,-6.0781,-6.0781,-6.0781,-6.0781,-6.0781,-6.0781,-6.0781,-6.0781,-6.0781,-6.0396,-5.955,-5.7857,-5.706,-5.6983,-5.6099,-5.5778,-7.1977,0.0,0.0,0.0,0.0,0.0,-7.199,-7.199,-7.1991,-7.1992,-7.1992,-7.1992,-7.1992,-7.1992,-7.1992,-7.1985,-7.1984,-7.1981,-7.2008,-7.1258,-7.0392,-6.9489,-6.863,-6.7637,-6.6422,-6.6314,-6.6203,-6.5897,-6.5897,-6.5897,-6.5897,-6.5897,-6.5897,-6.5897,-6.5897,-6.5897,-6.5897,-6.5897,-6.5897,-6.5897,-6.5897,-6.5436,-6.4589,-6.3935,-6.3089,-6.2062,-6.1435,-6.1012,-6.0781,-6.0781,-6.0781,-6.0781,-6.0781,-6.0781,-6.0781,-6.0781,-6.0781,-6.0781,-6.0781,-6.0781,-6.0781,-6.0781,-6.0781,-6.0781,-6.0781,-6.0781,-6.0781,-6.0781,-6.0781,-6.0781,-6.0781,-6.0781,-6.0781,-6.0781,-6.0781,-6.0781,-6.0781,-6.0781,-6.0781,-6.0781,-6.0781,-6.0781,-6.0781,-6.0781,-6.0781,-6.0781,-6.0781,-6.0781,-6.0781,-6.0781,-6.0781,-6.0781,-6.0781,-6.0781,-6.0781,-6.0781,-6.0781,-6.0781,-6.0781,-6.0781,-6.0781,-6.0781,-6.0781,-6.0781,-6.0781,-6.0666,-6.0435,-5.9319,-5.8204,-5.6983,-5.6099,-5.5696,-7.1768,-7.1845,-7.1867,-7.1875,0.0,0.0,-7.1887,-7.1831,-7.1822,-7.1852,-7.1858,-7.1902,-7.1989,-7.199,-7.1871,-7.1509,-7.1469,-7.1465,-7.1453,-7.0704,-6.984,-6.8942,-6.8083,-6.7247,-6.6383,-6.6314,-6.6203,-6.5897,-6.5897,-6.5897,-6.5897,-6.5897,-6.5897,-6.5897,-6.5897,-6.5897,-6.5897,-6.5897,-6.5897,-6.5897,-6.5513,-6.4897,-6.4051,-6.3166,-6.2358,-6.1524,-6.1012,-6.0781,-6.0781,-6.0781,-6.0781,-6.0781,-6.0781,-6.0781,-6.0781,-6.0781,-6.0781,-6.0781,-6.0781,-6.0781,-6.0781,-6.0781,-6.0781,-6.0781,-6.0781,-6.0781,-6.0781,-6.0781,-6.0781,-6.0781,-6.0781,-6.0781,-6.0781,-6.0781,-6.0781,-6.0781,-6.0781,-6.0781,-6.0781,-6.0781,-6.0781,-6.0781,-6.0781,-6.0781,-6.0781,-6.0781,-6.0781,-6.0781,-6.0781,-6.0781,-6.0781,-6.0781,-6.0781,-6.0781,-6.0781,-6.0781,-6.0781,-6.0781,-6.0781,-6.0781,-6.0781,-6.0781,-6.0781,-6.0781,-6.0781,-6.0781,-6.0781,-5.9935,-5.8819,-5.7511,-5.6626,-5.6252,-7.1482,-7.1595,-7.1687,-7.1668,-7.1672,0.0,-7.1677,-7.1599,-7.1511,-7.1663,-7.169,-7.1718,-7.1813,-7.1862,-7.1589,-7.0684,-7.0565,-7.056,-7.0545,-6.9801,-6.8981,-6.82,-6.7342,-6.6662,-6.6344,-6.6314,-6.6203,-6.5897,-6.5897,-6.5897,-6.5897,-6.5897,-6.5897,-6.5897,-6.5897,-6.5897,-6.5897,-6.5897,-6.5859,-6.5743,-6.4974,-6.4089,-6.3128,-6.2435,-6.1639,-6.0781,-6.0781,-6.0781,-6.0781,-6.0781,-6.0781,-6.0781,-6.0781,-6.0781,-6.0781,-6.0781,-6.0781,-6.0781,-6.0781,-6.0781,-6.0781,-6.0781,-6.0781,-6.0781,-6.0781,-6.0781,-6.0781,-6.0781,-6.0781,-6.0781,-6.0781,-6.0781,-6.0781,-6.0781,-6.0781,-6.0781,-6.0781,-6.0781,-6.0781,-6.0781,-6.0781,-6.0781,-6.0781,-6.0781,-6.0781,-6.0781,-6.0781,-6.0781,-6.0781,-6.0781,-6.0781,-6.0781,-6.0781,-6.0781,-6.0781,-6.0781,-6.0781,-6.0781,-6.0781,-6.0781,-6.0781,-6.0781,-6.0781,-6.0781,-6.0781,-6.0781,-6.0781,-5.9935,-5.9127,-5.8396,-5.755,-5.7137,-7.1456,-7.1521,-7.1544,-7.1551,-7.1551,0.0,-7.1556,-7.1534,-7.1496,-7.1511,-7.1599,-7.1511,-7.0919,-7.088,-7.066,-6.98,-6.9639,-6.963,-6.965,-6.8903,-6.8279,-6.8122,-6.7342,-6.6662,-6.6344,-6.6314,-6.6203,-6.5897,-6.5897,-6.5897,-6.5897,-6.5897,-6.5897,-6.5897,-6.5897,-6.5897,-6.5897,-6.5897,-6.5551,-6.4859,-6.4666,-6.3782,-6.232,-6.2178,-6.1639,-6.0781,-6.0781,-6.0781,-6.0781,-6.0781,-6.0781,-6.0781,-6.0781,-6.0781,-6.0781,-6.0781,-6.0781,-6.0781,-6.0781,-6.0781,-6.0781,-6.0781,-6.0781,-6.0781,-6.0781,-6.0781,-6.0781,-6.0781,-6.0781,-6.0781,-6.0781,-6.0781,-6.0781,-6.0781,-6.0781,-6.0781,-6.0781,-6.0781,-6.0781,-6.0781,-6.0781,-6.0781,-6.0781,-6.0781,-6.0781,-6.0781,-6.0781,-6.0781,-6.0781,-6.0781,-6.0781,-6.0781,-6.0781,-6.0781,-6.0781,-6.0781,-6.0781,-6.0781,-6.0781,-6.0781,-6.0781,-6.0781,-6.0781,-6.0781,-6.0781,-6.0781,-6.0781,-5.9935,-5.9435,-5.9242,-5.8434,-5.805,-6.9916,-7.0021,-7.0108,-7.0108,-7.0108,0.0,0.0,-7.0021,-6.9982,-7.0076,-7.0168,-7.0102,-6.9763,-6.9743,-6.9506,-6.8643,-6.8593,-6.8486,-6.8074,-6.8063,-6.7927,-6.7498,-6.7003,-6.6571,-6.6337,-6.6234,-6.6138,-6.5935,-6.5897,-6.5897,-6.5897,-6.5897,-6.5897,-6.5897,-6.5897,-6.5897,-6.5897,-6.5474,-6.5013,-6.4589,-6.3743,-6.2897,-6.2101,-6.1639,-6.1204,-6.0781,-6.0781,-6.0781,-6.0781,-6.0781,-6.0781,-6.0781,-6.0781,-6.0781,-6.0781,-6.0781,-6.0781,-6.0781,-6.0781,-6.0781,-6.0781,-6.0781,-6.0781,-6.0781,-6.0781,-6.0781,-6.0781,-6.0781,-6.0781,-6.0781,-6.0781,-6.0781,-6.0781,-6.0781,-6.0781,-6.0781,-6.0781,-6.0781,-6.0781,-6.0781,-6.0781,-6.0781,-6.0781,-6.0781,-6.0781,-6.0781,-6.0781,-6.0781,-6.0781,-6.0781,-6.0781,-6.0781,-6.0781,-6.0781,-6.0781,-6.0781,-6.0781,-6.0781,-6.0781,-6.0781,-6.0781,-6.0781,-6.0781,-6.0781,-6.0781,-6.0781,-6.0781,-6.0358,-6.0165,-6.0127,-5.9281,-5.8896,-6.8385,-6.8523,-6.8635,-6.8635,-6.8635,-6.8635,0.0,0.0,0.0,-6.8602,-6.8678,-6.8684,-6.8627,-6.8645,-6.8435,-6.7704,-6.76,-6.7431,-6.688,-6.7339,-6.751,-6.6871,-6.6638,-6.6483,-6.6322,-6.6157,-6.6008,-6.5923,-6.5897,-6.5897,-6.5897,-6.5897,-6.5897,-6.5897,-6.5897,-6.582,-6.5628,-6.4936,-6.4436,-6.4089,-6.2743,-6.2024,-6.1831,-6.1127,-6.0781,-6.0781,-6.0781,-6.0781,-6.0781,-6.0781,-6.0781,-6.0781,-6.0781,-6.0781,-6.0781,-6.0781,-6.0781,-6.0781,-6.0781,-6.0781,-6.0781,-6.0781,-6.0781,-6.0781,-6.0781,-6.0781,-6.0781,-6.0781,-6.0781,-6.0781,-6.0781,-6.0781,-6.0781,-6.0781,-6.0781,-6.0781,-6.0781,-6.0781,-6.0781,-6.0781,-6.0781,-6.0781,-6.0781,-6.0781,-6.0781,-6.0781,-6.0781,-6.0781,-6.0781,-6.0781,-6.0781,-6.0781,-6.0781,-6.0781,-6.0781,-6.0781,-6.0781,-6.0781,-6.0781,-6.0781,-6.0781,-6.0781,-6.0781,-6.0781,-6.0781,-6.0781,-6.0781,-6.0781,-6.0781,-6.0781,-6.0089,-5.9742,-6.8385,-6.8411,-6.8437,-6.8437,-6.8437,-6.8437,-6.8437,0.0,-6.8398,-6.8437,0.0,-6.846,-6.7707,0.0,0.0,-6.7612,-6.7022,-6.6775,-6.7397,-6.6917,-6.6573,-6.6784,-6.6535,-6.6329,-6.6314,-6.6056,-6.5935,-6.5897,-6.5897,-6.5897,-6.5897,-6.5897,-6.5897,-6.5897,-6.5897,-6.5513,-6.4743,-6.4666,-6.3858,-6.237,-6.2178,-6.1716,-6.0935,-6.0858,-6.0781,-6.0781,-6.0781,-6.0781,-6.0781,-6.0781,-6.0781,-6.0781,-6.0781,-6.0781,-6.0781,-6.0781,-6.0781,-6.0781,-6.0781,-6.0781,-6.0781,-6.0781,-6.0781,-6.0781,-6.0781,-6.0781,-6.0781,-6.0781,-6.0781,-6.0781,-6.0781,-6.0781,-6.0781,-6.0781,-6.0781,-6.0781,-6.0781,-6.0781,-6.0781,-6.0781,-6.0781,-6.0781,-6.0781,-6.0781,-6.0781,-6.0781,-6.0781,-6.0781,-6.0781,-6.0781,-6.0781,-6.0781,-6.0781,-6.0781,-6.0781,-6.0781,-6.0781,-6.0781,-6.0781,-6.0781,-6.0781,-6.0781,-6.0781,-6.0781,-6.0781,-6.0781,-6.0781,-6.0781,-6.0781,-6.0781,-6.0704,-6.0666,-6.6936,-6.6936,-6.6936,-6.6936,-6.6936,-6.6936,-6.6936,-6.6936,-6.6936,-6.6936,0.0,0.0,0.0,0.0,0.0,0.0,-6.6399,-6.6346,-6.6687,-6.6406,-6.6259,-6.6468,-6.6314,-6.6148,-6.6067,-6.5955,-6.5897,-6.5897,-6.5897,-6.5897,-6.5897,-6.5897,-6.5897,-6.5897,-6.5397,-6.4974,-6.4589,-6.3628,-6.2781,-6.2101,-6.1601,-6.1127,-6.0781,-6.0781,-6.0781,-6.0781,-6.0781,-6.0781,-6.0781,-6.0781,-6.0781,-6.0781,-6.0781,-6.0781,-6.0781,-6.0781,-6.0781,-6.0781,-6.0781,-6.0781,-6.0781,-6.0781,-6.0781,-6.0781,-6.0781,-6.0781,-6.0781,-6.0781,-6.0781,-6.0781,-6.0781,-6.0781,-6.0781,-6.0781,-6.0781,-6.0781,-6.0781,-6.0781,-6.0781,-6.0781,-6.0781,-6.0781,-6.0781,-6.0781,-6.0781,-6.0781,-6.0781,-6.0781,-6.0781,-6.0781,-6.0781,-6.0781,-6.0781,-6.0781,-6.0781,-6.0781,-6.0781,-6.0781,-6.0781,-6.0781,-6.0781,-6.0781,-6.0781,-6.0781,-6.0781,-6.0781,-6.0781,-6.0781,-6.0781,-6.0781,-6.0781,-6.0781,-6.5897,-6.5897,-6.5897,-6.5897,-6.5897,-6.5897,-6.5897,-6.5897,-6.5897,-6.5897,-6.5897,0.0,0.0,0.0,-6.5974,-6.6205,0.0,-6.6129,-6.6323,-6.6168,-6.6118,-6.6283,-6.6194,-6.6063,-6.5923,-6.5897,-6.5897,-6.5897,-6.5897,-6.5897,-6.5897,-6.5897,-6.5782,-6.5551,-6.4936,-6.4397,-6.3935,-6.2716,-6.1985,-6.1755,-6.1089,-6.0781,-6.0781,-6.0781,-6.0781,-6.0781,-6.0781,-6.0781,-6.0781,-6.0781,-6.0781,-6.0781,-6.0781,-6.0781,-6.0781,-6.0781,-6.0781,-6.0781,-6.0781,-6.0781,-6.0781,-6.0781,-6.0781,-6.0781,-6.0781,-6.0781,-6.0781,-6.0781,-6.0781,-6.0781,-6.0781,-6.0781,-6.0781,-6.0781,-6.0781,-6.0781,-6.0781,-6.0781,-6.0781,-6.0781,-6.0781,-6.0781,-6.0781,-6.0781,-6.0781,-6.0781,-6.0781,-6.0781,-6.0781,-6.0781,-6.0781,-6.0781,-6.0781,-6.0781,-6.0781,-6.0781,-6.0781,-6.0781,-6.0781,-6.0781,-6.0781,-6.0781,-6.0781,-6.0781,-6.0781,-6.0781,-6.0781,-6.0781,-6.0781,-6.0781,-6.0781,-6.0781,-6.5897,-6.5897,-6.5897,-6.5897,-6.5897,-6.5897,-6.5897,-6.5897,-6.5897,-6.5897,-6.5897,-6.5897,-6.5897,-6.5897,-6.6128,-6.6936,-6.641,0.0,0.0,-6.641,-6.5986,-6.6275,-6.6194,-6.6063,-6.5923,-6.5897,-6.5897,-6.5897,-6.5897,-6.5897,-6.5897,-6.5897,-6.5513,-6.4666,-6.4628,-6.382,-6.2216,-6.2139,-6.1678,-6.0819,-6.0819,-6.0781,-6.0781,-6.0781,-6.0781,-6.0781,-6.0781,-6.0781,-6.0781,-6.0781,-6.0781,-6.0781,-6.0781,-6.0781,-6.0781,-6.0781,-6.0781,-6.0781,-6.0781,-6.0781,-6.0781,-6.0781,-6.0781,-6.0781,-6.0781,-6.0781,-6.0781,-6.0781,-6.0781,-6.0781,-6.0781,-6.0781,-6.0781,-6.0781,-6.0781,-6.0781,-6.0781,-6.0781,-6.0781,-6.0781,-6.0781,-6.0781,-6.0781,-6.0781,-6.0781,-6.0781,-6.0781,-6.0781,-6.0781,-6.0781,-6.0781,-6.0781,-6.0781,-6.0781,-6.0781,-6.0781,-6.0781,-6.0781,-6.0781,-6.0781,-6.0781,-6.0781,-6.0781,-6.0781,-6.0781,-6.0781,-6.0781,-6.0781,-6.0781,-6.0781,-6.0781,-6.0781,0.0,-6.5897,-6.5897,-6.5897,-6.5897,-6.5897,-6.5897,-6.5897,-6.5897,-6.5897,-6.5897,-6.5897,-6.5897,-6.5897,-6.5974,-6.6244,-6.609,-6.6013,0.0,-6.6051,-6.5933,-6.6019,-6.6001,-6.5958,-6.591,-6.5897,-6.5897,-6.5897,-6.5897,-6.5897,-6.5897,-6.5359,-6.4897,-6.4628,-6.3512,-6.2678,-6.2101,-6.1524,-6.1089,-6.0781,-6.0781,-6.0781,-6.0781,-6.0781,-6.0781,-6.0781,-6.0781,-6.0781,-6.0781,-6.0781,-6.0781,-6.0781,-6.0781,-6.0781,-6.0781,-6.0781,-6.0781,-6.0781,-6.0781,-6.0781,-6.0781,-6.0781,-6.0781,-6.0781,-6.0781,-6.0781,-6.0781,-6.0781,-6.0781,-6.0781,-6.0781,-6.0781,-6.0781,-6.0781,-6.0781,-6.0781,-6.0781,-6.0781,-6.0781,-6.0781,-6.0781,-6.0781,-6.0781,-6.0781,-6.0781,-6.0781,-6.0781,-6.0781,-6.0781,-6.0781,-6.0781,-6.0781,-6.0781,-6.0781,-6.0781,-6.0781,-6.0781,-6.0781,-6.0781,-6.0781,-6.0781,-6.0781,-6.0781,-6.0781,-6.0781,-6.0781,-6.0781,-6.0781,-6.0781,-6.0781,-6.0781,-6.0781,-6.5897,-6.5897,0.0,-6.5897,-6.5897,-6.5897,-6.5897,-6.5897,-6.5897,-6.5897,-6.5897,-6.5897,-6.5897,-6.5897,-6.5897,-6.5897,-6.5897,-6.5897,0.0,-6.5897,-6.5897,-6.5897,-6.5897,-6.5897,-6.5897,-6.5897,-6.5897,-6.5897,-6.5897,-6.5897,-6.5897,-6.5051,-6.4474,-6.4166,-6.282,-6.1947,-6.1639,-6.1089,-6.0781,-6.0781,-6.0781,-6.0781,-6.0781,-6.0781,-6.0781,-6.0781,-6.0781,-6.0781,-6.0781,-6.0781,-6.0781,-6.0781,-6.0781,-6.0781,-6.0781,-6.0781,-6.0781,-6.0781,-6.0781,-6.0781,-6.0781,-6.0781,-6.0781,-6.0781,-6.0781,-6.0781,-6.0742,-6.0435,-6.055,-6.0742,-6.0435,-6.055,-6.0781,-6.0781,-6.0781,-6.0781,-6.0781,-6.0781,-6.0781,-6.0781,-6.0781,-6.0781,-6.0781,-6.0781,-6.0781,-6.0781,-6.0781,-6.0781,-6.0781,-6.0781,-6.0781,-6.0781,-6.0781,-6.0781,-6.0781,-6.0781,-6.0781,-6.0781,-6.0781,-6.0781,-6.0781,-6.0781,-6.1089,-6.1666,-6.1089,-6.1089,-6.1704,-6.1089,-6.0781,-6.0781,-6.0781,-6.0781]},{"header":{"parameterUnit":"m.s-1","parameterCategory":1,"la1":30.6,"la2":29.2853,"lo1":-89.7004,"lo2":-87.6739,"dy":0.0162,"dx":0.0183,"nx":112,"ny":82,"refTime":"2024-05-03T06:00:00:Z","depth":0,"parameterNumber":3,"parameterNumberName":"V-component_of_WINDS"},"data":[0.0,0.0,0.0,0.0,0.0,0.0,0.0,0.0,0.0,0.0,0.0,0.0,0.0,0.0,0.0,0.0,0.0,0.0,0.0,0.0,0.0,0.0,0.0,0.0,0.0,0.0,0.0,0.0,0.0,0.0,0.0,0.0,0.0,0.0,0.0,0.0,0.0,0.0,0.0,0.0,0.0,0.0,0.0,0.0,0.0,0.0,0.0,0.0,0.0,0.0,0.0,0.0,0.0,0.0,0.0,0.0,0.0,0.0,0.0,0.0,0.0,0.0,0.0,0.0,0.0,0.0,0.0,0.0,0.0,0.0,0.0,0.0,0.0,0.0,0.0,0.0,0.0,0.0,0.0,0.0,0.0,0.0,0.0,0.0,0.0,0.0,0.0,0.0,0.0,0.0,-0.0079,-0.0392,-0.3135,-0.6264,-0.9314,-1.0253,-1.0796,-1.1262,0.0,0.0,0.0,0.0,0.0,0.0,0.0,0.0,0.0,0.0,0.0,0.0,0.0,0.0,0.0,0.0,0.0,0.0,0.0,0.0,0.0,0.0,0.0,0.0,0.0,0.0,0.0,0.0,0.0,0.0,0.0,0.0,0.0,0.0,0.0,0.0,0.0,0.0,0.0,0.0,0.0,0.0,0.0,0.0,0.0,0.0,0.0,0.0,0.0,0.0,0.0,0.0,0.0,0.0,0.0,0.0,0.0,0.0,0.0,0.0,0.0,0.0,0.0,0.0,0.0,0.0,0.0,0.0,0.0,0.0,0.0,0.0,0.0,0.0,0.0,0.0,0.0,0.0,0.0,0.0,0.0,0.0,0.0,0.0,0.0,0.0,0.0,0.0,0.0,0.0,0.0,0.0,0.0,0.0,0.0,0.0,0.0,0.0,0.0,0.0,0.0,0.0,0.0,0.0,-0.0549,-0.196,-0.3838,-0.5796,-0.7751,-0.9547,-1.0796,-1.1262,0.0,0.0,0.0,0.0,0.0,0.0,0.0,0.0,0.0,0.0,0.0,0.0,0.0,0.0,0.0,0.0,0.0,0.0,0.0,0.0,0.0,0.0,0.0,0.0,0.0,0.0,0.0,0.0,0.0,0.0,0.0,0.0,0.0,0.0,0.0,0.0,0.0,0.0,0.0,0.0,0.0,0.0,0.0,0.0,0.0,0.0,0.0,0.0,0.0,0.0,0.0,0.0,0.0,0.0,0.0,0.0,0.0,0.0,0.0,0.0,0.0,0.0,0.0,0.0,0.0,0.0,0.0,0.0,0.0,0.0,0.0,0.0,0.0,0.0,0.0,0.0,0.0,0.0,0.0,0.0,0.0,0.0,0.0,0.0,0.0,0.0,0.0,0.0,0.0,0.0,0.0,0.0,0.0,0.0,0.0,0.0,0.0,0.0,0.0,0.0,0.0,0.0,0.0,0.0,-0.0628,-0.235,-0.3994,-0.5717,-0.7357,-0.9236,-1.0563,-1.1262,-1.1495,0.0,0.0,0.0,0.0,0.0,0.0,0.0,0.0,0.0,0.0,0.0,0.0,0.0,0.0,0.0,0.0,0.0,0.0,0.0,0.0,0.0,0.0,0.0,0.0,0.0,0.0,0.0,0.0,0.0,0.0,0.0,0.0,0.0,0.0,0.0,0.0,0.0,0.0,0.0,0.0,0.0,0.0,0.0,0.0,0.0,0.0,0.0,0.0,0.0,0.0,0.0,0.0,0.0,0.0,0.0,0.0,0.0,0.0,0.0,0.0,0.0,0.0,0.0,0.0,0.0,0.0,0.0,0.0,0.0,0.0,0.0,0.0,0.0,0.0,0.0,0.0,0.0,0.0,0.0,0.0,0.0,0.0,0.0,0.0,0.0,0.0,0.0,0.0,0.0,0.0,0.0,0.0,0.0,0.0,0.0,0.0,0.0,0.0,0.0,0.0,0.0,0.0,0.0,-0.0471,-0.1803,-0.3762,-0.5483,-0.6811,-0.8847,-1.0408,-1.1262,-1.1262,0.0,0.0,0.0,0.0,0.0,0.0,0.0,0.0,0.0,0.0,0.0,0.0,0.0,0.0,0.0,0.0,0.0,0.0,0.0,0.0,0.0,0.0,0.0,0.0,0.0,0.0,0.0,0.0,0.0,0.0,0.0,0.0,0.0,0.0,0.0,0.0,0.0,0.0,0.0,0.0,0.0,0.0,0.0,0.0,0.0,0.0,0.0,0.0,0.0,0.0,0.0,0.0,0.0,0.0,0.0,0.0,0.0,0.0,0.0,0.0,0.0,0.0,0.0,0.0,0.0,0.0,0.0,0.0,0.0,0.0,0.0,0.0,0.0,0.0,0.0,0.0,0.0,0.0,0.0,0.0,0.0,0.0,0.0,0.0,0.0,0.0,0.0,0.0,0.0,0.0,0.0,0.0,0.0,0.0,0.0,0.0,0.0,0.0,0.0,0.0,0.0,0.0,0.0,-0.0079,-0.0157,-0.3057,-0.5014,-0.517,-0.8141,-1.0408,-1.1262,-1.1262,0.0,0.0,0.0,0.0,0.0,0.0,0.0,0.0,0.0,0.0,0.0,0.0,0.0,0.0,0.0,0.0,0.0,0.0,0.0,0.0,0.0,0.0,0.0,0.0,0.0,0.0,0.0,0.0,0.0,0.0,0.0,0.0,0.0,0.0,0.0,0.0,0.0,0.0,0.0,0.0,0.0,0.0,0.0,0.0,0.0,0.0,0.0,0.0,0.0,0.0,0.0,0.0,0.0,0.0,0.0,0.0,0.0,0.0,0.0,0.0,0.0,0.0,0.0,0.0,0.0,0.0,0.0,0.0,0.0,0.0,0.0,0.0,0.0,0.0,0.0,0.0,0.0,0.0,0.0,0.0,0.0,0.0,0.0,0.0,0.0,0.0,0.0,0.0,0.0,0.0,0.0,0.0,0.0,0.0,0.0,0.0,0.0,0.0,0.0,0.0,0.0,0.0,0.0,0.0,0.0,-0.2978,-0.5014,-0.5014,-0.8063,-1.0253,-1.0796,0.0,0.0,0.0,0.0,0.0,0.0,0.0,0.0,0.0,0.0,0.0,0.0,0.0,0.0,0.0,0.0,0.0,0.0,0.0,0.0,0.0,0.0,0.0,0.0,0.0,0.0,0.0,0.0,0.0,0.0,0.0,0.0,0.0,0.0,0.0,0.0,0.0,0.0,0.0,0.0,0.0,0.0,0.0,0.0,0.0,0.0,0.0,0.0,0.0,0.0,0.0,0.0,0.0,0.0,0.0,0.0,0.0,0.0,0.0,0.0,0.0,0.0,0.0,0.0,0.0,0.0,0.0,0.0,0.0,0.0,0.0,0.0,0.0,0.0,0.0,0.0,0.0,0.0,0.0,0.0,0.0,0.0,0.0,0.0,0.0,0.0,0.0,0.0,0.0,0.0,0.0,0.0,0.0,0.0,0.0,0.0,0.0,0.0,0.0,0.0,0.0,0.0,0.0,0.0,0.0,0.0,-0.2508,-0.4229,-0.4229,-0.7279,-0.9392,-0.9781,0.0,0.0,0.0,0.0,0.0,0.0,0.0,0.0,0.0,0.0,0.0,0.0,0.0,0.0,0.0,0.0,0.0,0.0,0.0,0.0,0.0,0.0,0.0,0.0,0.0,0.0,0.0,0.0,0.0,0.0,0.0,0.0,0.0,0.0,0.0,0.0,0.0,0.0,0.0,0.0,0.0,0.0,0.0,0.0,0.0,0.0,0.0,0.0,0.0,0.0,0.0,0.0,0.0,0.0,0.0,0.0,0.0,0.0,0.0,0.0,0.0,0.0,0.0,0.0,0.0,0.0,0.0,0.0,0.0,0.0,0.0,0.0,0.0,0.0,0.0,0.0,0.0,0.0,0.0,0.0,0.0,0.0,0.0,0.0,0.0,0.0,0.0,0.0,0.0,0.0,0.0,0.0,0.0,0.0,0.0,0.0,0.0,0.0,0.0,0.0,0.0,0.0,0.0,0.0,0.0,0.0,-0.149,-0.2507,-0.2507,-0.5558,-0.7669,0.0,0.0,0.0,0.0,0.0,0.0,0.0,0.0,0.0,0.0,0.0,0.0,0.0,0.0,0.0,0.0,0.0,0.0,0.0,0.0,0.0,0.0,0.0,0.0,0.0,0.0,0.0,0.0,0.0,0.0,0.0,0.0,0.0,0.0,0.0,0.0,0.0,0.0,0.0,0.0,0.0,0.0,0.0,0.0,0.0,0.0,0.0,0.0,0.0,0.0,0.0,0.0,0.0,0.0,0.0,0.0,0.0,0.0,0.0,0.0,0.0,0.0,0.0,0.0,0.0,0.0,0.0,0.0,0.0,0.0,0.0,0.0,0.0,0.0,0.0,0.0,0.0,0.0,0.0,0.0,0.0,0.0,0.0,0.0,0.0,0.0,0.0,0.0,0.0,0.0,0.0,0.0,0.0,0.0,0.0,0.0,0.0,0.0,0.0,0.0,0.0,0.0,0.0,0.0,0.0,0.0,0.0,-0.149,-0.2507,-0.2507,-0.4464,-0.6264,-0.7591,0.0,0.0,0.0,0.0,0.0,0.0,0.0,0.0,0.0,0.0,0.0,0.0,0.0,0.0,0.0,0.0,0.0,0.0,0.0,0.0,0.0,0.0,0.0,0.0,0.0,0.0,0.0,0.0,0.0,0.0,0.0,0.0,0.0,0.0,0.0,0.0,0.0,0.0,0.0,0.0,0.0,0.0,0.0,0.0,0.0,0.0,0.0,0.0,0.0,0.0,0.0,0.0,0.0,0.0,0.0,0.0,0.0,0.0,0.0,0.0,0.0,0.0,0.0,0.0,0.0,0.0,0.0,0.0,0.0,0.0,0.0,0.0,0.0,0.0,0.0,0.0,0.0,0.0,0.0,0.0,0.0,0.0,0.0,0.0,0.0,0.0,0.0,0.0,0.0,0.0,0.0,0.0,0.0,0.0,0.0,0.0,0.0,0.0,0.0,0.0,0.0,0.0,0.0,0.0,0.0,0.0,-0.0938,-0.1479,-0.1479,-0.3022,-0.4403,-0.5402,0.0,0.0,0.0,0.0,0.0,0.0,0.0,0.0,0.0,0.0,0.0,0.0,0.0,0.0,0.0,0.0,0.0,0.0,0.0,0.0,0.0,0.0,0.0,0.0,0.0,0.0,0.0,0.0,0.0,0.0,0.0,0.0,0.0,0.0,0.0,0.0,0.0,0.0,0.0,0.0,0.0,0.0,0.0,0.0,0.0,0.0,0.0,0.0,0.0,0.0,0.0,0.0,0.0,0.0,0.0,0.0,0.0,0.0,0.0,0.0,0.0,0.0,0.0,0.0,0.0,0.0,0.0,0.0,0.0,0.0,0.0,0.0,0.0,0.0,0.0,0.0,0.0,0.0,0.0,0.0,0.0,0.0,0.0,0.0,0.0,0.0,0.0,0.0,0.0,0.0,0.0,0.0,0.0,0.0,0.0,0.0,0.0,0.0,0.0,0.0,0.0,0.0,0.0,0.0,0.0,0.0,0.0,0.0,0.0,-0.1371,-0.2344,-0.2495,0.0,0.0,0.0,0.0,0.0,0.0,0.0,0.0,0.0,0.0,0.0,0.0,0.0,0.0,0.0,0.0,0.0,0.0,0.0,0.0,0.0,0.0,0.0,0.0,0.0,0.0,0.0,0.0,0.0,0.0,0.0,0.0,0.0,0.0,0.0,0.0,0.0,0.0,0.0,0.0,0.0,0.0,0.0,0.0,0.0,0.0,0.0,0.0,0.0,0.0,0.0,0.0,0.0,0.0,0.0,0.0,0.0,0.0,0.0,0.0,0.0,0.0,0.0,0.0,0.0,0.0,0.0,0.0,0.0,0.0,0.0,0.0,0.0,0.0,0.0,0.0,0.0,0.0,0.0,0.0,0.0,0.0,0.0,0.0,0.0,0.0,0.0,0.0,0.0,0.0,0.0,0.0,0.0,0.0,0.0,0.0,0.0,0.0,0.0,0.0,0.0,0.0,0.0,0.0,0.0,0.0,0.0,0.0,0.0,-0.0303,-0.106,-0.242,-0.3176,0.0,0.0,0.0,0.0,0.0,0.0,0.0,0.0,0.0,0.0,0.0,0.0,0.0,0.0,0.0,0.0,0.0,0.0,0.0,0.0,0.0,0.0,0.0,0.0,0.0,0.0,0.0,0.0,0.0,0.0,0.0,0.0,0.0,0.0,0.0,0.0,0.0,0.0,0.0,0.0,0.0,0.0,0.0,0.0,0.0,0.0,0.0,0.0,0.0,0.0,0.0,0.0,0.0,0.0,0.0,0.0,0.0,0.0,0.0,0.0,0.0,0.0,0.0,0.0,0.0,0.0,0.0,0.0,0.0,0.0,0.0,0.0,0.0,0.0,0.0,0.0,0.0,0.0,0.0,0.0,0.0,0.0,0.0,0.0,0.0,0.0,0.0,0.0,0.0,0.0,0.0,0.0,0.0,0.0,0.0,0.0,0.0,0.0,0.0,0.0,0.0,0.0,0.0,0.0,0.0,0.0,0.0,0.0,0.0,-0.0372,-0.1264,-0.2006,0.0,0.0,0.0,0.0,0.0,0.0,0.0,0.0,0.0,0.0,0.0,0.0,0.0,0.0,0.0,0.0,0.0,0.0,0.0,0.0,0.0,0.0,0.0,0.0,0.0,0.0,0.0,0.0,0.0,0.0,0.0,0.0,0.0,0.0,0.0,0.0,0.0,0.0,0.0,0.0,0.0,0.0,0.0,0.0,0.0,0.0,0.0,0.0,0.0,0.0,0.0,0.0,0.0,0.376,0.282,0.2429,0.1098,0.0314,0.0,0.0,0.0,0.0,0.0,0.0,0.0,0.0,0.0,0.0,0.0,0.0,0.0,0.0,0.0,0.0,0.0,0.0,0.0,0.0,0.0,0.0,0.0,0.0,0.0,0.0,0.0,0.0,0.0,0.0,0.0,0.0,0.0,0.0,0.0,0.0,0.0,0.0,0.0,0.0,0.0,0.0,0.0,0.0,0.0,0.0,0.0,0.0,0.0,0.0,0.0,0.0,0.0,-0.1166,-0.1893,0.0,0.0,0.0,0.0,0.0,0.0,0.0,0.0,0.0,0.0,0.0,0.0,0.0,0.0,0.0,0.0,0.0,0.0,0.0,0.0,0.0,0.0,0.0,0.0,0.0,0.0,0.0,0.0,0.0,0.0,0.0,0.0,1.2501,1.2501,0.0,0.0,0.0,0.0,0.0,0.0,0.0,0.0,0.0,0.0,0.0,0.0,0.0,1.0635,1.0558,0.8682,0.7743,0.7665,0.5636,0.3916,0.2507,0.2273,0.1412,0.0,0.0,0.0,0.0,0.0,0.0,0.0,0.0,0.0,0.0,0.0,0.0,0.0,0.0,0.0,0.0,0.0,0.0,0.0,0.0,0.0,0.0,0.0,0.0,0.0,0.0,0.0,0.0,0.0,0.0,0.0,0.0,0.0,0.0,0.0,0.0,0.0,0.0,0.0,0.0,0.0,0.0,0.0,0.0,0.0,0.0,0.0,0.0,0.0,0.0,0.0,0.0,0.0,-0.0219,-0.0292,-0.0292,-0.0292,0.0,0.0,0.0,0.0,0.0,0.0,0.0,0.0,0.0,0.0,0.0,0.0,0.0,0.0,0.0,0.0,0.0,0.0,0.0,0.0,0.0,0.0,0.0,0.0,0.0,0.0,0.0,0.0,0.0,1.2501,1.2501,1.2501,1.2501,1.2501,0.0,0.0,0.0,0.0,0.0,0.0,0.0,0.0,0.0,1.196,1.196,1.1882,1.165,1.0707,1.0008,0.9464,0.7591,0.6261,0.5245,0.3368,0.2117,0.1334,0.0392,0.0,0.0,0.0,0.0,0.0,0.0,0.0,0.0,0.0,0.0,0.0,0.0,0.0,0.0,0.0,0.0,0.0,0.0,0.0,0.0,0.0,0.0,0.0,0.0,0.0,0.0,0.0,0.0,0.0,0.0,0.0,0.0,0.0,0.0,0.0,0.0,0.0,0.0,0.0,0.0,0.0,0.0,0.0,0.0,0.0,0.0,0.0,0.0,0.0,0.0,0.0,0.0,0.0,0.0,0.0,0.0,0.0,0.0,0.0,0.0,0.0,0.0,0.0,0.0,0.0,0.0,0.0,0.0,0.0,0.0,0.0,0.0,0.0,0.0,0.0,0.0,0.0,0.0,0.0,0.0,0.0,0.0,0.0,0.0,1.2501,1.2501,1.2501,1.2501,1.2501,0.0,0.0,0.0,0.0,0.0,0.0,1.2501,1.2501,1.2501,1.2501,1.2501,1.2347,1.2037,1.196,1.1572,1.0952,0.9542,0.8448,0.7591,0.5086,0.3447,0.2429,0.1177,0.0392,0.0,0.0,0.0,0.0,0.0,0.0,0.0,0.0,0.0,0.0,0.0,0.0,0.0,0.0,0.0,0.0,0.0,0.0,0.0,0.0,0.0,0.0,0.0,0.0,0.0,0.0,0.0,0.0,0.0,0.0,0.0,0.0,0.0,0.0,0.0,0.0,0.0,0.0,0.0,0.0,0.0,0.0,0.0,0.0,0.0,0.0,0.0,0.0,0.0,0.0,0.0,0.0,0.0,0.0,0.0,0.0,0.0,0.0,0.0,0.0,0.0,0.0,0.0,0.0,0.0,0.0,0.0,0.0,0.0,0.0,0.0,0.0,0.0,0.0,0.0,0.0,0.0,0.0,0.0,0.0,0.0,0.0,0.0,0.0,0.0,1.2501,1.2501,0.0,0.0,0.0,0.0,1.2501,1.2501,1.2501,1.2501,1.2501,1.2501,1.2501,1.2501,1.2501,1.2501,1.2114,1.1882,1.1805,1.134,1.0086,0.8059,0.7898,0.5867,0.2507,0.2429,0.149,0.0,0.0,0.0,0.0,0.0,0.0,0.0,0.0,0.0,0.0,0.0,0.0,0.0,0.0,0.0,0.0,0.0,0.0,0.0,0.0,0.0,0.0,0.0,0.0,0.0,0.0,0.0,0.0,0.0,0.0,0.0,0.0,0.0,0.0,0.0,0.0,0.0,0.0,0.0,0.0,0.0,0.0,0.0,0.0,0.0,0.0,0.0,0.0,0.0,0.0,0.0,0.0,0.0,0.0,0.0,0.0,0.0,0.0,0.0,0.0,0.0,0.0,0.0,0.0,0.0,0.0,0.0,0.0,0.0,0.0,0.0,0.0,0.0,0.0,0.0,0.0,0.0,0.0,0.0,0.0,0.0,0.0,0.0,0.0,0.0,1.2501,1.2501,0.0,1.2501,1.2501,1.2501,1.2501,1.2501,1.2501,1.2501,1.2501,1.2501,1.2501,1.2501,1.2501,1.2501,1.2347,1.2192,1.1882,1.1727,1.1023,0.9698,0.8604,0.7197,0.5636,0.3447,0.2195,0.149,0.0471,0.0,0.0,0.0,0.0,0.0,0.0,0.0,0.0,0.0,0.0,0.0,0.0,0.0,0.0,0.0,0.0,0.0,0.0,0.0,0.0,0.0,0.0,0.0,0.0,0.0,0.0,0.0,0.0,0.0,0.0,0.0,0.0,0.0,0.0,0.0,0.0,0.0,0.0,0.0,0.0,0.0,0.0,0.0,0.0,0.0,0.0,0.0,0.0,0.0,0.0,0.0,0.0,0.0,0.0,0.0,0.0,0.0,0.0,0.0,0.0,0.0,0.0,0.0,0.0,0.0,0.0,0.0,0.0,0.0,0.0,0.0,0.0,0.0,0.0,0.0,0.0,0.0,0.0,0.0,0.0,0.0,1.2501,1.2501,1.2501,1.2501,1.2501,1.2501,1.2501,1.2501,1.2501,1.2501,1.2501,1.2501,1.2501,1.2501,1.2501,1.2501,1.2501,1.2501,1.2501,1.2347,1.2114,1.2114,1.1727,1.0952,0.9148,0.8136,0.7513,0.3992,0.2507,0.235,0.0706,0.0,0.0,0.0,0.0,0.0,0.0,0.0,0.0,0.0,0.0,0.0,0.0,0.0,0.0,0.0,0.0,0.0,0.0,0.0,0.0,0.0,0.0,0.0,0.0,0.0,0.0,0.0,0.0,0.0,0.0,0.0,0.0,0.0,0.0,0.0,0.0,0.0,0.0,0.0,0.0,0.0,0.0,0.0,0.0,0.0,0.0,0.0,0.0,0.0,0.0,0.0,0.0,0.0,0.0,0.0,0.0,0.0,0.0,0.0,0.0,0.0,0.0,0.0,0.0,0.0,0.0,0.0,0.0,0.0,0.0,0.0,0.0,0.0,0.0,0.0,0.0,0.0,0.0,0.0,0.0,1.2501,1.2501,1.2501,1.2501,1.2501,1.2501,1.2501,1.2501,1.2501,1.2501,1.2501,1.2501,1.2501,1.2501,1.2501,1.2501,1.2501,1.2501,1.2501,1.2501,1.2501,1.2501,1.2501,1.2269,1.1805,0.977,0.8599,0.7898,0.4149,0.2585,0.235,0.0706,0.0,0.0,0.0,0.0,0.0,0.0,0.0,0.0,0.0,0.0,0.0,0.0,0.0,0.0,0.0,0.0,0.0,0.0,0.0,0.0,0.0,0.0,0.0,0.0,0.0,0.0,0.0,0.0,0.0,0.0,0.0,0.0,0.0,0.0,0.0,0.0,0.0,0.0,0.0,0.0,0.0,0.0,0.0,0.0,0.0,0.0,0.0,0.0,0.0,0.0,0.0,0.0,0.0,0.0,0.0,0.0,0.0,0.0,0.0,0.0,0.0,0.0,0.0,0.0,0.0,0.0,0.0,0.0,0.0,0.0,0.0,0.0,0.0,0.0,0.0,0.0,0.0,0.0,1.2501,1.2501,1.2501,1.2501,1.2501,1.2501,1.2501,1.2501,1.2501,1.2501,1.2501,1.2501,1.2501,1.2501,1.2501,1.2501,1.2501,1.2501,1.2501,1.2501,1.2501,1.2501,1.2501,1.2501,1.2192,1.2037,1.1882,1.0635,0.9387,0.7976,0.5402,0.3603,0.235,0.0706,0.0,0.0,0.0,0.0,0.0,0.0,0.0,0.0,0.0,0.0,0.0,0.0,0.0,0.0,0.0,0.0,0.0,0.0,0.0,0.0,0.0,0.0,0.0,0.0,0.0,0.0,0.0,0.0,0.0,0.0,0.0,0.0,0.0,0.0,0.0,0.0,0.0,0.0,0.0,0.0,0.0,0.0,0.0,0.0,0.0,0.0,0.0,0.0,0.0,0.0,0.0,0.0,0.0,0.0,0.0,0.0,0.0,0.0,0.0,0.0,0.0,0.0,0.0,0.0,0.0,0.0,0.0,0.0,0.0,0.0,0.0,0.0,0.0,0.0,0.0,0.0,0.0,0.0,1.2501,1.2501,1.2501,1.2501,1.2501,1.2501,1.2501,1.2501,1.2501,1.2501,1.2501,1.2501,1.2501,1.2501,1.2501,1.2501,1.2501,1.2501,1.2501,1.2501,1.2501,1.2501,1.2501,1.2501,1.2269,1.2114,1.2114,1.0713,0.9459,0.821,0.5399,0.3525,0.235,0.0706,0.0,0.0,0.0,0.0,0.0,0.0,0.0,0.0,0.0,0.0,0.0,0.0,0.0,0.0,0.0,0.0,0.0,0.0,0.0,0.0,0.0,0.0,0.0,0.0,0.0,0.0,0.0,0.0,0.0,0.0,0.0,0.0,0.0,0.0,0.0,0.0,0.0,0.0,0.0,0.0,0.0,0.0,0.0,0.0,0.0,0.0,0.0,0.0,0.0,0.0,0.0,0.0,0.0,0.0,0.0,0.0,0.0,0.0,0.0,0.0,0.0,0.0,0.0,0.0,0.0,0.0,0.0,0.0,0.0,0.0,0.0,0.0,0.0,0.0,0.0,0.0,0.0,0.0,1.2501,1.2501,1.2501,1.2501,1.2501,1.2501,1.2501,1.2501,1.2501,1.2501,1.2501,1.2501,1.2501,1.2501,1.2501,1.2501,0.0,0.0,0.0,1.2501,1.2501,1.2501,1.2501,1.2501,1.2424,1.2424,1.2424,1.0469,0.9221,0.8366,0.4849,0.2975,0.2117,0.0628,0.0,0.0,0.0,0.0,0.0,0.0,0.0,0.0,0.0,0.0,0.0,0.0,0.0,0.0,0.0,0.0,0.0,0.0,0.0,0.0,0.0,0.0,0.0,0.0,0.0,0.0,0.0,0.0,0.0,0.0,0.0,0.0,0.0,0.0,0.0,0.0,0.0,0.0,0.0,0.0,0.0,0.0,0.0,0.0,0.0,0.0,0.0,0.0,0.0,0.0,0.0,0.0,0.0,0.0,0.0,0.0,0.0,0.0,0.0,0.0,0.0,0.0,0.0,0.0,0.0,0.0,0.0,0.0,0.0,0.0,0.0,0.0,0.0,0.0,0.0,0.0,0.0,1.2501,1.2501,1.2501,1.2501,1.2501,1.2501,1.2501,1.2501,1.2501,1.2501,1.2501,1.2501,1.2501,1.2501,1.2501,1.2501,1.2501,1.2501,1.2501,1.2501,1.2501,1.2501,1.2501,1.2501,1.2501,1.2192,0.0,1.2424,1.1411,0.9382,0.6725,0.5633,0.3368,0.0471,0.0157,0.0,0.0,0.0,0.0,0.0,0.0,0.0,0.0,0.0,0.0,0.0,0.0,0.0,0.0,0.0,0.0,0.0,0.0,0.0,0.0,0.0,0.0,0.0,0.0,0.0,0.0,0.0,0.0,0.0,0.0,0.0,0.0,0.0,0.0,0.0,0.0,0.0,0.0,0.0,0.0,0.0,0.0,0.0,0.0,0.0,0.0,0.0,0.0,0.0,0.0,0.0,0.0,0.0,0.0,0.0,0.0,0.0,0.0,0.0,0.0,0.0,0.0,0.0,0.0,0.0,0.0,0.0,0.0,0.0,0.0,0.0,0.0,0.0,1.2501,1.2501,0.0,1.2501,1.2501,1.2501,1.2501,1.2501,1.2501,1.2501,1.2501,1.2501,1.2501,1.2501,1.2501,1.2501,1.2501,1.2501,1.2501,1.2501,1.2501,1.2501,1.2501,1.2501,1.2501,1.2501,1.2501,1.2501,1.2501,1.2269,1.2347,1.2501,1.2114,1.0391,0.7816,0.6492,0.4305,0.149,0.0392,0.0,0.0,0.0,0.0,0.0,0.0,0.0,0.0,0.0,0.0,0.0,0.0,0.0,0.0,0.0,0.0,0.0,0.0,0.0,0.0,0.0,0.0,0.0,0.0,0.0,0.0,0.0,0.0,0.0,0.0,0.0,0.0,0.0,0.0,0.0,0.0,0.0,0.0,0.0,0.0,0.0,0.0,0.0,0.0,0.0,0.0,0.0,0.0,0.0,0.0,0.0,0.0,0.0,0.0,0.0,0.0,0.0,0.0,0.0,0.0,0.0,0.0,0.0,0.0,0.0,0.0,0.0,0.0,0.0,1.2501,1.2501,1.2501,1.2501,1.2501,1.2501,1.2501,1.2501,1.2501,1.2501,1.2501,1.2501,1.2501,1.2501,1.2501,1.2501,1.2501,1.2501,1.2501,1.2501,1.2501,1.2501,1.2501,1.2501,1.2501,1.2501,1.2501,1.2501,1.2501,1.2501,1.2501,1.2501,1.2501,1.2501,1.2501,1.2501,1.2501,1.1405,0.9294,0.68,0.4537,0.2506,0.0706,0.0,0.0,0.0,0.0,0.0,0.0,0.0,0.0,0.0,0.0,0.0,0.0,0.0,0.0,0.0,0.0,0.0,0.0,0.0,0.0,0.0,0.0,0.0,0.0,0.0,0.0,0.0,0.0,0.0,0.0,0.0,0.0,0.0,0.0,0.0,0.0,0.0,0.0,0.0,0.0,0.0,0.0,0.0,0.0,0.0,0.0,0.0,0.0,0.0,0.0,0.0,0.0,0.0,0.0,0.0,0.0,0.0,0.0,0.0,0.0,0.0,0.0,0.4388,0.6186,0.7513,0.7747,0.8915,1.0474,0.0,1.2501,1.2501,1.2501,1.2501,1.2501,1.2501,1.2501,1.2501,1.2501,1.2501,1.2501,1.2501,1.2501,1.2501,1.2501,1.2501,1.2501,1.2501,1.2501,1.2501,1.2501,1.2501,1.2501,1.2501,1.2501,1.2501,1.2501,1.2501,1.2501,1.2501,1.2501,1.2501,1.2501,1.2501,1.2501,1.2501,1.2501,1.1405,0.9138,0.5159,0.2507,0.0864,0.0236,0.0,0.0,0.0,0.0,0.0,0.0,0.0,0.0,0.0,0.0,0.0,0.0,0.0,0.0,0.0,0.0,0.0,0.0,0.0,0.0,0.0,0.0,0.0,0.0,0.0,0.0,0.0,0.0,0.0,0.0,0.0,0.0,0.0,0.0,0.0,0.0,0.0,0.0,0.0,0.0,0.0,0.0,0.0,0.0,0.0,0.0,0.0,0.0,0.0,0.0,0.0,0.0,0.0,0.0,0.0,0.0,0.0,0.0,0.0,0.0,0.0,0.0,0.3139,0.4079,0.486,0.5796,0.7279,0.8993,1.063,1.1798,1.2501,1.2501,1.2501,1.2501,1.2501,1.2501,1.2501,1.2501,1.2501,1.2501,1.2501,1.2501,1.2501,1.2501,1.2501,1.2501,1.2501,1.2501,1.2501,1.2501,1.2501,1.2501,1.2501,1.2501,1.2501,1.2501,1.2501,1.2501,1.2501,1.2501,1.2501,1.2501,1.2501,1.2501,1.2501,1.2501,1.0856,0.7816,0.5864,0.3288,0.055,0.0157,0.0,0.0,0.0,0.0,0.0,0.0,0.0,0.0,0.0,0.0,0.0,0.0,0.0,0.0,0.0,0.0,0.0,0.0,0.0,0.0,0.0,0.0,0.0,0.0,0.0,0.0,0.0,0.0,0.0,0.0,0.0,0.0,0.0,0.0,0.0,0.0,0.0,0.0,0.0,0.0,0.0,0.0,0.0,0.0,0.0,0.0,0.0,0.0,0.0,0.0,0.0,0.0,0.0,0.0,0.0,0.0,0.0,0.0,0.0,0.0,0.0,0.0,0.2357,0.2514,0.2905,0.4547,0.5952,0.7357,0.9537,1.0552,1.1411,1.2347,1.2108,1.1953,1.2424,1.2501,1.2501,1.2501,1.2501,1.2501,1.2501,1.2501,1.2501,1.2501,1.2501,1.2501,1.2501,1.2501,1.2501,1.2501,1.2501,1.2501,1.2501,1.2501,1.2501,1.2501,1.2501,1.2501,1.2501,1.2501,1.2501,1.2501,1.2501,1.2501,1.2501,1.2501,1.0785,0.7743,0.6803,0.4539,0.1413,0.055,0.0079,0.0,0.0,0.0,0.0,0.0,0.0,0.0,0.0,0.0,0.0,0.0,0.0,0.0,0.0,0.0,0.0,0.0,0.0,0.0,0.0,0.0,0.0,0.0,0.0,0.0,0.0,0.0,0.0,0.0,0.0,0.0,0.0,0.0,0.0,0.0,0.0,0.0,0.0,0.0,0.0,0.0,0.0,0.0,0.0,0.0,0.0,0.0,0.0,0.0,0.0,0.0,0.0,0.0,0.0,0.0,0.0,0.0,0.0,0.0,0.0,0.0062,0.2514,0.2514,0.2905,0.4547,0.5014,0.5952,0.9226,0.8759,0.8604,1.1798,1.1178,1.0552,1.2192,1.2501,1.2501,1.2501,1.2501,1.2501,1.2501,1.2501,1.2501,1.2501,1.2501,1.2501,1.2501,1.2501,1.2501,1.2501,1.2501,1.2501,1.2501,1.2501,1.2501,1.2501,1.2501,1.2501,1.2501,1.2501,1.2501,1.2501,1.2501,1.2501,1.2501,1.2501,1.1566,0.977,0.7743,0.5633,0.3523,0.1413,0.0314,0.0,0.0,0.0,0.0,0.0,0.0,0.0,0.0,0.0,0.0,0.0,0.0,0.0,0.0,0.0,0.0,0.0,0.0,0.0,0.0,0.0,0.0,0.0,0.0,0.0,0.0,0.0,0.0,0.0,0.0,0.0,0.0,0.0,0.0,0.0,0.0,0.0,0.0,0.0,0.0,0.0,0.0,0.0,0.0,0.0,0.0,0.0,0.0,0.0,0.0,0.0,0.0,0.0,0.0,0.0,0.0,0.0,0.0,0.0,0.0,0.0185,0.2514,0.2514,0.2671,0.3219,0.4155,0.5327,0.6417,0.7123,0.7825,0.8915,0.962,1.0164,1.0707,1.1721,1.2501,1.2501,1.2501,1.2501,1.2501,1.2501,1.2501,1.2501,1.2501,1.2501,1.2501,1.2501,1.2501,1.2501,1.2501,1.2501,1.2501,1.2501,1.2501,1.2501,1.2501,1.2501,1.2501,1.2501,1.2501,1.2501,1.2501,1.2501,1.2501,1.2501,1.1566,0.9848,0.7821,0.5711,0.3601,0.1491,0.0393,0.0,0.0,0.0,0.0,0.0,0.0,0.0,0.0,0.0,0.0,0.0,0.0,0.0,0.0,0.0,0.0,0.0,0.0,0.0,0.0,0.0,0.0,0.0,0.0,0.0,0.0,0.0,0.0,0.0,0.0,0.0,0.0,0.0,0.0,0.0,0.0,0.0,0.0,0.0,0.0,0.0,0.0,0.0,0.0,0.0,0.0,0.0,0.0,0.0,0.0,0.0,0.0,0.0,0.0,0.0124,0.0309,0.0309,0.0309,0.0309,0.0556,0.0617,0.2278,0.2278,0.2357,0.2435,0.3297,0.4234,0.4857,0.5405,0.6033,0.7279,0.837,0.9304,0.9925,1.1333,1.2501,1.2501,1.2501,1.2501,1.2501,1.2501,1.2501,1.2501,1.2501,1.2501,1.2501,1.2501,1.2501,1.2501,1.2501,1.2501,1.2501,1.2501,1.2501,1.2501,1.2501,1.2501,1.2501,1.2501,1.2501,1.2501,1.2501,1.2501,1.2501,1.2501,1.1876,1.0785,0.8837,0.6803,0.4774,0.2743,0.1256,0.0236,0.0236,0.0155,0.0,0.0,0.0,0.0,0.0,0.0,0.0,0.0,0.0,0.0,0.0,0.0,0.0,0.0,0.0,0.0,0.0,0.0,0.0,0.0,0.0,0.0,0.0,0.0,0.0,0.0,0.0,0.0,0.0,0.0,0.0,0.0,0.0,0.0,0.0,0.0,0.0,0.0,0.0,0.0,0.0,0.0,0.0,0.0,0.0,0.0,0.0,0.0,0.0,0.0,0.0,0.0185,0.0494,0.0494,0.0556,0.0679,0.0926,0.0926,0.1807,0.1886,0.1964,0.2435,0.2514,0.2905,0.4469,0.3609,0.3376,0.6577,0.7279,0.7903,0.9537,1.125,1.2424,1.2501,1.2501,1.2501,1.2501,1.2501,1.2501,1.2501,1.2501,1.2501,1.2501,1.2501,1.2501,1.2501,1.2501,1.2501,1.2501,1.2501,1.2501,1.2501,1.2501,1.2501,1.2501,1.2501,1.2501,1.2501,1.2501,1.2501,1.2501,1.2501,1.2501,1.2424,1.0707,0.8837,0.6885,0.5089,0.2978,0.0785,0.0628,0.0387,0.0,0.0,0.0,0.0,0.0,0.0,0.0,0.0,0.0,0.0,0.0,0.0,0.0,0.0,0.0,0.0,0.0,0.0,0.0,0.0,0.0,0.0,0.0,0.0,0.0,0.0,0.0,0.0,0.0,0.0,0.0,0.0,0.0,0.0,0.0,0.0,0.0,0.0,0.0,0.0,0.0,0.0,0.0,0.0,0.0,0.0,0.0,0.0,0.0,0.0,0.0,0.0185,0.0494,0.0494,0.0679,0.0988,0.105,0.1235,0.1807,0.1886,0.1964,0.2435,0.2278,0.2278,0.2983,0.2591,0.2357,0.3532,0.4782,0.6186,0.7825,0.9537,1.1017,1.2269,1.2501,1.2501,1.2501,1.2501,1.2501,1.2501,1.2501,1.2501,1.2501,1.2501,1.2501,1.2501,1.2501,1.2501,1.2501,1.2501,1.2501,1.2501,1.2501,1.2501,1.2501,1.2501,1.2501,1.2501,1.2501,1.2501,1.2501,1.2501,1.2501,1.2424,1.0707,0.9537,0.8517,0.5633,0.3838,0.2819,0.1243,0.0537,0.0378,0.0075,0.0,0.0,0.0,0.0,0.0,0.0,0.0,0.0,0.0,0.0,0.0,0.0,0.0,0.0,0.0,0.0,0.0,0.0,0.0,0.0,0.0,0.0,0.0,0.0,0.0,0.0,0.0,0.0,0.0,0.0,0.0,0.0,0.0,0.0,0.0,0.0,0.0,0.0,0.0,0.0,0.0,0.0,0.0,0.0,0.0,0.0,0.0,0.0,0.0,0.0185,0.0494,0.0741,0.0926,0.0988,0.1482,0.1668,0.1256,0.1336,0.1414,0.1886,0.1807,0.1728,0.2121,0.2043,0.2043,0.2435,0.3844,0.5248,0.6264,0.837,1.0319,1.1256,1.203,1.2501,1.2501,1.2501,1.2501,1.2501,1.2501,1.2501,1.2501,1.2501,1.2501,1.2501,1.2501,1.2501,1.2501,1.2501,1.2501,1.2501,1.2501,1.2501,1.2501,1.2501,1.2501,1.2501,1.2501,1.2501,1.2501,1.2501,1.2501,1.2424,1.1488,1.0552,0.9532,0.7661,0.5789,0.391,0.2706,0.153,0.0605,0.0374,0.0148,0.0,0.0,0.0,0.0,0.0,0.0,0.0,0.0,0.0,0.0,0.0,0.0,0.0,0.0,0.0,0.0,0.0,0.0,0.0,0.0,0.0,0.0,0.0,0.0,0.0,0.0,0.0,0.0,0.0,0.0,0.0,0.0,0.0,0.0,0.0,0.0,0.0,0.0,0.0,0.0,0.0,0.0,0.0,0.0,0.0,0.0,0.0,0.0,0.0247,0.0741,0.0926,0.1173,0.142,0.1853,0.1915,0.0471,0.0628,0.0707,0.1178,0.1256,0.1336,0.1807,0.1886,0.1964,0.2435,0.3687,0.4701,0.4936,0.7353,0.9382,0.9615,1.1095,1.2192,1.2192,1.2347,1.2501,1.2501,1.2501,1.2501,1.2501,1.2501,1.2501,1.2501,1.2501,1.2501,1.2501,1.2501,1.2501,1.2501,1.2501,1.2501,1.2501,1.2501,1.2501,1.2501,1.2501,1.2501,1.2501,1.2501,1.2501,1.2501,1.2501,1.1643,1.0319,1.0086,0.8054,0.5081,0.455,0.305,0.1284,0.0746,0.0442,0.0292,0.0073,0.0,0.0,0.0,0.0,0.0,0.0,0.0,0.0,0.0,0.0,0.0,0.0,0.0,0.0,0.0,0.0,0.0,0.0,0.0,0.0,0.0,0.0,0.0,0.0,0.0,0.0,0.0,0.0,0.0,0.0,0.0,0.0,0.0,0.0,0.0,0.0,0.0,0.0,0.0,0.0,0.0,0.0,0.0,0.0,0.0,0.0,0.0309,0.0926,0.0988,0.1296,0.1915,0.1977,0.1977,0.0471,0.0628,0.0707,0.1178,0.1021,0.0942,0.1728,0.165,0.165,0.2357,0.2749,0.3376,0.4779,0.5483,0.6342,0.7669,0.9304,1.0397,1.0397,1.1643,1.2501,1.2501,1.2501,1.2501,1.2501,1.2501,1.2501,1.2501,1.2501,1.2501,1.2501,1.2501,1.2501,1.2501,1.2501,1.2501,1.2501,1.2501,1.2501,1.2501,1.2501,1.2501,1.2501,1.2501,1.2501,1.2501,1.2501,1.2347,1.1953,1.0552,0.9615,0.8736,0.5501,0.4615,0.4742,0.1696,0.1168,0.1748,0.0438,0.0,0.0,0.0,0.0,0.0,0.0,0.0,0.0,0.0,0.0,0.0,0.0,0.0,0.0,0.0,0.0,0.0,0.0,0.0,0.0,0.0,0.0,0.0,0.0,0.0,0.0,0.0,0.0,0.0,0.0,0.0,0.0,0.0,0.0,0.0,0.0,0.0,0.0,0.0,0.0,0.0,0.0,0.0,0.0,0.0,0.0,0.0185,0.0617,0.0864,0.1173,0.1606,0.1853,0.1977,0.0236,0.0314,0.0314,0.055,0.0471,0.055,0.1414,0.1414,0.1493,0.2357,0.2514,0.2749,0.3531,0.439,0.5248,0.603,0.7591,0.8993,0.9848,1.0707,1.1488,1.2424,1.2501,1.2501,1.2501,1.2501,1.2501,1.2501,1.2501,1.2501,1.2501,1.2501,1.2501,1.2501,1.2501,1.2501,1.2501,1.2501,1.2501,1.2501,1.2501,1.2501,1.2501,1.2501,1.2501,1.2501,1.2501,1.2501,1.2424,1.1643,1.0744,0.9664,0.699,0.6087,0.5813,0.2201,0.1603,0.2328,0.0583,0.0,0.0,0.0,0.0,0.0,0.0,0.0,0.0,0.0,0.0,0.0,0.0,0.0,0.0,0.0,0.0,0.0,0.0,0.0,0.0,0.0,0.0,0.0,0.0,0.0,0.0,0.0,0.0,0.0,0.0,0.0,0.0,0.0,0.0,0.0,0.0,0.0,0.0,0.0,0.0,0.0,0.0,0.0,0.0,0.0,0.0,0.0247,0.0741,0.0926,0.1235,0.1791,0.1915,0.1977,0.0,0.0,0.0,0.0,0.0,0.0236,0.1099,0.1336,0.1493,0.2357,0.2514,0.2514,0.2514,0.3609,0.4469,0.4469,0.5874,0.7435,0.8759,0.9226,0.9931,1.1256,1.1721,1.1953,1.1953,1.2269,1.2501,1.2501,1.2501,1.2501,1.2501,1.2501,1.2501,1.2501,1.2501,1.2501,1.2501,1.2501,1.2501,1.2501,1.2501,1.2501,1.2501,1.2501,1.2501,1.2501,1.2501,1.2501,1.2501,1.2501,1.1638,1.0193,0.8559,0.7704,0.7015,0.3583,0.2839,0.3272,0.1384,0.0511,0.0146,0.0144,0.0071,0.0,0.0,0.0,0.0,0.0,0.0,0.0,0.0,0.0,0.0,0.0,0.0,0.0,0.0,0.0,0.0,0.0,0.0,0.0,0.0,0.0,0.0,0.0,0.0,0.0,0.0,0.0,0.0,0.0,0.0,0.0,0.0,0.0,0.0,0.0,0.0,0.0,0.0,0.0,0.0,0.0,0.0062,0.0432,0.0988,0.105,0.142,0.1977,0.1977,0.1977,0.0,0.0,0.0,0.0,0.0,0.0236,0.1099,0.1336,0.1493,0.2357,0.2514,0.2514,0.2514,0.2592,0.2749,0.2749,0.4155,0.5248,0.5405,0.6733,0.7747,0.7903,0.9304,1.0241,1.0241,1.1643,1.2501,1.2501,1.2501,1.2501,1.2501,1.2501,1.2501,1.2501,1.2501,1.2501,1.2501,1.2501,1.2501,1.2501,1.2501,1.2501,1.2501,1.2501,1.2501,1.2501,1.2501,1.2501,1.2501,1.2501,1.2336,1.1891,1.0144,1.0019,1.0413,0.7152,0.5742,0.5307,0.371,0.204,0.051,0.0575,0.0284,0.0,0.0,0.0,0.0,0.0,0.0,0.0,0.0,0.0,0.0,0.0,0.0,0.0,0.0,0.0,0.0,0.0,0.0,0.0,0.0,0.0,0.0,0.0,0.0,0.0,0.0,0.0,0.0,0.0,0.0,0.0,0.0,0.0,0.0,0.0,0.0,0.0,0.0,0.0,0.0,0.0,0.0309,0.0617,0.0988,0.1296,0.1668,0.1977,0.1977,0.1977,0.0,0.0,0.0,0.0,0.0,0.0236,0.1099,0.1336,0.1493,0.2357,0.2514,0.2514,0.2514,0.2514,0.2514,0.2514,0.3062,0.3844,0.4857,0.5561,0.6733,0.8759,0.9615,1.0397,1.1411,1.2114,1.2501,1.2501,1.2501,1.2501,1.2501,1.2501,1.2501,1.2501,1.2501,1.2501,1.2501,1.2501,1.2501,1.2501,1.2501,1.2501,1.2501,1.2501,1.2501,1.2501,1.2501,1.2501,1.2494,1.2413,1.2284,1.1985,1.0259,1.0357,1.1042,0.7638,0.6898,0.7187,0.4434,0.2823,0.1795,0.0923,0.049,0.0277,0.0069,0.0,0.0,0.0,0.0,0.0,0.0,0.0,0.0,0.0,0.0,0.0,0.0,0.0,0.0,0.0,0.0,0.0,0.0,0.0,0.0,0.0,0.0,0.0,0.0,0.0,0.0,0.0,0.0,0.0,0.0,0.0,0.0,0.0,0.0,0.0,0.0,0.0,0.0,0.0,0.0309,0.0679,0.0988,0.1358,0.1668,0.1977,0.1977,0.1977,0.0,0.0,0.0,0.0,0.0,0.0157,0.0942,0.1178,0.1493,0.22,0.2435,0.2514,0.2514,0.2514,0.2514,0.2514,0.2514,0.2905,0.4077,0.4234,0.517,0.7509,0.8682,0.9692,1.094,1.1953,1.2501,1.2501,1.2501,1.2501,1.2501,1.2501,1.2501,1.2501,1.2501,1.2501,1.2501,1.2501,1.2501,1.2501,1.2501,1.2501,1.2501,1.2501,1.2501,1.2501,1.2501,1.2501,1.2488,1.2345,1.2203,1.1972,1.0706,1.079,1.1325,0.8858,0.8348,0.8559,0.6098,0.461,0.3627,0.211,0.1458,0.1167,0.0547,0.0271,0.0135,0.0,0.0,0.0,0.0,0.0,0.0,0.0,0.0,0.0,0.0,0.0,0.0,0.0,0.0,0.0,0.0,0.0,0.0,0.0,0.0,0.0,0.0,0.0,0.0,0.0,0.0,0.0,0.0,0.0,0.0,0.0,0.0,0.0,0.0,0.0,0.0,0.0,0.0432,0.0741,0.0988,0.142,0.1791,0.1977,0.1977,0.1977,0.0,0.0,0.0,0.0,0.0,0.0079,0.055,0.0942,0.1414,0.1807,0.22,0.2514,0.2514,0.2514,0.2514,0.2514,0.2514,0.2514,0.2514,0.2514,0.2514,0.2592,0.5486,0.7517,0.7513,1.0552,1.2501,1.2501,1.2501,1.2501,1.2501,1.2501,1.2501,1.2501,1.2501,1.2501,1.2501,1.2501,1.2501,1.2501,1.2501,1.2501,1.2501,1.2501,1.2501,1.2501,1.2501,1.2501,1.2488,1.2345,1.2203,1.2047,1.1891,1.1669,1.1619,1.1548,1.0599,0.9291,0.9219,0.7916,0.5898,0.4421,0.3603,0.2942,0.1487,0.0808,0.0404,0.0067,0.0,0.0,0.0,0.0,0.0,0.0,0.0,0.0,0.0,0.0,0.0,0.0,0.0,0.0,0.0,0.0,0.0,0.0,0.0,0.0,0.0,0.0,0.0,0.0,0.0,0.0,0.0,0.0,0.0,0.0,0.0,0.0,0.0,0.0,0.0,0.0,0.0679,0.0988,0.0988,0.1668,0.1977,0.1977,0.1977,0.1977,0.0,0.0,0.0,0.0,0.0,0.0079,0.0471,0.0942,0.1414,0.1807,0.22,0.2514,0.2514,0.2514,0.2514,0.2514,0.2514,0.2514,0.2514,0.2514,0.2905,0.4077,0.7201,0.9226,0.9226,1.1178,1.2501,1.2501,1.2501,1.2501,1.2501,1.2501,1.2501,1.2501,1.2501,1.2501,1.2501,1.2501,1.2501,1.2501,1.2501,1.2501,1.2501,1.2501,1.2501,1.2501,1.2501,1.2447,1.2345,1.2196,1.2047,1.1891,1.1742,1.166,1.1619,1.1619,1.1253,1.0731,0.9555,0.852,0.7362,0.471,0.3759,0.3312,0.1617,0.0808,0.0471,0.0404,0.0337,0.0337,0.0337,0.0202,0.0,0.0,0.0,0.0,0.0,0.0,0.0,0.0,0.0,0.0,0.0,0.0,0.0,0.0,0.0,0.0,0.0,0.0,0.0,0.0,0.0,0.0,0.0,0.0,0.0,0.0,0.0,0.0,0.0,0.0,0.0,0.0,0.0679,0.0988,0.0988,0.1668,0.1977,0.1977,0.1977,0.1977,0.0,0.0,0.0,0.0,0.0,0.0079,0.0314,0.0864,0.1336,0.165,0.2121,0.2514,0.2514,0.2514,0.2514,0.2514,0.2514,0.2514,0.2514,0.2514,0.314,0.4779,0.7431,0.9304,0.9931,1.1488,1.2501,1.2501,1.2501,1.2501,1.2501,1.2501,1.2501,1.2501,1.2501,1.2501,1.2501,1.2501,1.2501,1.2501,1.2501,1.2501,1.2501,1.2501,1.2501,1.2501,1.2501,1.242,0.0,1.2128,1.1972,1.1816,1.1674,1.1619,1.1619,1.1619,1.1619,1.1449,1.0367,0.9806,0.9118,0.653,0.5291,0.4428,0.2689,0.148,0.0741,0.0741,0.0741,0.0741,0.0741,0.0539,0.0404,0.0404,0.0404,0.0404,0.0202,0.0337,0.0337,0.0067,0.0135,0.0135,0.0,0.0135,0.0202,0.0202,0.0337,0.0404,0.0404,0.0404,0.0404,0.0404,0.0394,0.0323,0.0194,0.0189,0.0247,0.037,0.037,0.037,0.037,0.037,0.037,0.037,0.0926,0.1173,0.1173,0.173,0.1977,0.1977,0.1977,0.1977,0.0,0.0,0.0,0.0,0.0,0.0,0.0,0.0628,0.0,0.1256,0.1886,0.2435,0.2514,0.2514,0.2514,0.2514,0.2514,0.2514,0.2514,0.2514,0.3062,0.4623,0.6264,0.7981,0.9692,1.1333,1.2347,1.2501,1.2501,1.2501,1.2501,1.2501,1.2501,1.2501,1.2501,1.2501,1.2501,1.2501,1.2501,1.2501,1.2501,1.2501,1.2501,1.2501,1.2501,1.2501,1.2488,1.2406,1.2264,1.2108,1.1952,1.1803,1.1674,1.1619,1.1619,1.1619,1.1613,1.1579,1.143,1.1274,1.0911,0.933,0.7718,0.6097,0.4498,0.2756,0.1279,0.1144,0.1144,0.1144,0.1144,0.1144,0.1077,0.1077,0.1077,0.101,0.0606,0.0808,0.0875,0.0202,0.0337,0.0471,0.0135,0.0337,0.0539,0.0539,0.0875,0.1077,0.1077,0.1077,0.1077,0.1077,0.105,0.0903,0.0581,0.0566,0.0679,0.0926,0.0988,0.0988,0.0988,0.0988,0.0988,0.0988,0.1358,0.1482,0.1543,0.1853,0.1977,0.1977,0.1977,0.1977,0.0,0.0,0.0,0.0,0.0,0.0,0.0,0.0393,0.0864,0.1256,0.1728,0.2121,0.2435,0.2514,0.2514,0.2514,0.2514,0.2514,0.2514,0.2514,0.2671,0.3062,0.4547,0.6264,0.7903,0.9615,1.1101,1.2424,1.2501,1.2501,1.2501,1.2501,1.2501,1.2501,1.2501,1.2501,1.2501,1.2501,1.2501,1.2501,1.2501,1.2501,1.2501,1.2501,1.2501,1.2494,1.2386,1.2257,1.2101,1.1945,1.1796,1.1667,1.1633,1.1619,1.1619,1.1619,1.1545,1.1423,1.1267,1.1124,1.0697,0.9131,0.7655,0.6297,0.59,0.4766,0.3226,0.1884,0.1481,0.1481,0.1481,0.1279,0.1077,0.1077,0.1077,0.1077,0.101,0.101,0.1077,0.0875,0.0875,0.0943,0.0875,0.0875,0.0943,0.0943,0.101,0.1077,0.1077,0.1077,0.1077,0.1077,0.105,0.1096,0.1226,0.1005,0.0803,0.0617,0.0864,0.0988,0.0988,0.0988,0.0988,0.0988,0.1358,0.1606,0.1853,0.1977,0.1977,0.1977,0.1977,0.1977,0.0,0.0,0.0,0.0,0.0,0.0,0.0,0.0314,0.0707,0.0942,0.1336,0.1728,0.1886,0.1964,0.2043,0.22,0.22,0.2278,0.2435,0.2514,0.2514,0.2514,0.3999,0.5639,0.7357,0.8993,1.0707,1.2347,1.2501,1.2501,1.2501,1.2501,1.2501,1.2501,1.2501,1.2501,1.2501,1.2501,1.2501,1.2501,1.2501,1.2501,1.2501,1.2501,1.2501,1.2494,1.2352,1.2203,1.2047,1.1898,1.1748,1.1619,1.1619,1.1619,1.1613,1.1538,1.1463,1.1362,1.1138,1.0968,1.0692,0.9806,0.9045,0.824,0.7636,0.6902,0.577,0.3495,0.2354,0.2019,0.269,0.222,0.1951,0.3224,0.3023,0.2689,0.3224,0.3425,0.3224,0.2286,0.2218,0.2085,0.1212,0.1212,0.1346,0.1346,0.1481,0.1616,0.1616,0.1616,0.1616,0.1616,0.1518,0.1493,0.1548,0.1516,0.1368,0.1174,0.1358,0.1482,0.1482,0.1482,0.1482,0.1482,0.1668,0.1791,0.1977,0.1977,0.1977,0.1977,0.1977,0.1977,0.0,0.0,0.0,0.0,0.0,0.0,0.0,0.0236,0.055,0.055,0.0942,0.1178,0.1256,0.1336,0.1414,0.1728,0.1886,0.2043,0.2435,0.2514,0.2514,0.2514,0.3766,0.5405,0.7279,0.8759,1.0397,1.2347,1.2501,1.2501,1.2501,1.2501,1.2501,1.2501,1.2501,1.2501,1.2501,1.2501,1.2501,1.2501,1.2501,1.2501,1.2501,1.2501,1.2488,1.2461,1.2318,0.0,1.2013,1.1864,1.1728,1.1619,1.1619,1.1619,1.1599,1.145,1.1375,1.1314,1.1016,1.0826,1.0717,1.0717,1.0717,1.0452,0.931,0.8773,0.8107,0.5637,0.3964,0.3094,0.43,0.3763,0.3427,0.5834,0.5499,0.49,0.5767,0.6168,0.583,0.4026,0.3959,0.3694,0.2151,0.2151,0.2287,0.2018,0.2289,0.2423,0.2223,0.2223,0.2223,0.2223,0.2128,0.1966,0.1678,0.1845,0.2007,0.1978,0.1977,0.1977,0.1977,0.1977,0.1977,0.1977,0.1977,0.1977,0.1977,0.1977,0.1977,0.1977,0.1977,0.1977,0.0,0.0,0.0,0.0,0.0,0.0,0.0,0.0079,0.0157,0.055,0.0628,0.0864,0.1256,0.1336,0.1336,0.1414,0.165,0.2043,0.2435,0.2514,0.2514,0.2514,0.2749,0.4079,0.7201,0.7747,0.9148,1.2269,1.2501,1.2501,1.2501,1.2501,1.2501,1.2501,1.2501,1.2501,1.2501,1.2501,1.2501,1.2501,1.2501,1.2501,1.2501,1.2501,1.2433,1.2318,0.0,1.2006,1.1857,1.1708,1.164,1.1619,1.1619,1.1619,1.1599,1.145,1.1307,1.1158,1.086,1.0738,1.0717,1.0717,1.0717,1.0651,1.0452,0.951,0.8507,0.8041,0.6902,0.5834,0.6034,0.59,0.583,0.6297,0.6231,0.6101,0.6297,0.6364,0.6297,0.5964,0.5964,0.5897,0.5629,0.5629,0.5232,0.4031,0.3964,0.3564,0.2356,0.2223,0.2223,0.2223,0.2128,0.2097,0.2002,0.2035,0.2007,0.1978,0.1977,0.1977,0.1977,0.1977,0.1977,0.1977,0.1977,0.1977,0.1977,0.1977,0.1977,0.1977,0.1977,0.1977,0.0,0.0,0.0,0.0,0.0,0.0,0.0,0.0,0.0079,0.0236,0.0314,0.0314,0.055,0.0628,0.0707,0.0864,0.1493,0.1964,0.2121,0.2357,0.2514,0.2514,0.2514,0.3844,0.7201,0.7513,0.8915,1.2269,1.2501,1.2501,1.2501,1.2501,1.2501,1.2501,1.2501,1.2501,1.2501,1.2501,1.2501,1.2501,1.2501,1.2501,1.2501,1.2501,1.2427,1.2284,0.0,1.1972,1.1823,1.1681,1.1619,1.1619,1.1619,1.1565,1.147,1.124,1.1056,1.0907,1.0765,1.0717,1.0717,1.0717,1.0717,1.0717,1.0717,1.0246,0.9715,0.9715,0.8102,0.6564,0.7369,0.6969,0.6765,0.8374,0.8169,0.7769,0.8573,0.8706,0.8507,0.7702,0.7569,0.7369,0.6564,0.6431,0.6164,0.5499,0.5432,0.49,0.3497,0.3362,0.3026,0.2289,0.2142,0.2121,0.2091,0.206,0.2024,0.1979,0.1977,0.1977,0.1977,0.1977,0.1977,0.1977,0.1977,0.1977,0.1977,0.1977,0.1977,0.1977,0.1977,0.1977,0.0,0.0,0.0,0.0,0.0,0.0,0.0,0.0,0.0,0.0,0.0,0.0,0.0,0.0,0.0157,0.055,0.1256,0.1807,0.1886,0.2278,0.2514,0.2514,0.2514,0.3689,0.6655,0.7279,0.8759,1.1721,1.2269,1.2501,1.2501,1.2501,1.2501,1.2501,1.2501,1.2501,1.2501,1.2501,1.2501,1.2501,1.2501,1.2501,1.2501,1.2467,1.2372,1.223,1.2074,1.1925,1.1775,1.166,1.1619,1.1619,1.1619,1.1504,1.1307,1.1043,1.0853,1.0717,1.0717,1.0717,1.0717,1.0717,1.0717,1.0717,1.0717,1.0717,1.0717,1.0717,0.9111,0.7636,0.8773,0.824,0.7969,1.018,0.9848,0.9377,1.0452,1.0717,1.0386,0.931,0.9111,0.8706,0.7569,0.7436,0.7303,0.6969,0.6898,0.6435,0.4967,0.4501,0.39,0.2827,0.2423,0.2206,0.2102,0.2071,0.2031,0.1979,0.1977,0.1977,0.1977,0.1977,0.1977,0.1977,0.1977,0.1977,0.1977,0.1977,0.1977,0.1977,0.1977,0.1977,0.0,0.0,0.0,0.0,0.0,0.0,0.0,0.0,0.0,0.0,0.0,0.0,0.0,0.0,0.0157,0.055,0.1021,0.1493,0.1886,0.2278,0.2514,0.2514,0.2514,0.3219,0.5014,0.6577,0.8214,1.0003,1.1643,1.2501,1.2501,1.2501,1.2501,1.2501,1.2501,1.2501,1.2501,1.2501,1.2501,1.2501,1.2501,1.2501,1.2494,1.2366,1.2223,1.2067,1.1911,1.1769,1.1633,1.1619,1.1619,1.1619,1.1619,1.1436,1.1158,1.1002,1.0853,1.0717,1.0717,1.0717,1.0717,1.0717,1.0717,1.0717,1.0717,1.0717,1.0717,1.0717,1.0518,1.0386,1.0518,1.0452,1.0452,1.0651,1.0651,1.0585,1.0651,1.0717,1.0651,1.0585,1.0518,1.0518,1.0386,1.0386,0.9915,0.864,0.844,0.7902,0.6431,0.5101,0.4233,0.4166,0.2961,0.2197,0.2137,0.2039,0.2008,0.1978,0.1977,0.1977,0.1977,0.1977,0.1977,0.1977,0.1977,0.1977,0.1977,0.1977,0.1977,0.1977,0.1977,0.1977,0.0,0.0,0.0,0.0,0.0,0.0,0.0,0.0,0.0,0.0,0.0,0.0,0.0,0.0,0.0079,0.0236,0.055,0.1021,0.1493,0.1886,0.22,0.2435,0.2514,0.3532,0.6264,0.7123,0.8604,1.1333,1.2108,1.2501,1.2501,1.2501,1.2501,1.2501,1.2501,1.2501,1.2501,1.2501,1.2501,1.2501,1.2501,1.2454,1.2366,1.2318,1.2155,1.1911,1.1857,1.1748,1.1619,1.1619,1.1619,1.1599,1.1409,1.1212,1.1009,1.086,1.0772,1.0717,1.0717,1.0717,1.0717,1.0717,1.0717,1.0717,1.0717,1.0717,1.0717,1.0717,1.0717,1.0717,1.0717,1.0717,1.0717,1.0717,1.0717,1.0717,1.0717,1.0717,1.0717,1.0717,1.0717,1.0717,1.0717,1.0717,1.0518,0.9981,0.9915,0.9377,0.7969,0.7303,0.6305,0.4501,0.3026,0.2204,0.2095,0.2064,0.2414,0.3191,0.2481,0.1977,0.1977,0.1977,0.1977,0.1977,0.1977,0.1977,0.1977,0.1977,0.1977,0.1977,0.1977,0.1977,0.0,0.0,0.0,0.0,0.0,0.0,0.0,0.0,0.0,0.0,0.0,0.0,0.0,0.0,0.0,0.0,0.0314,0.0785,0.1256,0.165,0.2043,0.2435,0.2514,0.3609,0.642,0.7201,0.8682,1.1488,1.2192,1.2501,1.2501,1.2501,1.2501,1.2501,1.2501,1.2501,1.2501,1.2501,1.2481,1.2433,1.2433,1.2386,1.2284,1.2189,1.2033,1.183,1.1782,1.1708,1.1619,1.1619,1.1592,1.1518,1.126,1.1077,1.086,1.0778,1.0717,1.0717,1.0717,1.0717,1.0717,1.0717,1.0717,1.0717,1.0717,1.0717,1.0717,1.0717,1.0717,1.0717,1.0717,1.0717,1.0717,1.0717,1.0717,1.0717,1.0717,1.0717,1.0717,1.0717,1.0717,1.0717,1.0717,1.0717,1.0717,1.0717,1.0717,1.0319,0.9377,0.8906,0.7507,0.4635,0.343,0.2677,0.2112,0.247,0.3073,0.397,0.3541,0.302,0.259,0.2222,0.1977,0.1977,0.1977,0.1977,0.1977,0.1977,0.1977,0.1977,0.1977,0.1977,0.0,0.0,0.0,0.0,0.0,0.0,0.0,0.0,0.0,0.0,0.0,0.0,0.0,0.0,0.0,0.0,0.0314,0.0785,0.1256,0.165,0.2043,0.2435,0.2514,0.314,0.4857,0.6499,0.8214,0.9853,1.1566,1.2501,1.2501,1.2501,1.2501,1.2501,1.2501,1.2501,1.2501,1.2501,1.2427,1.2291,1.2284,1.2284,1.2277,1.1972,1.183,1.1823,1.1681,1.1619,1.1619,1.1619,1.1525,1.1375,1.1219,1.107,1.086,1.0778,1.0717,1.0717,1.0717,1.0717,1.0717,1.0717,1.0717,1.0717,1.0717,1.0717,1.0717,1.0717,1.0717,1.0717,1.0717,1.0717,1.0717,1.0717,1.0717,1.0717,1.0717,1.0717,1.0717,1.0717,1.0717,1.0717,1.0717,1.0717,1.0717,1.0717,1.0717,1.0717,1.0717,0.9443,0.7507,0.4635,0.43,0.3677,0.2244,0.3247,0.4029,0.4033,0.5208,0.5284,0.3937,0.2714,0.2038,0.1977,0.1977,0.1977,0.1977,0.1977,0.1977,0.1977,0.1977,0.1977,0.0,0.0,0.0,0.0,0.0,0.0,0.0,0.0,0.0,0.0,0.0,0.0,0.0,0.0,0.0,0.0,0.0079,0.0471,0.1178,0.1414,0.1728,0.2435,0.2514,0.314,0.4857,0.6499,0.8214,0.9853,1.1566,1.2501,1.2501,1.2501,1.2501,1.2501,1.2406,1.2352,1.2352,1.2244,1.2169,1.2128,1.202,1.1965,1.1965,1.187,1.1775,1.1681,1.164,1.1619,1.1613,1.1504,1.1369,1.1212,1.107,1.0921,1.0778,1.0738,1.0717,1.0717,1.0717,1.0717,1.0717,1.0717,1.0717,1.0717,1.0717,1.0717,1.0717,1.0717,1.0717,1.0717,1.0717,1.0717,1.0717,1.0717,1.0717,1.0717,1.0717,1.0717,1.0717,1.0717,1.0717,1.0717,1.0717,1.0717,1.0717,1.0717,1.0717,1.0717,1.0717,0.9443,0.824,0.7441,0.5503,0.4093,0.3675,0.4021,0.4544,0.5369,0.5792,0.5408,0.3937,0.351,0.2897,0.2038,0.1977,0.1977,0.1977,0.1977,0.1977,0.1977,0.1977,0.1977,0.0,0.0,0.0,0.0,0.0,0.0,0.0,0.0,0.0,0.0,0.0,0.0,0.0,0.0,0.0,0.0,0.0,0.0236,0.0942,0.1178,0.1571,0.22,0.2435,0.3454,0.5796,0.6859,0.8388,1.0714,1.1823,1.2325,1.2325,1.2325,1.2325,1.2325,1.2244,1.2196,1.2196,1.2108,1.2033,1.1972,1.1877,1.1803,1.1748,1.1748,1.1701,1.1619,1.1619,1.1619,1.1606,1.1457,1.1301,1.1151,1.1002,1.0786,1.0717,1.0717,1.0717,1.0717,1.0717,1.0717,1.0717,1.0717,1.0717,1.0717,1.0717,1.0717,1.0717,1.0717,1.0717,1.0717,1.0717,1.0717,1.0717,1.0717,1.0717,1.0717,1.0717,1.0717,1.0717,1.0717,1.0717,1.0717,1.0717,1.0717,1.0717,1.0717,1.0717,1.0717,1.0717,0.9981,0.9244,0.864,0.704,0.577,0.5168,0.5631,0.6219,0.6937,0.737,0.7007,0.5644,0.4502,0.3325,0.2038,0.1977,0.1977,0.1977,0.1977,0.1977,0.1977,0.1977,0.1977,0.0,0.0,0.0,0.0,0.0,0.0,0.0,0.0,0.0,0.0,0.0,0.0,0.0,0.0,0.0,0.0,0.0,0.0157,0.055,0.1021,0.1414,0.1886,0.2278,0.3766,0.6956,0.7273,0.8602,1.1808,1.2067,1.2135,1.2135,1.2135,1.2135,1.2135,1.2047,1.204,1.204,1.2026,1.1952,1.1809,1.1809,1.1742,1.1619,1.1619,1.1619,1.1619,1.1619,1.1613,1.1586,1.1436,1.128,1.1131,1.0982,1.0846,1.0717,1.0717,1.0717,1.0717,1.0717,1.0717,1.0717,1.0717,1.0717,1.0717,1.0717,1.0717,1.0717,1.0717,1.0717,1.0717,1.0717,1.0717,1.0717,1.0717,1.0717,1.0717,1.0717,1.0717,1.0717,1.0717,1.0717,1.0717,1.0717,1.0717,1.0717,1.0717,1.0717,1.0717,1.0717,1.0717,1.0187,0.8906,0.8706,0.8035,0.6698,0.7751,0.8416,0.8405,0.9412,0.9449,0.8165,0.5636,0.3633,0.2222,0.216,0.2099,0.1977,0.1977,0.1977,0.1977,0.1977,0.1977,0.0,0.0,0.0,0.0,0.0,0.0,0.0,0.0,0.0,0.0,0.0,0.0,0.0,0.0,0.0,0.0,0.0,0.0157,0.055,0.1021,0.1414,0.1886,0.2278,0.3285,0.518,0.6543,0.8112,1.0,1.1401,1.2135,1.2135,1.2135,1.2135,1.2135,1.1945,1.1877,1.1877,1.1769,1.1694,1.1667,1.1667,1.1647,1.1619,1.1619,1.1619,1.1619,1.1619,1.1552,1.143,1.1274,1.1124,1.0982,1.0826,1.0751,1.0717,1.0717,1.0717,1.0717,1.0717,1.0717,1.0717,1.0717,1.0717,1.0717,1.0717,1.0717,1.0717,1.0717,1.0717,1.0717,1.0717,1.0717,1.0717,1.0717,1.0717,1.0717,1.0717,1.0717,1.0717,1.0717,1.0717,1.0717,1.0717,1.0717,1.0717,1.0717,1.0717,1.0717,1.0717,1.0717,1.0585,1.0253,0.9244,0.844,0.8174,0.8419,0.8497,0.841,0.9651,0.971,0.8171,0.7429,0.5896,0.351,0.351,0.302,0.1977,0.1977,0.1977,0.1977,0.1977,0.1977,0.0,0.0,0.0,0.0,0.0,0.0,0.0,0.0,0.0,0.0,0.0,0.0,0.0,0.0,0.0,0.0,0.0,0.0079,0.0314,0.0864,0.1414,0.1571,0.2111,0.3415,0.5772,0.669,0.8127,1.0464,1.1369,1.185,1.185,1.185,1.185,1.185,1.1769,1.1728,1.1728,1.1653,1.1619,1.1619,1.1619,1.1619,1.1619,1.1619,1.1619,1.1619,1.1619,1.1531,1.1382,1.1226,1.1077,1.0867,1.0778,1.0717,1.0717,1.0717,1.0717,1.0717,1.0717,1.0717,1.0717,1.0717,1.0717,1.0717,1.0717,1.0717,1.0717,1.0717,1.0717,1.0717,1.0717,1.0717,1.0717,1.0717,1.0717,1.0717,1.0717,1.0717,1.0717,1.0717,1.0717,1.0717,1.0717,1.0717,1.0717,1.0717,1.0717,1.0717,1.0717,1.0717,1.0717,1.0717,1.0047,0.9576,0.9576,0.9576,0.9552,0.9485,1.0136,1.0096,0.9303,0.9044,0.7608,0.4916,0.4244,0.3876,0.3879,0.259,0.2284,0.2897,0.2284,0.1977,0.0,0.0,0.0,0.0,0.0,0.0,0.0,0.0,0.0,0.0,0.0,0.0,0.0,0.0,0.0,0.0,0.0,0.0,0.0,0.0785,0.1336,0.1336,0.202,0.3773,0.6972,0.7128,0.8352,1.1504,1.1687,1.1619,1.1619,1.1619,1.1619,1.1619,1.1619,1.1619,1.1619,1.1619,1.1619,1.1619,1.1619,1.1619,1.1619,1.1619,1.1619,1.1619,1.1592,1.1491,1.1341,1.1185,1.1043,1.0826,1.0772,1.0717,1.0717,1.0717,1.0717,1.0717,1.0717,1.0717,1.0717,1.0717,1.0717,1.0717,1.0717,1.0717,1.0717,1.0717,1.0717,1.0717,1.0717,1.0717,1.0717,1.0717,1.0717,1.0717,1.0717,1.0717,1.0717,1.0717,1.0717,1.0717,1.0717,1.0717,1.0717,1.0717,1.0717,1.0717,1.0717,1.0717,1.0717,1.0717,1.0717,1.0717,1.0717,1.0717,1.0717,1.0717,1.0602,1.0521,1.0493,1.0256,0.8975,0.6662,0.5291,0.4916,0.5529,0.3389,0.2775,0.3571,0.2467,0.1977,0.0,0.0,0.0,0.0,0.0,0.0,0.0,0.0,0.0,0.0,0.0,0.0,0.0,0.0,0.0,0.0,0.0,0.0,0.0,0.0785,0.1336,0.1336,0.202,0.3682,0.6815,0.7017,0.8323,1.1365,1.1633,1.1619,1.1619,1.1619,1.1619,1.1619,1.1619,1.1619,1.1619,1.1619,1.1619,1.1619,1.1619,1.1619,1.1619,1.1619,1.1619,1.1613,1.1477,1.1335,1.1179,1.1036,1.0887,1.0751,1.0731,1.0717,1.0717,1.0717,1.0717,1.0717,1.0717,1.0717,1.0717,1.0717,1.0717,1.0717,1.0717,1.0717,1.0717,1.0717,1.0717,1.0717,1.0717,1.0717,1.0717,1.0717,1.0717,1.0717,1.0717,1.0717,1.0717,1.0717,1.0717,1.0717,1.0717,1.0717,1.0717,1.0717,1.0717,1.0717,1.0717,1.0717,1.0717,1.0717,1.0717,1.0717,1.0717,1.0717,1.0717,1.0717,1.0704,1.0629,1.0493,1.0453,1.0112,0.946,0.8094,0.6324,0.418,0.3815,0.3143,0.2222,0.21,0.1977,0.0,0.0,0.0,0.0,0.0,0.0,0.0,0.0,0.0,0.0,0.0,0.0,0.0,0.0,0.0,0.0,0.0,0.0079,0.0314,0.0864,0.1414,0.1571,0.2086,0.3653,0.6792,0.7039,0.8251,1.1404,1.1619,1.1619,1.1619,1.1619,1.1619,1.1619,1.1619,1.1619,1.1619,1.1619,1.1619,1.1619,1.1619,1.1619,1.1619,1.1619,1.1619,1.1613,1.1457,1.1307,1.1151,1.1009,1.0793,1.0717,1.0717,1.0717,1.0717,1.0717,1.0717,1.0717,1.0717,1.0717,1.0717,1.0717,1.0717,1.0717,1.0717,1.0717,1.0717,1.0717,1.0717,1.0717,1.0717,1.0717,1.0717,1.0717,1.0717,1.0717,1.0717,1.0717,1.0717,1.0717,1.0717,1.0717,1.0717,1.0717,1.0717,1.0717,1.0717,1.0717,1.0717,1.0717,1.0717,1.0717,1.0717,1.0717,1.0717,1.0717,1.0717,1.0717,1.0717,1.069,1.0622,1.0534,1.0432,1.0304,0.8806,0.7367,0.6141,0.461,0.3633,0.302,0.2346,0.1977,0.0,0.0,0.0,0.0,0.0,0.0,0.0,0.0,0.0,0.0,0.0,0.0,0.0,0.0,0.0,0.0,0.0,0.0157,0.055,0.1021,0.1413,0.1799,0.2148,0.3625,0.6758,0.706,0.8275,1.1397,1.1619,1.1619,1.1619,1.1619,1.1619,1.1619,1.1619,1.1619,1.1619,1.1619,1.1619,1.1619,1.1619,1.1619,1.1619,1.1619,1.1599,1.1552,1.1402,1.1246,1.1097,1.0948,1.0759,1.0717,1.0717,1.0717,1.0717,1.0717,1.0717,1.0717,1.0717,1.0717,1.0717,1.0717,1.0717,1.0717,1.0717,1.0717,1.0717,1.0717,1.0717,1.0717,1.0717,1.0717,1.0717,1.0717,1.0717,1.0717,1.0717,1.0717,1.0717,1.0717,1.0717,1.0717,1.0717,1.0717,1.0717,1.0717,1.0717,1.0717,1.0717,1.0717,1.0717,1.0717,1.0717,1.0717,1.0717,1.0717,1.0717,1.0717,1.0717,1.0717,1.0717,1.0609,1.0534,1.0493,0.9309,0.8432,0.7966,0.5908,0.4732,0.4364,0.3451,0.3022,0.0,0.0,0.0,0.0,0.0,0.0,0.0,0.0,0.0,0.0,0.0,0.0,0.0,0.0,0.0,0.0,0.0,0.0157,0.055,0.1021,0.1408,0.1779,0.2138,0.3612,0.6677,0.7023,0.8275,1.1397,1.1619,1.1619,1.1619,1.1619,1.1619,1.1619,1.1619,1.1619,1.1619,1.1619,1.1619,1.1619,1.1619,1.1619,1.1619,1.1619,1.1538,1.1396,1.124,1.109,1.088,1.0799,1.0724,1.0717,1.0717,1.0717,1.0717,1.0717,1.0717,1.0717,1.0717,1.0717,1.0717,1.0717,1.0717,1.0717,1.0717,1.0717,1.0717,1.0717,1.0717,1.0717,1.0717,1.0717,1.0717,1.0717,1.0717,1.0717,1.0717,1.0717,1.0717,1.0717,1.0717,1.0717,1.0717,1.0717,1.0717,1.0717,1.0717,1.0717,1.0717,1.0717,1.0717,1.0717,1.0717,1.0717,1.0717,1.0717,1.0717,1.0717,1.0717,1.0717,1.0717,1.0711,1.0636,1.0493,1.0408,0.9614,0.8092,0.7854,0.7062,0.5774,0.5712,0.5712,0.0,0.0,0.0,0.0,0.0,0.0,0.0,0.0,0.0,0.0,0.0,0.0,0.0,0.0,0.0,0.0,0.0236,0.055,0.1021,0.1414,0.1799,0.224,0.2365,0.3612,0.667,0.7023,0.8275,1.1397,1.1619,1.1619,1.1619,1.1619,1.1619,1.1619,1.1619,1.1619,1.1619,1.1619,1.1619,1.1619,1.1619,1.1619,1.1613,1.1518,1.1389,1.124,1.109,1.0995,1.0867,1.0785,1.0717,1.0717,1.0717,1.0717,1.0717,1.0717,1.0717,1.0717,1.0717,1.0717,1.0717,1.0717,1.0717,1.0717,1.0717,1.0717,1.0717,1.0717,1.0717,1.0717,1.0717,1.0717,1.0717,1.0717,1.0717,1.0717,1.0717,1.0717,1.0717,1.0717,1.0717,1.0717,1.0717,1.0717,1.0717,1.0717,1.0717,1.0717,1.0717,1.0717,1.0717,1.0717,1.0717,1.0717,1.0717,1.0717,1.0717,1.0717,1.0717,1.0717,1.0717,1.0717,1.0697,1.0636,1.0541,0.9697,0.8103,0.8059,0.7316,0.5896,0.5896,0.5896,0.0236,0.0236,0.0157,0.0,0.0,0.0,0.0,0.0,0.0,0.0,0.0,0.0,0.0,0.0,0.0079,0.0157,0.0393,0.0785,0.1414,0.1722,0.202,0.2458,0.2427,0.359,0.6701,0.7003,0.8275,1.1397,1.1619,1.1619,1.1619,1.1619,1.1619,1.1619,1.1619,1.1619,1.1619,1.1619,1.1619,1.1619,1.1619,1.1592,1.1538,1.1436,1.128,1.1084,1.0989,1.0853,1.0799,1.0765,1.0717,1.0717,1.0717,1.0717,1.0717,1.0717,1.0717,1.0717,1.0717,1.0717,1.0717,1.0717,1.0717,1.0717,1.0717,1.0717,1.0717,1.0717,1.0717,1.0717,1.0717,1.0717,1.0717,1.0717,1.0717,1.0717,1.0717,1.0717,1.0717,1.0717,1.0717,1.0717,1.0717,1.0717,1.0717,1.0717,1.0717,1.0717,1.0717,1.0717,1.0717,1.0717,1.0717,1.0717,1.0717,1.0717,1.0717,1.0717,1.0717,1.0717,1.0717,1.0717,1.0717,1.0717,1.0622,0.9987,0.8919,0.8774,0.8245,0.7301,0.7199,0.6996,0.0,0.0,0.0,0.0157,0.0,0.0,0.0,0.0,0.0,0.0,0.0,0.0,0.0,0.0,0.0157,0.055,0.0628,0.0942,0.1807,0.1866,0.1996,0.2351,0.2397,0.3619,0.6688,0.697,0.8275,1.1397,1.1619,1.1619,1.1619,1.1619,1.1619,1.1619,1.1619,1.1619,1.1619,1.1619,1.1619,1.1619,1.1619,1.1538,1.1389,1.1389,1.1226,1.088,1.0873,1.0793,1.0717,1.0717,1.0717,1.0717,1.0717,1.0717,1.0717,1.0717,1.0717,1.0717,1.0717,1.0717,1.0717,1.0717,1.0717,1.0717,1.0717,1.0717,1.0717,1.0717,1.0717,1.0717,1.0717,1.0717,1.0717,1.0717,1.0717,1.0717,1.0717,1.0717,1.0717,1.0717,1.0717,1.0717,1.0717,1.0717,1.0717,1.0717,1.0717,1.0717,1.0717,1.0717,1.0717,1.0717,1.0717,1.0717,1.0717,1.0717,1.0717,1.0717,1.0717,1.0717,1.0717,1.0717,1.0717,1.0717,1.0717,1.0649,1.05,1.0202,0.9997,0.9984,0.9829,0.9147,0.1492,0.0,0.0,0.0,0.0,0.0,0.055,0.0471,0.0314,0.0079,0.0,0.0,0.0,0.0,0.0236,0.1021,0.1099,0.1256,0.1807,0.2099,0.2304,0.2427,0.2397,0.3619,0.6688,0.697,0.8275,1.1397,1.1619,1.1619,1.1619,1.1619,1.1619,1.1619,1.1619,1.1619,1.1619,1.1619,1.1619,1.1619,1.1619,1.1538,1.1389,1.1274,1.1124,1.0873,1.0833,1.0758,1.0717,1.0717,1.0717,1.0717,1.0717,1.0717,1.0717,1.0717,1.0717,1.0717,1.0717,1.0717,1.0717,1.0717,1.0717,1.0717,1.0717,1.0717,1.0717,1.0717,1.0717,1.0717,1.0717,1.0717,1.0717,1.0717,1.0717,1.0717,1.0717,1.0717,1.0717,1.0717,1.0717,1.0717,1.0717,1.0717,1.0717,1.0717,1.0717,1.0717,1.0717,1.0717,1.0717,1.0717,1.0717,1.0717,1.0717,1.0717,1.0717,1.0717,1.0717,1.0717,1.0717,1.0717,1.0717,1.0717,1.0717,1.0697,1.0656,1.046,1.0263,0.9984,0.9829,0.9633,0.3918,0.3137,0.2588,0.2353,0.0,0.0,0.1961,0.2508,0.2743,0.1803,0.1568,0.1334,0.0707,0.055,0.0784,0.1404,0.1481,0.1637,0.2105,0.2315,0.2439,0.2408,0.2378,0.3598,0.6684,0.697,0.8275,1.1397,1.1619,1.1619,1.1619,1.1619,1.1619,1.1619,1.1619,1.1619,1.1619,1.1619,1.1619,1.1619,1.1552,1.1443,1.1294,1.1138,1.0995,1.0779,1.0758,1.0717,1.0717,1.0717,1.0717,1.0717,1.0717,1.0717,1.0717,1.0717,1.0717,1.0717,1.0717,1.0717,1.0717,1.0717,1.0717,1.0717,1.0717,1.0717,1.0717,1.0717,1.0717,1.0717,1.0717,1.0717,1.0717,1.0717,1.0717,1.0717,1.0717,1.0717,1.0717,1.0717,1.0717,1.0717,1.0717,1.0717,1.0717,1.0717,1.0717,1.0717,1.0717,1.0717,1.0717,1.0717,1.0717,1.0717,1.0717,1.0717,1.0717,1.0717,1.0717,1.0717,1.0717,1.0717,1.0717,1.0717,1.0717,1.0717,1.0717,1.0568,1.0371,1.0141,0.9985,0.9856,0.7119,0.587,0.462,0.4305,0.4227,0.0,0.4149,0.5321,0.5942,0.4383,0.3914,0.3366,0.1802,0.1333,0.1328,0.1619,0.1694,0.1925,0.2386,0.2438,0.2409,0.2382,0.2352,0.3567,0.668,0.697,0.8275,1.1397,1.1619,1.1619,1.1619,1.1619,1.1619,1.1619,1.1619,1.1619,1.1619,1.1619,1.1613,1.1592,1.1457,1.1301,1.1131,1.1009,1.0799,1.0717,1.0717,1.0717,1.0717,1.0717,1.0717,1.0717,1.0717,1.0717,1.0717,1.0717,1.0717,1.0717,1.0717,1.0717,1.0717,1.0717,1.0717,1.0717,1.0717,1.0717,1.0717,1.0717,1.0717,1.0717,1.0717,1.0717,1.0717,1.0717,1.0717,1.0717,1.0717,1.0717,1.0717,1.0717,1.0717,1.0717,1.0717,1.0717,1.0717,1.0717,1.0717,1.0717,1.0717,1.0717,1.0717,1.0717,1.0717,1.0717,1.0717,1.0717,1.0717,1.0717,1.0717,1.0717,1.0717,1.0717,1.0717,1.0717,1.0717,1.0717,1.0717,1.0568,1.0426,1.0297,1.0148,1.0011,0.7747,0.7123,0.6889,0.6811,0.6811,0.0,0.6339,0.6573,0.657,0.5942,0.4771,0.3591,0.2864,0.1624,0.0771,0.0838,0.114,0.1595,0.228,0.2406,0.2384,0.2379,0.2352,0.3567,0.668,0.697,0.8275,1.1397,1.1619,1.1619,1.1619,1.1619,1.1619,1.1619,1.1619,1.1619,1.1619,1.1619,1.1558,1.1436,1.1402,1.1246,1.0989,1.0894,1.0799,1.0717,1.0717,1.0717,1.0717,1.0717,1.0717,1.0717,1.0717,1.0717,1.0717,1.0717,1.0717,1.0717,1.0717,1.0717,1.0717,1.0717,1.0717,1.0717,1.0717,1.0717,1.0717,1.0717,1.0717,1.0717,1.0717,1.0717,1.0717,1.0717,1.0717,1.0717,1.0717,1.0717,1.0717,1.0717,1.0717,1.0717,1.0717,1.0717,1.0717,1.0717,1.0717,1.0717,1.0717,1.0717,1.0717,1.0717,1.0717,1.0717,1.0717,1.0717,1.0717,1.0717,1.0717,1.0717,1.0717,1.0717,1.0717,1.0717,1.0717,1.0717,1.0717,1.0568,1.048,1.0446,1.0304,1.0236,0.9982,0.9218,0.8531,0.8531,0.8531,0.0,0.0,0.8908,0.9213,0.8139,0.7298,0.6364,0.5261,0.4418,0.3795,0.3823,0.3295,0.3065,0.3493,0.2897,0.2372,0.2357,0.2999,0.4436,0.6753,0.7693,0.9074,1.1404,1.1619,1.1619,1.1619,1.1619,1.1619,1.1619,1.1619,1.1619,1.1619,1.1545,1.1463,1.1389,1.124,1.109,1.088,1.0799,1.0792,1.0717,1.0717,1.0717,1.0717,1.0717,1.0717,1.0717,1.0717,1.0717,1.0717,1.0717,1.0717,1.0717,1.0717,1.0717,1.0717,1.0717,1.0717,1.0717,1.0717,1.0717,1.0717,1.0717,1.0717,1.0717,1.0717,1.0717,1.0717,1.0717,1.0717,1.0717,1.0717,1.0717,1.0717,1.0717,1.0717,1.0717,1.0717,1.0717,1.0717,1.0717,1.0717,1.0717,1.0717,1.0717,1.0717,1.0717,1.0717,1.0717,1.0717,1.0717,1.0717,1.0717,1.0717,1.0717,1.0717,1.0717,1.0717,1.0717,1.0717,1.0717,1.0717,1.0643,1.0609,1.0602,1.0453,1.0385,1.2135,1.1083,1.0105,1.0105,1.0105,1.0105,0.0,0.0,0.0,1.0329,0.9805,0.9195,0.7743,0.7215,0.6966,0.6817,0.584,0.5011,0.5043,0.4045,0.3021,0.2408,0.4003,0.5597,0.6898,0.8636,1.0233,1.1476,1.1619,1.1619,1.1619,1.1619,1.1619,1.1619,1.1619,1.1606,1.1572,1.145,1.1362,1.1301,1.1063,1.0867,1.0833,1.0778,1.0717,1.0717,1.0717,1.0717,1.0717,1.0717,1.0717,1.0717,1.0717,1.0717,1.0717,1.0717,1.0717,1.0717,1.0717,1.0717,1.0717,1.0717,1.0717,1.0717,1.0717,1.0717,1.0717,1.0717,1.0717,1.0717,1.0717,1.0717,1.0717,1.0717,1.0717,1.0717,1.0717,1.0717,1.0717,1.0717,1.0717,1.0717,1.0717,1.0717,1.0717,1.0717,1.0717,1.0717,1.0717,1.0717,1.0717,1.0717,1.0717,1.0717,1.0717,1.0717,1.0717,1.0717,1.0717,1.0717,1.0717,1.0717,1.0717,1.0717,1.0717,1.0717,1.0717,1.0717,1.0717,1.0717,1.0595,1.0534,1.2135,1.1986,1.1836,1.1836,1.1836,1.1836,1.1836,0.0,1.206,1.1836,0.0,0.9393,0.8839,0.0,0.0,0.6138,0.6158,0.6283,0.6341,0.6443,0.5459,0.2624,0.4944,0.6825,0.697,0.9651,1.1404,1.1619,1.1619,1.1619,1.1619,1.1619,1.1619,1.1619,1.1619,1.1552,1.1416,1.1402,1.126,1.0927,1.0894,1.0813,1.0744,1.0731,1.0717,1.0717,1.0717,1.0717,1.0717,1.0717,1.0717,1.0717,1.0717,1.0717,1.0717,1.0717,1.0717,1.0717,1.0717,1.0717,1.0717,1.0717,1.0717,1.0717,1.0717,1.0717,1.0717,1.0717,1.0717,1.0717,1.0717,1.0717,1.0717,1.0717,1.0717,1.0717,1.0717,1.0717,1.0717,1.0717,1.0717,1.0717,1.0717,1.0717,1.0717,1.0717,1.0717,1.0717,1.0717,1.0717,1.0717,1.0717,1.0717,1.0717,1.0717,1.0717,1.0717,1.0717,1.0717,1.0717,1.0717,1.0717,1.0717,1.0717,1.0717,1.0717,1.0717,1.0717,1.0717,1.0717,1.0704,1.0697,1.1803,1.1803,1.1803,1.1803,1.1803,1.1803,1.1803,1.1803,1.1803,1.1803,0.0,0.0,0.0,0.0,0.0,0.0,0.8594,0.8073,0.8188,0.8227,0.7476,0.5304,0.697,0.8709,0.9579,1.0815,1.1619,1.1619,1.1619,1.1619,1.1619,1.1619,1.1619,1.1619,1.1531,1.1457,1.1389,1.1219,1.107,1.088,1.0793,1.0778,1.0717,1.0717,1.0717,1.0717,1.0717,1.0717,1.0717,1.0717,1.0717,1.0717,1.0717,1.0717,1.0717,1.0717,1.0717,1.0717,1.0717,1.0717,1.0717,1.0717,1.0717,1.0717,1.0717,1.0717,1.0717,1.0717,1.0717,1.0717,1.0717,1.0717,1.0717,1.0717,1.0717,1.0717,1.0717,1.0717,1.0717,1.0717,1.0717,1.0717,1.0717,1.0717,1.0717,1.0717,1.0717,1.0717,1.0717,1.0717,1.0717,1.0717,1.0717,1.0717,1.0717,1.0717,1.0717,1.0717,1.0717,1.0717,1.0717,1.0717,1.0717,1.0717,1.0717,1.0717,1.0717,1.0717,1.0717,1.0717,1.0717,1.0717,1.1619,1.1619,1.1619,1.1619,1.1619,1.1619,1.1619,1.1619,1.1619,1.1619,1.1619,0.0,0.0,0.0,1.1633,1.1674,0.0,0.9957,0.9986,0.9963,0.9219,0.7259,0.8348,0.9873,1.1476,1.1619,1.1619,1.1619,1.1619,1.1619,1.1619,1.1619,1.1599,1.1558,1.145,1.1355,1.1274,1.0988,1.086,1.082,1.0772,1.0717,1.0717,1.0717,1.0717,1.0717,1.0717,1.0717,1.0717,1.0717,1.0717,1.0717,1.0717,1.0717,1.0717,1.0717,1.0717,1.0717,1.0717,1.0717,1.0717,1.0717,1.0717,1.0717,1.0717,1.0717,1.0717,1.0717,1.0717,1.0717,1.0717,1.0717,1.0717,1.0717,1.0717,1.0717,1.0717,1.0717,1.0717,1.0717,1.0717,1.0717,1.0717,1.0717,1.0717,1.0717,1.0717,1.0717,1.0717,1.0717,1.0717,1.0717,1.0717,1.0717,1.0717,1.0717,1.0717,1.0717,1.0717,1.0717,1.0717,1.0717,1.0717,1.0717,1.0717,1.0717,1.0717,1.0717,1.0717,1.0717,1.0717,1.0717,1.1619,1.1619,1.1619,1.1619,1.1619,1.1619,1.1619,1.1619,1.1619,1.1619,1.1619,1.1619,1.1619,1.1619,1.166,1.1803,1.1635,0.0,0.0,1.1635,1.0377,0.7331,0.8348,0.9873,1.1476,1.1619,1.1619,1.1619,1.1619,1.1619,1.1619,1.1619,1.1552,1.1402,1.1396,1.1253,1.09,1.0887,1.0806,1.0724,1.0724,1.0717,1.0717,1.0717,1.0717,1.0717,1.0717,1.0717,1.0717,1.0717,1.0717,1.0717,1.0717,1.0717,1.0717,1.0717,1.0717,1.0717,1.0717,1.0717,1.0717,1.0717,1.0717,1.0717,1.0717,1.0717,1.0717,1.0717,1.0717,1.0717,1.0717,1.0717,1.0717,1.0717,1.0717,1.0717,1.0717,1.0717,1.0717,1.0717,1.0717,1.0717,1.0717,1.0717,1.0717,1.0717,1.0717,1.0717,1.0717,1.0717,1.0717,1.0717,1.0717,1.0717,1.0717,1.0717,1.0717,1.0717,1.0717,1.0717,1.0717,1.0717,1.0717,1.0717,1.0717,1.0717,1.0717,1.0717,1.0717,1.0717,1.0717,1.0717,0.0,1.1619,1.1619,1.1619,1.1619,1.1619,1.1619,1.1619,1.1619,1.1619,1.1619,1.1619,1.1619,1.1619,1.1633,1.1681,1.1653,1.164,0.0,1.1647,1.1181,1.0161,1.0527,1.1038,1.1548,1.1619,1.1619,1.1619,1.1619,1.1619,1.1619,1.1525,1.1443,1.1396,1.1199,1.0981,1.088,1.0779,1.0772,1.0717,1.0717,1.0717,1.0717,1.0717,1.0717,1.0717,1.0717,1.0717,1.0717,1.0717,1.0717,1.0717,1.0717,1.0717,1.0717,1.0717,1.0717,1.0717,1.0717,1.0717,1.0717,1.0717,1.0717,1.0717,1.0717,1.0717,1.0717,1.0717,1.0717,1.0717,1.0717,1.0717,1.0717,1.0717,1.0717,1.0717,1.0717,1.0717,1.0717,1.0717,1.0717,1.0717,1.0717,1.0717,1.0717,1.0717,1.0717,1.0717,1.0717,1.0717,1.0717,1.0717,1.0717,1.0717,1.0717,1.0717,1.0717,1.0717,1.0717,1.0717,1.0717,1.0717,1.0717,1.0717,1.0717,1.0717,1.0717,1.0717,1.0717,1.0717,1.0717,1.0717,1.1619,1.1619,0.0,1.1619,1.1619,1.1619,1.1619,1.1619,1.1619,1.1619,1.1619,1.1619,1.1619,1.1619,1.1619,1.1619,1.1619,1.1619,0.0,1.1619,1.1619,1.1619,1.1619,1.1619,1.1619,1.1619,1.1619,1.1619,1.1619,1.1619,1.1619,1.147,1.1369,1.1314,1.1077,1.0853,1.0799,1.0772,1.0717,1.0717,1.0717,1.0717,1.0717,1.0717,1.0717,1.0717,1.0717,1.0717,1.0717,1.0717,1.0717,1.0717,1.0717,1.0717,1.0717,1.0717,1.0717,1.0717,1.0717,1.0717,1.0717,1.0717,1.0717,1.0717,1.0717,1.0717,1.0711,1.0656,1.0677,1.0711,1.0656,1.0677,1.0717,1.0717,1.0717,1.0717,1.0717,1.0717,1.0717,1.0717,1.0717,1.0717,1.0717,1.0717,1.0717,1.0717,1.0717,1.0717,1.0717,1.0717,1.0717,1.0717,1.0717,1.0717,1.0717,1.0717,1.0717,1.0717,1.0717,1.0717,1.0717,1.0717,1.0772,1.0873,1.0772,1.0772,1.088,1.0772,1.0717,1.0717,1.0717,1.0717]}]]